[[{"header":{"parameterUnit":"m.s-1","parameterCategory":1,"la1":30.6,"la2":28.766,"lo1":-90.7593,"lo2":-88.6598,"dy":0.0162,"dx":0.0183,"nx":116,"ny":114,"refTime":"2023-05-22T12:00:00:Z","depth":0,"parameterNumber":2,"parameterNumberName":"U-component_of_WINDS"},"data":[0.0,0.0,0.0,0.0,0.0,0.0,0.0,0.0,0.0,0.0,0.0,0.0,0.0,0.0,0.0,0.0,0.0,0.0,0.0,0.0,0.0,0.0,0.0,0.0,0.0,0.0,0.0,0.0,0.0,0.0,0.0,0.0,0.0,0.0,0.0,0.0,0.0,0.0,0.0,0.0,0.0,0.0,0.0,0.0,0.0,0.0,0.0,0.0,0.0,0.0,0.0,0.0,0.0,0.0,0.0,0.0,0.0,0.0,0.0,0.0,0.0,0.0,0.0,0.0,0.0,0.0,0.0,0.0,0.0,0.0,0.0,0.0,0.0,0.0,0.0,0.0,0.0,0.0,0.0,0.0,0.0,0.0,0.0,0.0,0.0,0.0,0.0,0.0,0.0,0.0,0.0,0.0,0.0,0.0,0.0,0.0,0.0,0.0,0.0,0.0,0.0,0.0,0.0,0.0,0.0,0.0,0.0,0.0,0.0,0.0,0.0,0.0,0.0,0.0,0.0,0.0,0.0,0.0,0.0,0.0,0.0,0.0,0.0,0.0,0.0,0.0,0.0,0.0,0.0,0.0,0.0,0.0,0.0,0.0,0.0,0.0,0.0,0.0,0.0,0.0,0.0,0.0,0.0,0.0,0.0,0.0,0.0,0.0,0.0,0.0,0.0,0.0,0.0,0.0,0.0,0.0,0.0,0.0,0.0,0.0,0.0,0.0,0.0,0.0,0.0,0.0,0.0,0.0,0.0,0.0,0.0,0.0,0.0,0.0,0.0,0.0,0.0,0.0,0.0,0.0,0.0,0.0,0.0,0.0,0.0,0.0,0.0,0.0,0.0,0.0,0.0,0.0,0.0,0.0,0.0,0.0,0.0,0.0,0.0,0.0,0.0,0.0,0.0,0.0,0.0,0.0,0.0,0.0,0.0,0.0,0.0,0.0,0.0,0.0,0.0,0.0,0.0,0.0,0.0,0.0,0.0,0.0,0.0,0.0,0.0,0.0,0.0,0.0,0.0,0.0,0.0,0.0,0.0,0.0,0.0,0.0,0.0,0.0,0.0,0.0,0.0,0.0,0.0,0.0,0.0,0.0,0.0,0.0,0.0,0.0,0.0,0.0,0.0,0.0,0.0,0.0,0.0,0.0,0.0,0.0,0.0,0.0,0.0,0.0,0.0,0.0,0.0,0.0,0.0,0.0,0.0,0.0,0.0,0.0,0.0,0.0,0.0,0.0,0.0,0.0,0.0,0.0,0.0,0.0,0.0,0.0,0.0,0.0,0.0,0.0,0.0,0.0,0.0,0.0,0.0,0.0,0.0,0.0,0.0,0.0,0.0,0.0,0.0,0.0,0.0,0.0,0.0,0.0,0.0,0.0,0.0,0.0,0.0,0.0,0.0,0.0,0.0,0.0,0.0,0.0,0.0,0.0,0.0,0.0,0.0,0.0,0.0,0.0,0.0,0.0,0.0,0.0,0.0,0.0,0.0,0.0,0.0,0.0,0.0,0.0,0.0,0.0,0.0,0.0,0.0,0.0,0.0,0.0,0.0,0.0,0.0,0.0,0.0,0.0,0.0,0.0,0.0,0.0,0.0,0.0,0.0,0.0,0.0,0.0,0.0,0.0,0.0,0.0,0.0,0.0,0.0,0.0,0.0,0.0,0.0,0.0,0.0,0.0,0.0,0.0,0.0,0.0,0.0,0.0,0.0,0.0,0.0,0.0,0.0,0.0,0.0,0.0,0.0,0.0,0.0,0.0,0.0,0.0,0.0,0.0,0.0,0.0,0.0,0.0,0.0,0.0,0.0,0.0,0.0,0.0,0.0,0.0,0.0,0.0,0.0,0.0,0.0,0.0,0.0,0.0,0.0,0.0,0.0,0.0,0.0,0.0,0.0,0.0,0.0,0.0,0.0,0.0,0.0,0.0,0.0,0.0,0.0,0.0,0.0,0.0,0.0,0.0,0.0,0.0,0.0,0.0,0.0,0.0,0.0,0.0,0.0,0.0,0.0,0.0,0.0,0.0,0.0,0.0,0.0,0.0,0.0,0.0,0.0,0.0,0.0,0.0,0.0,0.0,0.0,0.0,0.0,0.0,0.0,0.0,0.0,0.0,0.0,0.0,0.0,0.0,0.0,0.0,0.0,0.0,0.0,0.0,0.0,0.0,0.0,0.0,0.0,0.0,0.0,0.0,0.0,0.0,0.0,0.0,0.0,0.0,0.0,0.0,0.0,0.0,0.0,0.0,0.0,0.0,0.0,0.0,0.0,0.0,0.0,0.0,0.0,0.0,0.0,0.0,0.0,0.0,0.0,0.0,0.0,0.0,0.0,0.0,0.0,0.0,0.0,0.0,0.0,0.0,0.0,0.0,0.0,0.0,0.0,0.0,0.0,0.0,0.0,0.0,0.0,0.0,0.0,0.0,0.0,0.0,0.0,0.0,0.0,0.0,0.0,0.0,0.0,0.0,0.0,0.0,0.0,0.0,0.0,0.0,0.0,0.0,0.0,0.0,0.0,0.0,0.0,0.0,0.0,0.0,0.0,0.0,0.0,0.0,0.0,0.0,0.0,0.0,0.0,0.0,0.0,0.0,0.0,0.0,0.0,0.0,0.0,0.0,0.0,0.0,0.0,0.0,0.0,0.0,0.0,0.0,0.0,0.0,0.0,0.0,0.0,0.0,0.0,0.0,0.0,0.0,0.0,0.0,0.0,0.0,0.0,0.0,0.0,0.0,0.0,0.0,0.0,0.0,0.0,0.0,0.0,0.0,0.0,0.0,0.0,0.0,0.0,0.0,0.0,0.0,0.0,0.0,0.0,0.0,0.0,0.0,0.0,0.0,0.0,0.0,0.0,0.0,0.0,0.0,0.0,0.0,0.0,0.0,0.0,0.0,0.0,0.0,0.0,0.0,0.0,0.0,0.0,0.0,0.0,0.0,0.0,0.0,0.0,0.0,0.0,0.0,0.0,0.0,0.0,0.0,0.0,0.0,0.0,0.0,0.0,0.0,0.0,0.0,0.0,0.0,0.0,0.0,0.0,0.0,0.0,0.0,0.0,0.0,0.0,0.0,0.0,0.0,0.0,0.0,0.0,0.0,0.0,0.0,0.0,0.0,0.0,0.0,0.0,0.0,0.0,0.0,0.0,0.0,0.0,0.0,0.0,0.0,0.0,0.0,0.0,0.0,0.0,0.0,0.0,0.0,0.0,0.0,0.0,0.0,0.0,0.0,0.0,0.0,0.0,0.0,0.0,0.0,0.0,0.0,0.0,0.0,0.0,0.0,0.0,0.0,0.0,0.0,0.0,0.0,0.0,0.0,0.0,0.0,0.0,0.0,0.0,0.0,0.0,0.0,0.0,0.0,0.0,0.0,0.0,0.0,0.0,0.0,0.0,0.0,0.0,0.0,0.0,0.0,0.0,0.0,0.0,0.0,0.0,0.0,0.0,0.0,0.0,0.0,0.0,0.0,0.0,0.0,0.0,0.0,0.0,0.0,0.0,0.0,0.0,0.0,0.0,0.0,0.0,0.0,0.0,0.0,0.0,0.0,0.0,0.0,0.0,0.0,0.0,0.0,0.0,0.0,0.0,0.0,0.0,0.0,0.0,0.0,0.0,0.0,0.0,0.0,0.0,0.0,0.0,0.0,0.0,0.0,0.0,0.0,0.0,0.0,0.0,0.0,0.0,0.0,0.0,0.0,0.0,0.0,0.0,0.0,0.0,0.0,0.0,0.0,0.0,0.0,0.0,0.0,0.0,0.0,0.0,0.0,0.0,0.0,0.0,0.0,0.0,0.0,0.0,0.0,0.0,0.0,0.0,0.0,0.0,0.0,0.0,0.0,0.0,0.0,0.0,0.0,0.0,0.0,0.0,0.0,0.0,0.0,0.0,0.0,0.0,0.0,0.0,0.0,0.0,0.0,0.0,0.0,0.0,0.0,0.0,0.0,0.0,0.0,0.0,0.0,0.0,0.0,0.0,0.0,0.0,0.0,0.0,0.0,0.0,0.0,0.0,0.0,0.0,0.0,0.0,0.0,0.0,0.0,0.0,0.0,0.0,0.0,0.0,0.0,0.0,0.0,0.0,0.0,0.0,0.0,0.0,0.0,0.0,0.0,0.0,0.0,0.0,0.0,0.0,0.0,0.0,0.0,0.0,0.0,0.0,0.0,0.0,0.0,0.0,0.0,0.0,0.0,0.0,0.0,0.0,0.0,0.0,0.0,0.0,0.0,0.0,0.0,0.0,0.0,0.0,0.0,0.0,0.0,0.0,0.0,0.0,0.0,0.0,0.0,0.0,0.0,0.0,0.0,0.0,0.0,0.0,0.0,0.0,0.0,0.0,0.0,0.0,0.0,0.0,0.0,0.0,0.0,0.0,0.0,0.0,0.0,0.0,0.0,0.0,0.0,0.0,0.0,0.0,0.0,0.0,0.0,0.0,0.0,0.0,0.0,0.0,0.0,0.0,0.0,0.0,0.0,0.0,0.0,0.0,0.0,0.0,0.0,0.0,0.0,0.0,0.0,0.0,0.0,0.0,0.0,0.0,0.0,0.0,0.0,0.0,0.0,0.0,0.0,0.0,0.0,0.0,0.0,0.0,0.0,0.0,0.0,0.0,0.0,0.0,0.0,0.0,0.0,0.0,0.0,0.0,0.0,0.0,0.0,0.0,0.0,0.0,0.0,0.0,0.0,0.0,0.0,0.0,0.0,0.0,0.0,0.0,0.0,0.0,0.0,0.0,0.0,0.0,0.0,0.0,0.0,0.0,0.0,0.0,0.0,0.0,0.0,0.0,0.0,0.0,0.0,0.0,0.0,0.0,0.0,0.0,0.0,0.0,0.0,0.0,0.0,0.0,0.0,0.0,0.0,0.0,0.0,0.0,0.0,0.0,0.0,0.0,0.0,0.0,0.0,0.0,0.0,0.0,0.0,0.0,0.0,0.0,0.0,0.0,0.0,0.0,0.0,0.0,0.0,0.0,0.0,0.0,0.0,0.0,0.0,0.0,0.0,0.0,0.0,0.0,0.0,0.0,0.0,0.0,0.0,0.0,0.0,0.0,0.0,0.0,0.0,0.0,0.0,0.0,0.0,0.0,0.0,0.0,0.0,0.0,0.0,0.0,0.0,0.0,0.0,0.0,0.0,0.0,0.0,0.0,0.0,0.0,0.0,0.0,0.0,0.0,0.0,0.0,0.0,0.0,0.0,0.0,0.0,0.0,0.0,0.0,0.0,0.0,0.0,0.0,0.0,0.0,0.0,0.0,0.0,0.0,0.0,0.0,0.0,0.0,0.0,0.0,0.0,0.0,0.0,0.0,0.0,0.0,0.0,0.0,0.0,0.0,0.0,0.0,0.0,0.0,0.0,0.0,0.0,0.0,0.0,0.0,0.0,0.0,0.0,0.0,0.0,0.0,0.0,0.0,0.0,0.0,0.0,0.0,0.0,0.0,0.0,0.0,0.0,0.0,0.0,0.0,0.0,0.0,0.0,0.0,0.0,0.0,0.0,0.0,0.0,0.0,0.0,0.0,0.0,0.0,0.0,0.0,0.0,0.0,0.0,0.0,0.0,0.0,0.0,0.0,0.0,0.0,0.0,0.0,0.0,0.0,0.0,0.0,0.0,0.0,0.0,0.0,0.0,0.0,0.0,0.0,0.0,0.0,0.0,0.0,0.0,0.0,0.0,0.0,0.0,0.0,0.0,0.0,0.0,0.0,0.0,0.0,0.0,0.0,0.0,0.0,0.0,0.0,0.0,0.0,0.0,0.0,0.0,0.0,0.0,0.0,0.0,0.0,0.0,0.0,0.0,0.0,0.0,0.0,0.0,0.0,0.0,0.0,0.0,0.0,0.0,0.0,0.0,0.0,0.0,0.0,0.0,0.0,0.0,0.0,0.0,0.0,0.0,0.0,0.0,0.0,0.0,0.0,0.0,0.0,0.0,0.0,0.0,0.0,0.0,0.0,0.0,0.0,0.0,0.0,0.0,0.0,0.0,0.0,0.0,0.0,0.0,0.0,0.0,0.0,0.0,0.0,0.0,0.0,0.0,0.0,0.0,0.0,0.0,0.0,0.0,0.0,0.0,0.0,0.0,0.0,0.0,0.0,0.0,0.0,0.0,3.1347,3.2658,0.0,0.0,0.0,0.0,0.0,0.0,0.0,0.0,0.0,0.0,0.0,0.0,0.0,0.0,0.0,0.0,0.0,0.0,0.0,0.0,0.0,0.0,0.0,0.0,0.0,0.0,0.0,0.0,0.0,0.0,0.0,0.0,0.0,0.0,0.0,0.0,0.0,0.0,0.7851,0.4327,0.2323,1.0204,1.6689,2.1969,0.0,0.0,0.0,0.0,0.0,0.0,0.0,0.0,0.0,0.0,0.0,0.0,0.0,0.0,0.0,0.0,0.0,0.0,0.0,0.0,0.0,0.0,0.0,0.0,0.0,0.0,0.0,0.0,0.0,0.0,0.0,0.0,0.0,0.0,0.0,0.0,0.0,0.0,0.0,0.0,0.0,0.0,0.0,0.0,0.0,0.0,0.0,0.0,0.0,0.0,0.0,0.0,0.0,0.0,0.0,0.0,0.0,0.0,0.0,0.0,0.0,0.0,0.0,0.0,0.0,0.0,0.0,0.0,0.0,0.0,2.7358,3.0145,0.0,0.0,0.0,0.0,0.0,0.0,0.0,0.0,0.0,0.0,0.0,0.0,0.0,0.0,0.0,0.0,0.0,0.0,0.0,0.0,0.0,0.0,0.0,0.0,0.0,0.0,0.0,0.0,0.0,0.0,0.0,0.0,0.0,0.0,0.0,0.0,0.0,0.0,-0.0269,-0.3828,-0.4671,-0.1243,0.4315,1.1794,2.2768,0.0,0.0,0.0,0.0,0.0,0.0,0.0,0.0,0.0,0.0,0.0,0.0,0.0,0.0,0.0,0.0,0.0,0.0,0.0,0.0,0.0,0.0,0.0,0.0,0.0,0.0,0.0,0.0,0.0,0.0,0.0,0.0,0.0,0.0,0.0,0.0,0.0,0.0,0.0,0.0,0.0,0.0,0.0,0.0,0.0,0.0,0.0,0.0,0.0,0.0,0.0,0.0,0.0,0.0,0.0,0.0,0.0,0.0,0.0,0.0,0.0,0.0,0.0,-0.8031,-0.6673,-0.4814,0.243,1.0187,1.8066,2.2225,2.6491,3.041,2.9917,0.0,0.0,0.0,0.0,0.0,0.0,0.0,0.0,0.0,0.0,0.0,0.0,0.0,0.0,0.0,0.0,0.0,0.0,0.0,0.0,0.0,0.0,0.0,0.0,0.0,0.0,0.0,0.0,0.0,0.0,0.0,0.0,0.0,1.1291,0.5264,-0.1377,-1.1662,-1.6464,-1.6046,-1.5492,-1.0519,-0.1473,1.2555,2.2671,2.9151,0.0,0.0,0.0,0.0,0.0,0.0,0.0,0.0,0.0,0.0,0.0,0.0,0.0,0.0,0.0,0.0,0.0,0.0,0.0,0.0,0.0,0.0,0.0,0.0,0.0,0.0,0.0,0.0,0.0,0.0,0.0,0.0,0.0,0.0,0.0,0.0,0.0,0.0,0.0,0.0,0.0,2.7659,2.8042,0.0,0.0,0.0,0.0,0.0,0.0,0.0,0.0,0.0,0.0,0.0,0.0,0.0,-0.7635,-1.1682,-1.6884,-2.1498,-2.5554,-2.5863,-2.8098,-3.1399,-1.4507,0.0406,1.2956,1.5545,0.0,2.6257,2.5674,0.0,0.0,0.0,0.0,0.0,0.0,0.0,0.0,0.0,0.0,0.0,0.0,0.0,0.0,0.0,0.0,0.0,0.0,0.0,0.0,0.0,0.0,0.0,0.0,0.0,0.0,0.0,0.0,0.0,0.0,0.0,0.0,0.0,0.0,-0.3247,-1.3803,-1.9706,-2.2045,-2.0948,-1.8067,-1.383,-0.8247,0.2487,1.2086,2.0588,2.5517,0.0,0.0,0.0,0.0,0.0,0.0,0.0,0.0,0.0,0.0,0.0,0.0,0.0,0.0,0.0,0.0,0.0,0.0,0.0,0.0,0.0,0.0,0.0,0.0,0.0,0.0,0.0,0.0,0.0,0.0,0.0,0.0,0.0,0.0,0.0,0.0,0.0,0.0,0.0,2.4247,2.1942,2.0629,1.9754,2.0076,0.0,0.0,0.0,0.0,0.0,0.0,0.0,0.0,0.0,-0.8271,-1.4618,-1.9973,-2.4192,-2.7825,-3.1298,-3.4607,-3.1111,-3.1006,-3.3294,-1.5727,-0.2457,0.6907,1.0649,1.4774,1.8916,2.1101,2.2698,2.3623,0.0,0.0,0.0,0.0,1.6092,1.4325,0.0,0.0,0.0,0.0,0.0,0.0,0.0,0.0,0.0,0.0,0.0,0.0,0.0,0.0,0.0,-1.5039,0.0,0.0,0.0,0.0,0.0,0.0,0.0,0.0,0.0,0.0,0.0,-2.36,-2.4762,-2.4342,-2.2401,-1.7875,-1.4237,-1.1278,-0.4964,0.3363,1.3037,2.0648,2.427,2.5054,0.0,0.0,0.0,0.0,0.0,0.0,0.0,0.0,0.0,0.0,0.0,0.0,0.0,0.0,0.0,0.0,0.0,0.0,0.0,0.0,0.0,0.0,0.0,0.0,0.0,0.0,0.0,0.0,0.0,0.0,0.0,0.0,0.0,0.0,0.0,0.0,0.0,1.8805,1.4859,1.1669,0.9761,0.9896,0.0,0.0,0.0,0.0,0.0,0.0,0.0373,-0.4693,-1.1226,-1.9421,-2.542,-3.0352,-3.4162,-3.6121,-3.671,-3.5916,-3.037,-2.7396,-2.6307,-1.1337,-0.1177,0.481,0.8401,1.0967,1.2864,1.6656,1.8882,1.9613,1.6245,1.4325,1.3099,1.003,0.8222,0.6913,0.0,0.0,0.0,0.0,0.0,0.0,0.0,0.0,0.0,0.0,0.0,0.0,0.0,0.0,-1.4157,-2.1744,-2.4144,-2.1784,0.0,0.0,0.0,0.0,0.0,0.0,0.0,0.0,0.0,-2.6858,-2.6066,-2.3899,-2.0459,-1.7561,-1.4195,-1.049,-0.7891,0.0193,1.1912,1.2995,1.7648,2.4228,2.3741,0.0,0.0,0.0,0.0,0.0,0.0,0.0,0.0,0.0,0.0,0.0,0.0,0.0,0.0,0.0,0.0,0.0,0.0,0.0,0.0,0.0,0.0,0.0,0.0,0.0,0.0,0.0,0.0,0.0,0.0,0.0,0.0,0.0,0.0,0.0,0.0,0.0,0.0,0.1799,-0.0973,0.0,0.0,0.0,0.0,0.3164,0.1342,-0.1908,-0.6646,-1.2007,-1.9148,-2.826,-3.3815,-3.7608,-3.9667,-4.1006,-3.6753,-2.7028,-2.4394,-2.0062,-1.4014,-0.3628,0.4201,0.9673,0.975,0.991,1.0178,1.2516,1.4865,1.6677,1.2428,0.7651,0.3199,0.3635,0.1836,-0.1555,0.0,0.0,0.0,0.0,0.0,0.0,0.0,0.0,0.0,0.0,0.0,0.0,0.0,-0.9637,-1.6388,-2.2679,-2.4203,-2.2851,-1.8191,0.0,0.0,0.0,0.0,0.0,0.0,0.0,-2.575,-2.7415,-2.6014,-2.3793,-2.0769,-1.722,-1.4013,-1.1166,-0.9339,-0.5485,0.0133,0.7351,1.2647,1.6412,1.9615,2.2867,0.0,0.0,0.0,0.0,0.0,0.0,0.0,0.0,0.0,0.0,0.0,0.0,0.0,0.0,0.0,0.0,0.0,0.0,0.0,0.0,0.0,0.0,0.0,0.0,0.0,0.0,0.0,0.0,0.0,0.0,0.0,0.0,0.0,0.0,0.0,0.0,0.0,-1.0377,-1.2346,0.0,-0.9432,-0.9487,-0.8925,-0.6965,-1.0664,-1.5111,-1.997,-2.3593,-2.8592,-3.5305,-3.8867,-4.1428,-4.2984,-4.3501,-3.8094,-2.6936,-2.2432,-1.5775,-0.7194,0.1326,0.6898,0.9788,0.8832,0.8363,0.8362,0.921,1.0789,1.1927,0.6138,0.2039,-0.1027,-0.384,-0.5708,-0.7573,0.0,0.0,0.0,0.0,0.0,0.0,0.0,0.0,0.0,0.0,0.0,0.3355,-0.3811,-1.0079,-1.6013,-2.1669,-2.2094,-2.2109,-2.2177,0.0,0.0,0.0,-1.3453,0.0,0.0,-2.4996,-2.6995,-2.743,-2.5386,-2.2915,-2.0006,-1.6826,-1.4119,-1.1882,-1.0347,-0.918,-0.7741,0.0263,0.5836,0.9716,1.4183,1.7478,1.9843,0.0,0.0,0.0,0.0,0.0,0.0,0.0,0.0,0.0,0.0,0.0,0.0,0.0,0.0,0.0,0.0,0.0,0.0,0.0,0.0,0.0,0.0,0.0,0.0,0.0,0.0,0.0,0.0,0.0,0.0,0.0,0.0,0.0,0.0,-0.9482,-1.6341,-2.0495,-2.2318,-2.2144,-1.9369,-2.0144,-2.0112,-1.8251,-2.2056,-2.5753,-2.8878,-3.1507,-3.4752,-3.8798,-4.1108,-4.2747,-4.3746,-4.3799,-3.7806,-2.5886,-1.9931,-1.0142,0.2893,0.6662,0.8861,0.9584,0.8128,0.7404,0.7319,0.7526,0.7297,0.6429,0.1955,-0.1477,-0.4466,-0.8626,-1.0529,-1.1727,0.0,0.0,0.0,0.0,0.0,0.0,0.0,0.0,0.0,0.0,0.768,0.2511,-0.3323,-0.7985,-1.2948,-1.864,-1.8314,-1.9976,-2.5091,-2.3646,0.0,0.0,0.0,0.0,-2.4296,-2.6641,-2.7595,-2.7068,-2.4358,-2.1341,-1.8129,-1.6402,-1.4473,-1.2361,-1.1093,-1.0521,-1.0345,-0.8101,-0.2729,0.447,0.7456,0.9119,1.0013,0.0,0.0,0.0,0.0,0.0,0.0,0.0,0.0,0.0,0.0,0.0,0.0,0.0,0.0,0.0,0.0,0.0,0.0,0.0,0.0,0.0,0.0,0.0,0.0,0.0,0.0,0.0,0.0,0.0,0.0,0.0,0.0,0.0,-1.582,-1.9214,-2.351,-2.8147,-3.0563,-3.1403,-3.0369,-3.1454,-3.165,-3.0286,-3.2011,-3.2919,-3.2471,-3.4976,-3.7126,-3.8705,-4.0593,-4.1743,-4.2066,-4.2041,-3.5726,-2.3181,-1.6702,-0.3275,1.5706,1.1997,0.9976,0.9257,0.7793,0.6986,0.69,0.718,0.4516,0.0275,0.0272,-0.2778,-0.7516,-1.0346,-1.2165,-1.4124,0.0,0.0,0.0,0.0,0.0,0.0,0.0,0.0,0.0,0.0,0.7486,0.3158,-0.1133,-0.3893,-0.5755,-0.6505,-1.2099,-1.5395,-1.4977,0.0,0.0,0.0,0.0,0.0,-2.5153,-2.6204,-2.6666,-2.6525,-2.4549,-2.222,-1.9566,-1.6927,-1.4873,-1.338,-1.1999,-1.1093,-1.0534,-0.8851,-0.645,-0.3413,0.1604,0.4458,0.5792,0.0,0.0,0.0,0.0,0.0,0.0,0.0,0.0,0.0,0.0,0.0,0.0,0.0,0.0,0.0,0.0,0.0,0.0,0.0,0.0,0.0,0.0,0.0,0.0,0.0,0.0,0.0,0.0,0.0,0.0,0.0,-2.1585,-2.7372,-3.0407,-3.0436,-3.1039,-3.335,-3.3498,-3.3271,-3.2929,-3.2635,-3.2291,-3.1921,-3.2401,-3.2974,-3.3516,-3.5401,-3.6848,-3.7853,-4.0125,-4.1322,-4.1227,-4.0996,-3.4567,-2.208,-1.803,-0.7932,0.716,0.5347,0.5194,0.6028,0.268,0.1175,0.1093,0.0595,-0.0343,-0.1469,-0.0354,-0.3436,-0.8512,-0.9736,-1.3134,-1.7762,0.0,0.0,0.0,0.0,0.0,0.0,0.0,0.0,0.0,0.0,0.8286,0.4823,0.1877,0.1208,0.0629,-0.0151,-0.3685,-0.7286,-1.0658,0.0,0.0,0.0,0.0,-2.4358,-2.553,-2.5965,-2.6113,-2.6012,-2.4059,-2.2048,-1.9974,-1.7648,-1.5765,-1.431,-1.2849,-1.1779,-1.1045,-0.8955,-0.7744,-0.6955,-0.3351,-0.1609,-0.1465,-0.3595,-0.461,-0.5159,-0.6026,-0.4131,-0.0244,0.596,0.0,0.0,0.0,0.0,0.0,0.0,0.0,0.0,0.0,0.0,0.0,0.0,0.0,0.0,0.0,0.0,0.0,0.0,0.0,0.0,0.0,0.0,0.0,0.0,-2.9353,-3.4343,-3.7882,-3.6362,-3.5233,-3.6409,-3.5371,-3.461,-3.461,-3.4109,-3.3837,-3.3837,-3.3837,-3.4041,-3.461,-3.5814,-3.666,-3.6973,-3.9093,-4.011,-3.9848,-3.9334,-3.466,-2.5773,-2.0639,-1.2348,-0.1511,-0.1001,0.0078,0.1268,-0.2003,-0.4751,-0.7103,-0.7885,-0.816,-0.7923,0.0,0.0,0.0,0.0,-1.5681,-2.0193,0.0,0.0,0.0,0.0,0.0,0.0,0.0,0.0,0.0,0.0,0.0,0.7317,0.537,0.6786,0.6773,0.3988,0.5559,0.1682,0.0,0.0,0.0,-2.146,-2.3656,-2.5043,-2.5469,-2.5757,-2.5726,-2.5427,-2.3259,-2.1409,-1.9818,-1.8303,-1.6744,-1.5171,-1.3466,-1.2295,-1.1498,-0.8722,-0.7453,-0.73,-0.688,-0.7565,-0.9348,-1.4144,-1.6214,-1.6761,-1.8881,-1.5471,-0.9459,-0.6229,0.0,0.0,0.0,0.0,0.0,0.0,0.0,0.0,0.0,0.0,0.0,0.0,0.0,0.0,0.0,0.0,0.0,0.0,0.0,0.0,0.0,0.0,0.0,0.0,-3.5474,-3.8545,-4.0464,-3.8405,-3.6974,-3.7614,-3.6307,-3.5385,-3.5385,-3.5325,-3.531,-3.5385,-3.5325,-3.5344,-3.5394,-3.6123,0.0,0.0,0.0,-3.8395,-3.8112,-3.7296,-3.5084,-3.1406,-2.3927,-1.6951,-1.0479,-0.7694,-0.5845,-0.509,-0.6863,-1.0608,-1.5388,-1.6345,-1.6788,-1.6724,-1.4866,-1.3877,-1.3783,-1.613,-1.8934,-2.1885,0.0,0.0,0.0,0.0,0.0,0.0,0.0,0.0,0.0,1.415,1.2051,1.0401,0.95,1.1808,1.4206,1.6299,1.1567,0.313,0.0,0.0,-1.6837,-2.1226,-2.2634,-2.375,-2.4687,-2.5036,-2.49,-2.431,-2.3431,-2.2004,-2.0075,-1.8011,-1.6484,-1.5362,-1.3044,-1.1286,-1.0019,-0.8602,-0.7333,-0.6324,-0.6602,-0.7816,-0.9736,-1.2458,-1.4844,-1.694,-1.8135,-1.7072,-1.407,-0.7148,-0.3322,-0.0426,0.6003,0.7692,0.0,0.0,0.0,0.0,0.0,0.0,0.0,0.0,0.0,0.0,0.0,0.0,0.0,0.0,0.0,0.0,0.0,0.0,0.0,-3.6109,-3.8638,-4.0369,-4.1414,-3.8824,-3.6838,-3.6966,-3.5644,-3.4666,-3.4666,-3.4188,-3.4098,-3.4637,-3.4188,-3.409,-3.4693,-3.548,-3.5835,-3.5727,-3.6824,-3.7072,-3.6381,-3.5077,-3.3242,-3.0888,-2.6523,0.0,-2.0281,-1.6579,-1.4873,-1.4763,-1.4447,-1.4977,-1.6139,-1.7992,-2.0018,-2.1551,-1.7502,-1.5846,-1.6076,-1.8639,-2.1073,-2.3413,0.0,0.0,0.0,0.0,0.0,0.0,0.0,0.0,0.0,0.0,1.4633,1.384,1.3621,1.6315,1.8811,2.0348,1.3805,0.0,0.0,-0.7735,-1.3731,-1.816,-2.0744,-2.2643,-2.3928,-2.456,-2.4689,-2.4307,-2.3658,-2.2426,-2.0621,-1.8642,-1.6744,-1.4875,-1.2378,-1.0557,-0.9235,-0.7792,-0.6755,-0.6117,-0.6081,-0.6986,-0.8668,-1.1483,-1.3514,-1.4935,-1.6186,-1.578,-1.4011,-0.9632,-0.819,-0.7374,-0.2586,-0.1336,-0.1001,0.0,0.0,0.0,0.0,0.0,0.0,0.0,0.0,0.0,0.0,0.0,0.0,0.0,0.0,-2.6085,-3.3187,0.0,-3.6757,-3.9619,-4.0203,-4.0517,-4.1186,-3.8354,-3.6389,-3.6742,-3.5135,-3.4149,-3.4471,-3.4166,-3.4166,-3.444,-3.4226,-3.3994,-3.3975,-3.4344,-3.4594,-3.4496,-3.5445,-3.5645,-3.5069,-3.4147,-3.2619,-3.0419,-2.8077,-2.5749,-2.3552,-2.1607,-2.0284,-1.9585,-1.9333,-1.9141,-1.9136,-2.1295,-2.3258,-2.4747,-2.2598,-2.1233,-2.0537,-2.2079,-2.3643,-2.5188,0.0,0.0,0.0,0.0,0.0,0.0,0.0,0.0,0.0,0.0,1.6877,1.6767,1.7179,1.9523,2.1083,0.0,0.0,0.0,0.0,-0.2266,-1.0355,-1.4683,-1.819,-2.0941,-2.2832,-2.3724,-2.4218,-2.4289,-2.3582,-2.2412,-2.0779,-1.8619,-1.6367,-1.4,-1.1438,-0.9683,-0.8558,-0.7023,-0.5998,-0.5393,-0.5415,-0.5517,-0.5989,-0.8826,-1.0843,-1.2205,-1.312,-1.2192,-1.0576,-1.1044,-1.1527,-1.1852,-1.1142,-1.1005,-1.0237,-0.6106,-0.1001,0.0,0.0,0.0,0.0,0.0,0.0,0.0,0.0,-2.2959,-2.6451,-3.2948,-3.4499,-3.5193,-3.6843,-3.8599,-4.0326,-4.197,-4.1118,-4.0288,-4.0465,-3.7367,-3.5291,-3.5721,-3.4296,-3.3517,-3.4035,-3.3971,-3.3952,-3.4052,-3.3986,-3.3671,-3.3224,-3.3316,-3.3437,-3.3508,-3.4314,-3.4571,-3.4207,-3.3706,-3.2429,-3.0364,-2.9118,-2.721,-2.4761,-2.4619,-2.3806,-2.2469,-2.2763,-2.2862,-2.2955,-2.4847,-2.6294,-2.7292,-2.7667,-2.6828,-2.5495,-2.561,-2.614,-2.6997,0.0,0.0,0.0,0.0,0.0,0.0,0.0,0.0,0.0,0.0,0.0,0.0,0.0,0.0,0.0,0.0,0.0,0.0,0.7955,0.1774,-0.5173,-1.3006,-1.5032,-1.7501,-2.0837,-2.1606,-2.2355,-2.3173,-2.2569,-2.147,-1.9878,-1.6213,-1.3887,-1.2613,-1.0067,-0.8388,-0.7461,-0.7111,-0.5328,-0.279,-0.4654,-0.3469,-0.0531,-0.0863,-0.483,-1.0047,-0.8045,-0.5214,-0.3046,-0.8031,-1.0732,-1.3029,-1.8828,-2.2855,-2.4776,-2.1245,-1.5677,-0.8184,0.3223,1.5003,2.1683,1.1748,0.4168,-0.5493,0.0,-2.8093,-3.0788,-3.7493,-3.7562,-3.689,-3.8548,-4.0497,-4.2048,-4.2632,-4.1797,-4.0769,-3.9931,-3.5861,-3.2765,-3.2242,-3.2447,-3.2617,-3.2736,-3.2195,-3.2065,-3.2567,-3.2091,-3.195,-3.2476,-3.2868,-3.3347,-3.3991,-3.4251,-3.4325,-3.4311,-3.3182,-3.2231,-3.1416,-2.9976,-2.8482,-2.7026,-2.6491,-2.5755,-2.4966,-2.5034,-2.5672,-2.6814,-2.7622,-2.8684,-2.9892,-2.9946,-2.98,-2.9476,-2.8373,-2.8086,-2.8467,0.0,0.0,0.0,0.0,0.0,0.0,0.0,0.0,0.0,0.0,0.0,0.0,0.0,0.0,0.0,0.0,0.0,0.0,0.9214,0.3962,-0.1753,-0.8071,-1.0105,-1.2346,-1.4979,-1.583,-1.5768,-1.4785,-1.3207,-1.1741,-1.0367,-0.7376,-0.5786,-0.5448,-0.3997,-0.3067,-0.266,-0.2608,-0.1882,-0.0593,0.0773,0.131,0.1637,0.483,0.4224,0.158,0.0485,0.1808,0.0,0.0652,-0.1623,-0.4575,-1.2503,-1.8661,-2.3069,-2.3506,-2.1103,-1.4769,0.142,1.3354,1.9214,1.0839,0.5727,-0.2118,-2.0609,-2.6337,-2.9952,-3.7756,-3.9191,-3.9338,-4.0367,-4.1745,-4.2656,-4.2488,-4.1152,-3.9554,-3.7854,-3.389,-3.0579,-2.8824,-2.8265,-2.8559,-2.9987,-3.0539,-3.0968,-3.1217,-3.1934,-3.204,-3.1423,-3.1833,-3.2001,-3.1777,-3.2099,-3.2122,-3.1858,-3.1395,-3.0954,-3.0489,-2.9674,-2.8841,-2.8015,-2.7799,-2.6886,-2.5449,-2.5325,-2.5828,-2.6795,-2.8231,-2.9352,-3.0212,-3.067,-3.057,-3.0132,-2.9621,-2.9256,-2.9049,0.0,0.0,0.0,0.0,0.0,0.0,0.0,0.0,0.0,0.0,0.0,0.0,0.0,0.0,0.0,0.0,0.0,0.0,0.0,0.6544,0.202,-0.2733,-0.4642,-0.6479,-0.8409,-0.9181,-0.8668,-0.6816,-0.4446,-0.274,-0.1636,0.0957,0.206,0.183,0.2213,0.2474,0.2746,0.2924,0.3235,0.3849,0.6727,0.7026,0.6343,1.1068,1.2639,1.1897,0.8484,0.9156,1.1145,0.8164,0.5917,0.2843,-0.5948,-1.2777,-1.8216,-2.1445,-2.068,-1.5383,0.0219,1.0539,1.5668,1.057,0.7903,0.1729,-1.6351,-2.2634,-2.7251,-3.6516,-3.9104,-3.9899,-4.054,-4.1636,-4.2403,-4.2318,-4.083,-3.8879,-3.662,-3.2371,-2.844,-2.5576,-2.3839,-2.3604,-2.5603,-2.8068,-2.9724,-3.0232,-3.141,-3.1796,-3.1028,-3.1132,-3.0981,-3.0392,-3.0746,-3.0792,-3.0469,-3.0398,-3.0208,-2.9809,-2.9281,-2.8825,-2.8451,-2.8137,-2.7188,-2.577,-2.5593,-2.5982,-2.6799,-2.8379,-2.9597,-3.0446,-3.064,-3.0534,-3.0241,-3.0005,-2.9542,-2.9105,0.0,0.0,0.0,0.0,0.0,0.0,0.0,0.0,0.0,0.0,0.0,0.0,0.0,0.0,2.1712,2.0039,0.0,0.0,0.0,1.0241,0.6935,0.2215,0.122,-0.0111,-0.2057,-0.228,-0.2106,-0.1541,0.0989,0.2641,0.3455,0.6633,0.7941,0.7617,0.7175,0.7274,0.784,0.8694,1.0076,1.1797,1.188,1.3286,1.5708,1.8948,1.9144,1.7393,1.4447,1.6896,2.0242,1.2283,0.8693,0.5984,-0.3071,-0.9039,-1.3367,-1.6655,-1.4073,-0.871,-0.2011,0.5231,1.0835,1.0673,0.8921,0.3193,-1.2133,-1.7977,-2.3295,-3.4233,-3.6869,-3.7437,-3.8177,-3.9661,-4.1163,-4.2388,-4.1385,-3.9597,-3.712,-3.1633,-2.6408,-2.2432,-1.9589,-1.8238,-1.9104,-2.4141,-2.8039,-2.9784,-2.9874,-3.042,-3.1613,-3.1121,-3.0893,-3.1075,-3.1261,-3.1359,-3.1359,-3.0976,-3.0581,-3.0172,-2.9127,-2.8494,-2.8279,-2.7147,-2.6602,-2.6542,-2.6428,-2.6909,-2.7876,-2.8406,-2.9661,-3.1132,-3.0003,-3.0024,-3.056,-2.9445,-2.8801,-2.8511,0.0,0.0,0.0,0.0,0.0,0.0,0.0,0.0,0.0,0.0,0.0,0.0,0.0,0.0,0.0,0.0,1.9597,1.7655,0.0,1.3263,1.0991,0.7155,0.6717,0.626,0.5474,0.5616,0.678,0.8985,1.1718,1.3567,1.4588,1.6663,1.7325,1.6726,1.5553,1.509,1.5187,1.4621,1.4947,1.5897,1.5694,1.6528,1.8348,2.1308,2.2068,2.1619,0.0,2.2672,2.2389,1.8996,1.6729,1.39,0.5694,0.0196,-0.4869,-1.3221,-1.4007,-1.1326,-0.7696,-0.1914,0.386,0.7146,0.8231,0.6158,-0.2648,-0.6236,-0.9849,-1.7486,-1.8785,-1.982,-2.4011,-2.7588,-3.1518,-3.654,-3.8792,-3.902,-3.644,-3.1934,-2.7503,-2.3809,-2.1235,-2.0398,-2.2043,-2.3646,-2.577,-2.8548,-2.9688,-3.0653,-3.1507,-3.1121,-3.066,-3.0183,-3.0113,-3.0083,-3.0083,-2.9285,-2.9058,-2.9407,-2.8712,-2.8359,-2.8247,-2.6627,-2.6094,-2.6413,-2.5826,-2.6094,-2.7039,-2.8049,-2.898,-2.9766,-2.9584,-2.9383,-2.9108,-2.8458,-2.764,-2.7009,0.0,0.0,0.0,0.0,0.0,0.0,0.0,0.0,0.0,0.0,0.0,0.0,0.0,0.0,0.0,0.0,0.0,1.9239,1.6769,0.0,1.4421,1.1625,1.1648,1.1769,1.1837,1.2526,1.4147,1.6742,1.9432,2.1173,2.1992,2.3479,2.3776,2.3011,2.1917,2.1419,2.1316,1.9807,1.951,2.0022,1.9459,1.986,2.116,2.4094,2.5072,0.0,2.6726,2.541,2.2851,2.2315,2.0429,1.7288,1.1324,0.5694,-0.0579,-0.9824,-1.2932,-1.3057,-1.1414,-0.6758,-0.1143,0.4024,0.7914,0.9033,0.3888,0.2464,0.0596,-0.5057,-0.6374,-0.7865,-1.2398,-1.8475,-2.4601,-3.0087,-3.4844,-3.7219,-3.5434,-3.1667,-2.7963,-2.4811,-2.2633,-2.2217,-2.4243,-2.4607,-2.6041,-2.9209,-3.0432,-3.1297,-3.1902,-3.1312,-3.0608,-2.9832,-2.9626,-2.9455,-2.9412,-2.8748,-2.8497,-2.8611,-2.7871,-2.7556,-2.7514,-2.5888,-2.5491,-2.6019,-2.556,-2.5847,-2.6785,-2.794,-2.8811,-2.941,-2.9066,-2.8812,-2.8519,-2.7402,-2.6633,-2.6264,0.0,0.0,0.0,0.0,0.0,0.0,0.0,0.0,0.0,0.0,0.0,0.0,0.0,0.0,0.0,0.0,0.0,0.0,1.9113,0.0,0.0,1.5541,1.5859,1.6349,1.6995,1.8204,1.971,2.1446,2.3862,2.5184,2.5507,2.6989,2.7225,2.6413,2.6134,2.6094,2.6145,2.423,2.3795,2.431,2.327,2.343,2.4552,2.7398,2.8255,2.7926,2.7749,2.5246,2.2021,2.2106,1.9566,1.5896,1.3377,0.7215,-0.0191,-0.6226,-1.0466,-1.3148,-1.2697,-0.9023,-0.3936,0.1762,0.8032,1.1747,0.7894,0.8324,0.8201,0.3334,0.0904,-0.1048,-0.3408,-1.2107,-2.0067,-2.3564,-3.0068,-3.4613,-3.4403,-3.1221,-2.8046,-2.5633,-2.3896,-2.3608,-2.5572,-2.6821,-2.8739,-3.1664,-3.1959,-3.2222,-3.2699,-3.1724,-3.0791,-3.0061,-2.9791,-2.9587,-2.9433,-2.9353,-2.8819,-2.7869,-2.6766,-2.623,-2.6149,-2.5129,-2.4909,-2.5439,-2.5697,-2.6303,-2.7204,-2.8058,-2.9094,-2.9972,-2.8452,-2.8315,-2.87,-2.6385,-2.576,-2.6132,0.0,0.0,0.0,0.0,0.0,0.0,0.0,0.0,0.0,0.0,0.0,0.0,0.0,0.0,0.0,0.0,0.0,0.0,1.9802,0.0,0.0,0.0,0.0,0.0,0.0,0.0,0.0,2.3523,2.4811,2.6216,2.7697,2.834,2.8973,2.9531,2.8909,2.9132,2.9887,2.7687,2.7843,2.9331,0.0,2.7652,2.9215,0.0,0.0,2.8453,2.6871,2.3893,2.0462,1.8605,1.4587,1.0207,0.9699,0.6595,0.2458,-0.1107,-0.5279,-0.8931,-0.9603,-0.7621,-0.3783,0.2353,0.8806,1.4435,1.7442,1.9751,2.0862,1.9571,1.9431,1.6892,0.8036,-0.0231,-0.9328,-2.027,-2.9064,-3.4991,-3.6444,-3.484,-3.2971,-3.1487,-2.9239,-2.8616,-3.0786,-3.1538,-3.2629,-3.4398,-3.3108,-3.2473,-3.3028,-3.2194,-3.1291,-3.0404,-2.9548,-2.9279,-2.9625,-2.8735,-2.8002,-2.7457,-2.6981,-2.6532,-2.619,-2.5486,-2.5501,-2.598,-2.5847,-2.6505,-2.7712,-2.8219,-2.8742,-2.9167,-2.7647,-2.7199,-2.7169,-2.5425,-2.465,-2.4497,0.0,0.0,0.0,0.0,0.0,0.0,0.0,0.0,0.0,0.0,0.0,0.0,0.0,0.0,0.0,0.0,0.0,0.0,0.0,0.0,0.0,0.0,0.0,0.0,0.0,0.0,0.0,0.0,0.0,0.0,2.7467,2.8533,2.9402,3.0057,3.0294,3.083,3.1488,3.019,0.0,0.0,0.0,0.0,0.0,0.0,0.0,2.8558,2.668,2.2471,1.7511,1.5341,1.1838,0.8195,0.7013,0.5472,0.3464,0.0212,-0.2597,-0.4997,-0.6647,-0.4859,-0.1261,0.4196,1.0609,1.6707,2.1173,2.4338,2.6525,2.7186,2.7189,2.4711,1.6953,0.7596,-0.238,-1.2813,-2.3389,-3.128,-3.417,-3.4467,-3.442,-3.452,-3.2822,-3.2363,-3.4093,-3.4274,-3.4662,-3.5558,-3.4194,-3.3283,-3.3244,-3.206,-3.0934,-3.0001,-2.937,-2.9084,-2.9164,-2.8196,-2.7495,-2.7028,-2.6621,-2.6205,-2.5751,-2.5186,-2.5359,-2.6043,-2.628,-2.7037,-2.8156,-2.8515,-2.8506,-2.8142,-2.7191,-2.648,-2.59,-2.4526,-2.3879,-2.367,0.0,0.0,0.0,0.0,0.0,0.0,0.0,0.0,0.0,0.0,0.0,0.0,0.0,0.0,0.0,0.0,0.0,0.0,0.0,0.0,0.0,0.0,0.0,0.0,0.0,2.4201,2.4807,2.4007,2.6428,2.721,0.0,0.0,0.0,0.0,0.0,0.0,0.0,0.0,0.0,0.0,0.0,0.0,0.0,0.0,0.0,2.8443,2.6281,2.1083,1.4954,1.3281,1.0772,0.8062,0.5731,0.4607,0.3407,0.0,-0.1002,-0.1435,-0.3312,-0.0981,0.303,0.7347,1.3408,1.9193,2.2349,2.554,2.8182,2.9347,2.8394,2.6249,2.2573,1.2383,0.236,-0.4338,-1.5973,-2.5565,-2.9701,-3.2206,-3.4179,-3.5753,-3.4964,-3.4697,-3.5677,-3.5321,-3.5097,-3.5274,-3.4548,-3.3754,-3.3014,-3.1528,-3.016,-2.9016,-2.8982,-2.8744,-2.8193,-2.7616,-2.7121,-2.6682,-2.6029,-2.5491,-2.5115,-2.4689,-2.4936,-2.5789,-2.6698,-2.7595,-2.842,-2.8839,-2.8419,-2.7489,-2.7048,-2.6188,-2.5014,-2.391,-2.3384,-2.3214,0.0,0.0,0.0,0.0,0.0,0.0,0.0,0.0,0.0,0.0,2.2137,2.2532,0.0,0.0,0.0,0.0,0.0,0.0,0.0,0.0,0.0,0.0,0.0,0.0,2.3236,2.417,2.4946,2.5595,2.6929,2.7856,0.0,0.0,0.0,0.0,0.0,0.0,0.0,0.0,0.0,0.0,0.0,0.0,0.0,0.0,0.0,0.0,2.3192,1.9801,1.7398,1.5751,1.1594,0.7292,0.7578,0.5727,0.3291,0.2712,0.2235,0.176,0.1185,0.4375,0.8896,1.3189,1.8526,2.3568,2.6826,2.8946,2.9972,2.92,2.8384,2.6133,2.0651,1.4339,0.7116,-0.1593,-1.2369,-2.1498,-2.685,-3.1663,-3.5127,-3.6466,-3.5253,-3.4374,-3.4586,-3.3975,-3.3293,-3.2633,-3.1826,-3.1331,-3.1237,-3.0886,-2.9667,-2.739,-2.7691,-2.7436,-2.654,-2.6507,-2.6561,-2.6692,-2.564,-2.5053,-2.4863,-2.4775,-2.5007,-2.5528,-2.6619,-2.7595,-2.842,-2.8839,-2.8879,-2.8612,-2.7598,-2.6527,-2.5385,-2.4294,-2.3299,-2.2479,0.0,0.0,0.0,0.0,0.0,0.0,0.0,0.0,2.4026,2.4013,2.4148,2.4091,2.3673,2.3779,0.0,0.0,0.0,0.0,0.0,0.0,0.0,0.0,0.0,0.0,2.3492,2.468,2.5516,2.5989,0.0,2.8517,2.8817,2.992,3.0467,3.0506,3.0602,3.0898,3.1293,3.0946,3.1055,3.1387,3.082,3.1226,0.0,0.0,0.0,0.0,2.385,2.1443,1.9977,1.8027,1.4352,1.0444,0.9565,0.7478,0.5372,0.5545,0.5541,0.5738,0.6894,0.9771,1.3365,1.7352,2.185,2.5691,2.7075,2.8419,2.9156,2.8335,2.7135,2.5139,2.1522,1.6407,1.0331,0.2805,-0.7135,-1.6253,-2.3038,-2.8641,-3.322,-3.6281,-3.5065,-3.3968,-3.3936,-3.3247,-3.2218,-3.0918,-3.0507,-3.0269,-3.0127,-2.9266,-2.8183,-2.6895,-2.6631,-2.6352,-2.6053,-2.6105,-2.5908,-2.5429,-2.507,-2.4649,-2.4247,-2.4247,-2.4762,-2.575,-2.6586,-2.762,-2.8688,-2.8471,-2.8027,-2.7396,-2.6439,-2.526,-2.4024,-2.3511,-2.288,-2.231,0.0,0.0,0.0,0.0,0.0,0.0,0.0,2.4074,2.4939,2.5412,2.5858,2.5562,2.3979,2.402,2.4346,0.0,0.0,0.0,0.0,0.0,0.0,0.0,0.0,0.0,0.0,0.0,0.0,2.613,2.8111,0.0,0.0,0.0,0.0,0.0,3.0583,3.0544,3.0436,3.073,3.0747,0.0,0.0,3.0765,3.0829,0.0,0.0,0.0,0.0,2.3612,2.2092,2.0534,1.7784,1.4686,1.2454,1.0136,0.818,0.8099,0.8746,0.9957,1.2277,1.5019,1.8007,2.1525,2.4996,2.7383,2.6861,2.7418,2.793,2.7544,2.5994,2.4296,2.2975,1.8662,1.3524,0.7888,-0.1259,-1.0219,-1.7718,-2.4392,-3.0127,-3.4604,-3.3999,-3.32,-3.3156,-3.2194,-3.0925,-2.9366,-2.9015,-2.8882,-2.8907,-2.751,-2.6656,-2.6533,-2.5853,-2.5588,-2.5731,-2.5748,-2.5264,-2.43,-2.4418,-2.4196,-2.3732,-2.3732,-2.4598,-2.6124,-2.6517,-2.7526,-2.8805,-2.8135,-2.7229,-2.6209,-2.5724,-2.4504,-2.3066,-2.3066,-2.2745,-2.231,0.0,0.0,0.0,0.0,0.0,0.0,0.0,2.3891,2.4943,2.5901,2.5812,2.5687,2.5734,2.5661,2.5392,0.0,0.0,0.0,0.0,0.0,0.0,0.0,0.0,0.0,0.0,0.0,0.0,2.6544,2.8258,0.0,0.0,0.0,0.0,0.0,0.0,3.026,2.9569,3.0381,0.0,0.0,0.0,0.0,0.0,0.0,0.0,0.0,0.0,2.4776,2.3098,2.3818,2.1388,1.8019,1.7642,1.4648,1.1045,0.9789,1.1539,1.4313,1.6083,1.9802,2.3914,2.695,2.8942,2.9884,2.8802,2.8184,2.7736,2.74,2.5922,2.443,2.3635,2.1218,1.78,1.309,0.4903,-0.3135,-0.9734,-1.9037,-2.6541,-3.0235,-3.1286,-3.1699,-3.1675,-2.9963,-2.8461,-2.7506,-2.6094,-2.5779,-2.6912,-2.6182,-2.5696,-2.5624,-2.5542,-2.5316,-2.491,-2.4912,-2.4708,-2.4282,-2.3654,-2.3543,-2.3874,-2.3874,-2.4827,-2.646,-2.6374,-2.7149,-2.8441,-2.8165,-2.7584,-2.6877,-2.7356,-2.6181,-2.4226,-2.4226,-2.3432,-2.231,0.0,0.0,0.0,0.0,0.0,0.0,2.3505,2.5213,2.6577,2.7072,2.7913,2.8098,2.7082,2.6688,2.5773,0.0,0.0,0.0,0.0,0.0,0.0,0.0,0.0,0.0,0.0,0.0,2.6778,2.7913,2.8713,0.0,0.0,0.0,0.0,0.0,0.0,2.9296,2.8468,2.907,0.0,0.0,0.0,0.0,0.0,0.0,0.0,0.0,0.0,0.0,2.3061,2.3255,2.1465,1.9041,1.8311,1.7227,1.5953,1.4746,1.5817,1.802,2.1063,2.4121,2.6994,2.9272,2.9887,2.9722,2.8772,2.8001,2.7413,2.7114,2.6222,2.533,2.4769,2.2271,1.9202,1.5888,0.913,0.1612,-0.6062,-1.4277,-2.1661,-2.7469,-2.9008,-2.9725,-3.0152,-2.854,-2.7068,-2.608,-2.5132,-2.4884,-2.5512,-2.5422,-2.5395,-2.5508,-2.5469,-2.5296,-2.4992,-2.4929,-2.4642,-2.4118,-2.3813,-2.3611,-2.3488,-2.3614,-2.4424,-2.5735,-2.5779,-2.6543,-2.7627,-2.7073,-2.6577,-2.6154,-2.5894,-2.4941,-2.3691,-2.3691,-2.3085,-2.231,0.0,0.0,0.0,0.0,0.0,2.3153,2.3846,2.5848,2.7427,2.7828,2.9108,2.9444,2.8098,2.7326,2.5896,2.3364,0.0,0.0,0.0,0.0,0.0,0.0,0.0,0.0,0.0,0.0,2.7678,2.9044,2.9434,3.0075,0.0,0.0,3.034,2.9713,0.0,0.0,0.0,0.0,0.0,0.0,0.0,0.0,0.0,0.0,0.0,0.0,0.0,0.0,0.0,0.0,0.0,1.8812,1.8148,1.8614,1.9076,1.7571,1.8806,2.1313,2.4326,2.7073,2.9459,3.121,3.0742,2.9624,2.859,2.7756,2.7104,2.6809,2.647,2.6075,2.5513,2.3269,2.07,1.814,1.2408,0.556,-0.2294,-0.9947,-1.7254,-2.4028,-2.6103,-2.7336,-2.8215,-2.7022,-2.5903,-2.5142,-2.4559,-2.4389,-2.47,-2.4943,-2.5161,-2.5349,-2.541,-2.5305,-2.5069,-2.503,-2.4704,-2.41,-2.41,-2.3894,-2.3545,-2.366,-2.4393,-2.5521,-2.5396,-2.5985,-2.6967,-2.6276,-2.5794,-2.5383,-2.4946,-2.4105,-2.3189,-2.3189,-2.2824,-2.231,0.0,0.0,0.0,0.0,0.0,0.0,0.0,2.5255,2.6886,2.7968,2.8571,2.8875,2.879,2.7549,2.5773,2.3503,0.0,0.0,0.0,0.0,0.0,0.0,0.0,0.0,0.0,0.0,2.8311,2.9589,3.0457,3.1299,3.2073,3.1607,3.1241,3.0941,0.0,0.0,0.0,0.0,0.0,0.0,0.0,0.0,0.0,0.0,0.0,0.0,0.0,0.0,0.0,0.0,0.0,0.0,0.0,1.8887,1.9325,1.6935,1.9909,2.4163,2.5077,2.8224,3.1638,3.3183,3.2069,3.0187,2.8578,2.754,2.682,2.6463,2.6601,2.6514,2.5571,2.4469,2.2772,2.0093,1.481,0.8824,0.2518,-0.5908,-1.3566,-1.9304,-2.231,-2.4448,-2.5791,-2.5261,-2.4812,-2.4805,-2.4122,-2.3941,-2.4459,-2.47,-2.4872,-2.4992,-2.5325,-2.5349,-2.4999,-2.5069,-2.4827,-2.4307,-2.4307,-2.4288,-2.429,-2.4288,-2.5032,-2.6238,-2.538,-2.5608,-2.657,-2.6167,-2.5529,-2.4855,-2.5245,-2.4487,-2.3189,-2.3189,-2.2824,-2.231,0.0,0.0,0.0,0.0,0.0,0.0,0.0,2.7623,2.8625,2.9011,2.9249,2.906,2.826,2.7043,2.5527,2.36,0.0,0.0,0.0,0.0,0.0,0.0,0.0,0.0,0.0,0.0,2.8773,2.9462,2.9687,2.995,3.016,2.8488,2.4946,1.9916,1.7887,1.312,0.0,0.0,0.0,0.0,0.0,0.0,-1.2004,0.0,0.0,0.0,0.0,0.0,0.0,0.0,0.0,0.0,0.0,0.0,0.0,1.7128,2.0481,2.471,2.672,2.9169,3.1405,3.2404,3.0615,2.8571,2.837,2.7442,2.64,2.5556,2.5509,2.512,2.3412,2.1917,2.0237,1.8075,1.4073,0.903,0.2686,-0.4921,-1.1989,-1.7916,-2.2299,-2.4942,-2.5114,-2.4678,-2.4327,-2.4182,-2.3667,-2.3526,-2.3923,-2.4137,-2.4505,-2.5051,-2.5259,-2.5362,-2.533,-2.5329,-2.5176,-2.4917,-2.4878,-2.4771,-2.4636,-2.4731,-2.5006,-2.5392,-2.5267,-2.5407,-2.5707,-2.5573,-2.5235,-2.4794,-2.4679,-2.4051,-2.3165,-2.2947,-2.2616,-2.231,0.0,0.0,0.0,0.0,0.0,0.0,0.0,2.8669,2.9355,2.9321,2.9369,2.8994,2.7906,2.6706,2.5199,2.3305,0.0,0.0,0.0,0.0,0.0,0.0,0.0,0.0,0.0,2.8416,2.9211,2.9497,2.8558,2.7594,2.6574,2.252,1.7311,1.1235,0.8266,0.3139,0.0,0.0,0.0,0.0,0.0,0.0,-1.9684,0.0,0.0,0.0,0.0,0.0,0.0,0.0,0.0,0.0,0.0,0.0,0.0,0.0,1.787,2.1934,2.6054,2.8911,3.0923,3.1612,3.0127,2.8324,2.766,2.5122,2.2591,2.1441,2.0113,1.8855,1.7824,1.7156,1.6403,1.5263,1.2173,0.7902,0.2162,-0.4218,-1.0822,-1.7611,-2.1878,-2.4309,-2.4302,-2.3972,-2.3812,-2.3996,-2.3389,-2.3165,-2.3482,-2.371,-2.4079,-2.4669,-2.5041,-2.5284,-2.5416,-2.5429,-2.5364,-2.5249,-2.524,-2.5166,-2.5037,-2.5129,-2.5187,-2.5196,-2.5316,-2.5363,0.0,-2.4928,-2.4587,-2.4261,-2.3662,-2.2977,-2.2299,-2.2113,-2.197,-2.186,0.0,0.0,0.0,0.0,0.0,0.0,0.0,0.0,2.9306,2.9078,2.9028,2.8628,2.7592,2.6399,2.4788,2.2686,0.0,0.0,0.0,0.0,0.0,0.0,0.0,0.0,0.0,2.8729,2.9386,2.9115,2.6576,2.3926,2.1099,1.4095,0.8366,0.386,0.0415,-0.4256,0.0,0.0,0.0,0.0,0.0,0.0,0.0,0.0,0.0,0.0,0.0,0.0,0.0,0.0,0.0,0.0,0.0,0.0,0.0,0.0,0.0,0.0,0.0,2.7032,2.9757,3.0276,2.9647,2.8256,2.5793,2.073,0.0,1.4856,1.1628,0.928,1.0002,1.0817,1.147,1.1621,0.9101,0.5548,0.0916,-0.4371,-1.0593,-1.8354,-2.1275,-2.2842,-2.3344,-2.3142,-2.3264,-2.4053,-2.3192,-2.2797,-2.3141,-2.3352,-2.3596,-2.395,-2.4623,-2.5089,-2.5254,-2.541,-2.5409,-2.5292,-2.5437,-2.5457,-2.5391,-2.5465,-2.5498,-2.5498,-2.5435,-2.5368,-2.5236,-2.424,-2.3673,-2.3318,-2.2342,-2.1516,-2.0891,-2.0866,-2.0934,-2.1012,0.0,0.0,0.0,0.0,0.0,0.0,0.0,0.0,0.0,0.0,2.8707,2.7733,2.659,2.5012,2.3655,0.0,0.0,0.0,0.0,0.0,0.0,0.0,0.0,0.0,0.0,2.834,2.7382,2.4325,1.9972,1.5605,1.1146,0.4069,-0.3319,-1.0783,-1.2372,-1.6085,0.0,0.0,0.0,0.0,0.0,0.0,0.0,0.0,0.0,0.0,-2.9737,-2.8702,0.0,0.0,0.0,0.0,0.0,0.0,0.0,0.0,0.767,1.1002,1.4851,0.0,2.3952,2.3663,2.1829,1.9678,0.0,1.4779,1.1536,0.9805,0.8093,0.6804,0.6435,0.6428,0.6476,0.6403,0.424,0.1284,-0.2278,-0.9777,-1.6133,-1.9634,-2.1912,-2.2926,-2.2173,-2.2317,-2.2615,-2.301,-2.2302,-2.2158,-2.2797,-2.2863,-2.3124,-2.3617,-2.3784,-2.4217,-2.4907,-2.5103,-2.5201,-2.5229,-2.5369,-2.5427,-2.5404,-2.5418,-2.5414,-2.5392,-2.4767,-2.4494,-2.4406,-2.3519,-2.2921,-2.2518,-2.1798,-2.1279,-2.0827,-2.039,-2.0069,-1.988,0.0,0.0,0.0,0.0,0.0,0.0,0.0,0.0,0.0,0.0,0.0,0.0,0.0,0.0,0.0,0.0,0.0,0.0,0.0,0.0,0.0,0.0,0.0,0.0,2.7195,2.6571,2.3966,1.9309,1.3463,0.7363,0.0905,-0.6801,-1.3785,-1.9906,-2.1704,0.0,0.0,0.0,0.0,0.0,-2.151,0.0,0.0,0.0,0.0,0.0,-3.0011,-2.9629,0.0,-2.5869,-2.254,-1.8773,0.0,0.0,0.0,0.0,0.1743,0.5238,0.6798,1.2889,1.8517,1.7288,1.5486,1.3322,1.0609,0.6587,0.2951,0.1506,-0.0506,-0.184,-0.1346,-0.0563,0.0196,0.0776,-0.0529,-0.2907,-0.6527,-1.217,-1.6806,-1.9241,-2.0867,-2.167,-2.134,-2.166,-2.1833,-2.1711,-2.1472,-2.1505,-2.1898,-2.1927,-2.2211,-2.2856,-2.2856,-2.3343,-2.4332,-2.4632,-2.4786,-2.4778,-2.5054,-2.5156,-2.5124,-2.5242,-2.5107,-2.4743,-2.4392,-2.4021,-2.3589,-2.271,-2.2034,-2.1483,-2.0771,-2.0155,-1.9577,-1.8924,-1.87,-1.8638,0.0,0.0,0.0,0.0,0.0,0.0,0.0,0.0,0.0,0.0,0.0,0.0,0.0,0.0,0.0,0.0,0.0,0.0,0.0,0.0,0.0,0.0,0.0,2.6407,2.6436,2.3728,1.9502,1.3761,0.6529,-0.1052,-0.8974,-1.7019,-2.2381,-2.5343,-2.7859,0.0,0.0,0.0,0.0,0.0,-2.2174,0.0,0.0,0.0,0.0,0.0,0.0,0.0,0.0,-2.6292,-2.4135,-2.1498,-1.8679,0.0,0.0,0.0,0.0,0.0,-0.1327,0.4498,1.0479,0.9858,0.8718,0.6592,0.2342,-0.2874,-0.7003,-0.77,-1.0278,-1.1728,-0.9661,-0.7838,-0.6213,-0.4813,-0.5372,-0.7386,-1.1272,-1.3483,-1.5698,-1.827,-1.931,-1.9971,-2.0302,-2.0769,-2.0809,-2.028,-2.0593,-2.0813,-2.0878,-2.0959,-2.129,-2.1927,-2.1927,-2.2392,-2.3371,-2.3964,-2.4238,-2.4168,-2.4607,-2.479,-2.4727,-2.5042,-2.4749,-2.3994,-2.4073,-2.3613,-2.273,-2.1835,-2.1086,-2.0442,-1.9499,-1.8696,-1.795,-1.7153,-1.7078,-1.7208,0.0,0.0,0.0,0.0,0.0,0.0,0.0,0.0,0.0,0.0,0.0,0.0,0.0,0.0,0.0,0.0,0.0,0.0,0.0,0.0,0.0,0.0,2.3642,2.512,2.3418,1.9843,1.4255,0.6649,-0.232,-1.0221,-1.7069,-2.3333,-2.677,-2.7701,-2.8903,-2.8406,-2.6725,0.0,0.0,0.0,-2.4537,0.0,0.0,0.0,0.0,0.0,0.0,0.0,0.0,-2.4599,-2.3696,-2.2921,-2.0771,0.0,0.0,0.0,0.0,0.0,-0.9384,-0.9023,-0.7505,-0.1669,-0.2395,-0.5564,-0.9212,-1.2533,-1.4652,-1.4152,-1.4769,-1.4683,-1.229,-1.1409,-1.0742,-0.981,-1.075,-1.2713,-1.5919,-1.6581,-1.7154,-1.8202,-1.9143,-1.917,-1.7834,-1.8776,-1.9339,-1.9093,-1.9528,-1.9943,-2.0322,-2.0749,-2.1055,-2.1165,-2.1165,-2.1258,-2.142,-2.29,-2.3644,-2.3622,-2.4148,-2.4398,-2.4382,-2.4878,-2.4676,-2.3882,-2.3478,-2.2767,-2.1812,-2.0845,-2.0134,-1.9563,-1.8411,-1.7669,-1.7153,-1.6129,-1.5619,-1.5299,0.0,0.0,0.0,0.0,0.0,0.0,0.0,0.0,0.0,0.0,0.0,0.0,0.0,0.0,0.0,0.0,0.0,0.0,0.0,0.0,0.0,1.4705,1.6067,1.7281,1.8206,1.341,0.7161,-0.041,-0.8362,-1.5192,-2.103,-2.5523,-2.776,-2.794,-2.7971,-2.7572,-2.6924,-2.7235,0.0,0.0,0.0,0.0,0.0,0.0,0.0,0.0,0.0,0.0,0.0,0.0,-2.2838,-2.1883,-2.0884,0.0,0.0,0.0,0.0,0.0,-1.382,-1.4562,-1.505,-1.4038,-1.4728,-1.6345,-1.8917,-2.0472,-2.094,-1.9523,-1.8214,-1.6752,-1.5018,-1.3593,-1.271,-1.265,-1.3032,-1.3922,-1.5714,-1.5619,-1.5792,-1.6845,-1.7148,-1.7085,-1.6656,-1.7206,-1.757,-1.7491,-1.7717,-1.8173,-1.9001,-1.8677,-1.8885,-1.9773,-1.9146,-1.9239,-2.0122,-2.0573,-2.1344,-2.2427,-2.3074,-2.3379,-2.3382,-2.3558,-2.3286,-2.2622,-2.2095,-2.1498,-2.0837,-2.0127,-1.9375,-1.8613,-1.7797,-1.6961,-1.6133,-1.5401,-1.443,-1.3405,0.0,0.0,0.0,0.0,0.0,0.0,0.0,0.0,0.0,0.0,0.0,0.0,0.0,0.0,0.0,0.0,0.0,0.0,0.0,0.0,1.1483,1.0438,0.8696,0.895,1.1685,0.6344,0.0158,-0.6747,-1.2904,-1.8553,-2.3573,-2.6356,-2.7618,-2.7606,-2.7178,-2.7105,-2.7328,-2.7809,-2.8044,0.0,0.0,0.0,0.0,0.0,0.0,0.0,0.0,0.0,0.0,0.0,0.0,0.0,0.0,0.0,0.0,-1.9053,-1.7623,-1.6378,-1.7682,-1.8614,-2.0064,-2.3577,-2.4008,-2.4152,-2.6409,-2.6536,-2.5816,-2.437,-2.1859,-1.9427,-1.7834,-1.5618,-1.4139,-1.4458,-1.432,-1.4458,-1.5205,-1.451,-1.4326,-1.5431,-1.511,-1.4954,-1.5473,-1.5508,-1.5544,-1.5772,-1.5837,-1.6228,-1.6963,-1.6397,-1.6555,-1.7673,-1.6808,-1.681,-1.7941,-1.7477,-1.86,-2.1207,-2.1578,-2.1837,-2.1919,-2.1581,-2.1081,-2.0499,-2.0237,-1.9852,-1.9383,-1.9394,-1.8864,-1.7982,-1.7558,-1.6396,-1.4893,-1.4288,-1.273,-1.087,0.0,0.0,0.0,0.0,0.0,0.0,0.0,0.0,0.0,0.0,0.0,0.0,0.0,0.0,0.0,0.0,0.0,0.0,0.0,0.0,0.9548,0.6957,0.4538,0.3462,0.3808,-0.0669,-0.581,-1.1518,-1.6233,-2.0974,-2.5631,-2.664,-2.7199,-2.7348,-2.7679,-2.8063,-2.8478,-2.8579,-2.8951,-2.9414,0.0,0.0,0.0,0.0,0.0,0.0,0.0,0.0,0.0,0.0,0.0,0.0,0.0,0.0,-2.1069,-2.0856,-2.0942,-2.1366,-2.2585,-2.4204,-2.5814,-2.7009,-2.6583,-2.684,-3.0567,-2.995,-2.8597,-2.8783,-2.6566,-2.374,-2.0922,-1.7912,-1.5818,-1.544,-1.5413,-1.5808,-1.7031,-1.5424,-1.4227,-1.4455,-1.394,-1.3539,-1.3599,-1.3194,-1.3229,-1.3835,-1.4359,-1.4418,-1.3876,-1.4829,-1.5112,-1.457,-1.4494,-1.4205,-1.363,-1.3585,-1.5853,-2.0291,-1.9599,-1.9528,-1.9986,-1.8956,-1.8047,-1.7255,-1.7911,-1.7734,-1.708,-1.8537,-1.872,-1.8068,-1.778,-1.5906,-1.326,-1.2346,-0.9876,-0.7004,0.0,0.0,0.0,0.0,0.0,0.0,0.0,0.0,0.0,0.0,0.0,0.0,0.0,0.0,0.0,0.0,0.0,0.0,0.0,0.0,0.6492,0.3385,-0.025,-0.3619,-0.6651,-0.7817,-1.0028,-1.3381,-1.7265,-2.1004,-2.4528,-2.5761,-2.6898,-2.7867,-2.8178,-2.8361,-2.8447,-2.9072,-2.9121,-2.8829,-2.9105,0.0,0.0,0.0,0.0,0.0,0.0,0.0,0.0,0.0,-2.0091,-1.9701,-1.9931,-1.9841,-1.9822,-2.0975,-2.0783,-2.0315,-2.0991,-2.3581,-2.5945,-2.5383,-2.6619,-2.8507,-3.0564,-3.086,-3.0428,-2.9337,-2.8365,-2.603,-2.0508,-1.8723,-1.7266,-1.4786,-1.523,-1.5695,-1.5112,-1.4215,-1.3433,-1.3024,-1.251,-1.2226,-1.2226,-1.1802,-1.18,-1.2435,-1.2319,-1.2253,-1.233,-1.2014,-1.1833,-1.1912,-1.12,-1.0816,-1.0837,-1.0439,-1.1095,-1.2759,-1.4235,-1.4866,-1.4689,-1.3973,-1.3376,-1.2849,-1.2688,-1.2562,-1.2553,-1.2874,-1.1384,-0.8593,-0.5566,-0.3517,-0.2314,-0.2802,-0.1867,-0.0124,0.0,0.0,0.0,0.0,0.0,0.0,0.0,0.0,0.0,0.0,0.0,0.0,0.0,0.0,0.0,0.0,0.0,0.0,0.0,0.6046,0.347,-0.0123,-0.3952,-0.8085,-1.2609,-1.3072,-1.4033,-1.5614,-1.8407,-2.1133,-2.3803,-2.5396,-2.689,-2.8201,-2.8323,-2.8351,-2.8342,-2.9024,-2.9033,-2.8683,-2.9421,-2.9436,0.0,0.0,0.0,0.0,0.0,0.0,0.0,0.0,-1.8235,-1.7891,-1.8394,-1.8261,-1.8176,-1.9619,-1.9585,-1.915,-1.9531,-2.2219,-2.4792,-2.4153,-2.6279,-2.8873,-3.0172,-3.0914,-3.1286,-3.1149,-2.9747,-2.6808,-2.1064,-1.9137,-1.7412,-1.4517,-1.4563,-1.4558,-1.3586,-1.2875,-1.2204,-1.1688,-1.1226,-1.087,-1.0653,-1.0314,-1.0238,-1.0378,-1.0257,-1.0089,-1.0023,-0.9197,-0.8765,-0.8917,-0.7912,-0.7251,-0.7149,-0.6781,-0.6292,-0.5709,-0.7674,-0.9106,-0.9929,-0.888,-0.8322,-0.8052,-0.7363,-0.7248,-0.752,-0.7409,-0.4809,-0.0286,0.5583,0.8054,0.8323,0.8207,0.8421,0.9121,0.0,0.0,0.0,0.0,0.0,0.0,0.0,0.0,0.0,0.0,0.0,0.0,0.0,0.0,0.0,0.0,0.0,0.0,0.5259,0.352,0.0679,-0.3526,-0.629,-0.9389,-1.2872,-1.6009,-1.7958,-1.8685,-1.9965,-2.1749,-2.3942,-2.5796,-2.7239,-2.8191,-2.7998,-2.8053,-2.8287,-2.8371,-2.8745,-2.9349,-3.0054,-3.0088,-2.9632,0.0,0.0,0.0,0.0,0.0,0.0,0.0,-1.6497,-1.5568,-1.6138,-1.6283,-1.6342,-1.6766,-1.7697,-1.8679,-1.9165,-2.0917,-2.2915,-2.4096,-2.5876,-2.7856,-2.9943,-3.0266,-3.1169,-3.4909,-3.0997,-2.6048,-2.323,-1.9221,-1.5965,-1.4854,-1.3394,-1.2611,-1.3092,-1.1722,-1.0631,-1.0472,-1.0075,-0.9488,-0.8751,-0.8745,-0.8461,-0.7659,-0.8246,-0.8053,-0.6637,-0.6518,-0.6172,-0.5496,-0.4776,-0.3673,-0.2194,-0.2285,-0.1622,-0.0157,-0.0146,-0.2336,-0.6249,-0.4042,-0.302,-0.3002,-0.24,-0.2139,-0.2179,-0.2814,-0.009,0.5305,1.3643,1.6905,1.7207,1.9667,2.0554,2.0571,0.0,0.0,0.0,0.0,0.0,0.0,0.0,0.0,0.0,0.0,0.0,0.0,0.0,0.0,0.0,0.0,0.0,0.0,0.0881,-0.0453,-0.2434,-0.5067,-0.816,-1.1261,-1.4372,-1.7168,-1.8434,-1.812,-1.9361,-2.0976,-2.2975,-2.5225,-2.7006,-2.8351,-2.8679,-2.8195,-2.7213,-2.7952,-2.8041,-2.7647,-2.7149,-2.8066,-2.9218,0.0,0.0,0.0,0.0,0.0,0.0,0.0,0.0,0.0,-1.5389,-1.4755,-1.408,-1.6443,-1.6708,-1.6507,-1.7556,-2.0767,-2.3686,-2.3227,-2.5932,-2.9122,-3.0676,-3.1056,-3.1631,-3.3556,-3.1273,-2.7928,-2.4591,-2.1911,-1.8781,-1.4453,-1.3441,-1.2528,-1.0561,-0.9646,-0.9048,-0.8581,-0.7935,-0.767,-0.7979,-0.7526,-0.7165,-0.6913,-0.7095,-0.6597,-0.5155,-0.5031,-0.4273,-0.2601,-0.2309,-0.1367,0.0366,0.0357,0.124,0.3051,0.3028,0.1666,-0.0821,0.0395,0.1337,0.2152,0.2697,0.2942,0.3125,0.5721,0.7831,0.9881,1.4932,1.7238,1.776,1.7929,1.7992,1.8045,0.0,0.0,0.0,0.0,0.0,0.0,0.0,0.0,0.0,0.0,0.0,0.0,0.0,0.0,0.0,0.0,0.0,0.0,0.0,0.0,-0.6892,-0.8673,-1.1279,-1.3754,-1.604,-1.7661,-1.8259,-1.7918,-1.9157,-2.0797,-2.2762,-2.4761,-2.6478,-2.7904,-2.8182,-2.7588,-2.6474,-2.73,-2.6972,-2.5892,-2.562,-2.653,-2.7526,0.0,0.0,0.0,0.0,0.0,0.0,0.0,0.0,0.0,-1.3772,-1.3,-1.2243,-1.4395,-1.536,-1.594,-1.7183,-2.0908,-2.4435,-2.4378,-2.7081,-2.9999,-3.0914,-3.1842,-3.2692,-3.3245,-3.1871,-2.9575,-2.6409,-2.3435,-1.994,-1.5212,-1.3239,-1.1454,-0.9196,-0.8356,-0.7801,-0.7328,-0.6625,-0.6236,-0.6372,-0.5964,-0.55,-0.4892,-0.5108,-0.4664,-0.318,-0.28,-0.1951,-0.0475,-0.0157,0.0777,0.2387,0.2317,0.3167,0.4835,0.4802,0.425,0.3366,0.3836,0.4521,0.5429,0.64,0.7187,0.792,0.9877,1.1157,1.2059,1.3839,1.5056,1.5854,1.5855,1.5995,1.6357,0.0,0.0,0.0,0.0,0.0,0.0,0.0,0.0,0.0,0.0,0.0,0.0,0.0,0.0,0.0,0.0,0.0,0.0,0.0,0.0,-1.1809,-1.333,-1.4864,-1.6248,-1.7478,-1.7553,-1.7653,-1.7835,-1.926,-2.0993,-2.2957,-2.4441,-2.5702,-2.6757,-2.6621,-2.6202,-2.5624,-2.6022,-2.5385,-2.4161,-2.484,-2.5206,-2.508,-2.2067,0.0,0.0,0.0,0.0,0.0,0.0,0.0,0.0,-1.1913,-1.1416,-1.0864,-1.1715,-1.3979,-1.6467,-1.7734,-2.1348,-2.5128,-2.6636,-2.8752,-3.0499,-3.0677,-3.2319,-3.3728,-3.343,-3.2474,-3.0909,-2.8294,-2.4154,-2.0049,-1.6721,-1.2956,-0.9953,-0.8667,-0.7611,-0.6839,-0.6433,-0.5727,-0.5027,-0.4346,-0.4249,-0.3627,-0.2325,-0.2743,-0.2462,-0.105,-0.0331,0.0371,0.1067,0.1782,0.2722,0.3906,0.3816,0.4395,0.5657,0.5536,0.5782,0.6349,0.6307,0.6634,0.7321,0.8852,1.0302,1.1524,1.0626,1.1132,1.2295,1.1354,1.1634,1.2733,1.3778,1.4454,1.5263,0.0,0.0,0.0,0.0,0.0,0.0,0.0,0.0,0.0,0.0,0.0,0.0,0.0,0.0,0.0,0.0,0.0,0.0,0.0,0.0,-1.3651,-1.4663,-1.5735,-1.6496,-1.6983,-1.6973,-1.7056,-1.728,-1.9421,-2.116,-2.2501,-2.4377,-2.4942,-2.4325,-2.4112,-2.3491,-2.2588,-2.1911,-2.1985,-2.2533,-2.2186,-2.2816,-2.3509,-1.9464,-1.8912,0.0,0.0,0.0,0.0,0.0,0.0,0.0,-1.2686,-1.1846,-1.0458,-1.2735,-1.4356,-1.5921,-1.8178,-2.1916,-2.5464,-2.6695,-2.8585,-3.0113,-3.0168,-3.0922,-3.1584,-3.1631,-3.1727,-3.0959,-2.83,-2.5037,-2.1329,-1.683,-1.3376,-1.0408,-0.8089,-0.6894,-0.5908,-0.5001,-0.4249,-0.3683,-0.353,-0.3021,-0.2569,-0.2233,-0.1833,-0.1164,-0.0278,0.0369,0.1265,0.2432,0.2929,0.3747,0.4963,0.5427,0.5983,0.668,0.6666,0.6937,0.753,0.7049,0.7612,0.8981,0.935,0.9724,1.0116,1.0637,1.1176,1.17,1.1611,1.2319,1.3334,1.299,1.3206,1.3964,0.0,0.0,0.0,0.0,0.0,0.0,0.0,0.0,0.0,0.0,0.0,0.0,0.0,0.0,0.0,0.0,0.0,0.0,0.0,0.0,0.0,-1.4999,-1.6284,-1.6759,-1.6125,-1.6828,-1.7199,-1.7324,-1.9515,-2.106,-2.2055,-2.336,-2.3554,-2.28,-2.1716,-2.0939,-2.046,-2.0314,-2.0133,-2.0088,-2.1577,-2.1913,-2.1184,-1.8464,-1.8232,-1.8854,-1.5096,0.0,0.0,0.0,0.0,0.0,0.0,0.0,-1.1319,-1.2098,-1.3799,-1.5799,-1.7938,-2.1691,-2.545,-2.7189,-2.8192,-2.8775,-2.8775,-2.8987,-2.9475,-3.0391,-3.1409,-3.1289,-2.8444,-2.5598,-2.1917,-1.6702,-1.2987,-0.9717,-0.6659,-0.5369,-0.4363,-0.3469,-0.2683,-0.2237,-0.2244,-0.1286,-0.0614,-0.0613,0.0056,0.0942,0.2036,0.2393,0.3118,0.4349,0.4607,0.5046,0.5717,0.6039,0.6477,0.6979,0.6979,0.7154,0.7489,0.7716,0.8285,0.9119,0.9399,0.9781,1.0278,1.0271,1.0809,1.1584,1.1205,1.1866,1.3048,1.2649,1.3032,1.4053,0.0,0.0,0.0,0.0,0.0,0.0,0.0,0.0,0.0,0.0,0.0,0.0,0.0,0.0,0.0,0.0,0.0,0.0,0.0,0.0,0.0,-1.4597,-1.615,-1.6419,-1.5139,-1.6363,-1.728,-1.7775,-1.9559,-2.0765,-2.1526,-2.2075,-2.1913,-2.1096,-1.9098,-1.8275,-1.8323,-1.9074,-1.8749,-1.81,-2.2039,-2.2014,-1.9546,-1.9023,-1.8755,-1.8369,-1.6017,-1.4616,-1.4039,-1.4846,0.0,0.0,0.0,0.0,-1.2723,-1.1769,-1.3387,-1.5858,-1.7447,-2.1102,-2.5048,-2.7254,-2.7334,-2.6878,-2.6878,-2.6891,-2.7364,-2.903,-3.0862,-3.1306,-2.8607,-2.5773,-2.208,-1.6559,-1.2336,-0.8681,-0.5389,-0.3868,-0.2843,-0.212,-0.1452,-0.1007,-0.0728,0.0391,0.1169,0.128,0.2006,0.2994,0.4328,0.4476,0.4988,0.5971,0.615,0.6233,0.619,0.6477,0.681,0.7154,0.7349,0.7321,0.7197,0.8317,0.8797,0.8716,0.909,0.9867,1.0791,0.9983,1.0442,1.1578,1.0768,1.1324,1.2508,1.2649,1.3411,1.4651,0.0,0.0,0.0,0.0,0.0,0.0,0.0,0.0,0.0,0.0,0.0,0.0,0.0,0.0,0.0,0.0,0.0,0.0,-1.6424,0.0,0.0,-1.3241,-1.4144,-1.4551,-1.4373,-1.4551,-1.5934,-1.849,-1.9253,-2.0012,-2.077,-2.1415,-2.0335,-1.7751,-1.5676,-1.4877,-1.5126,-1.5482,-1.6711,-1.8815,-2.2887,-2.3021,-2.0904,-2.2139,-2.0941,-1.8464,-1.736,-1.5857,-1.4673,-1.6292,-1.5771,0.0,0.0,0.0,-1.4231,-1.4106,-1.4773,-1.5753,-1.6986,-2.0433,-2.3978,-2.5413,-2.5312,-2.4875,-2.4875,-2.4948,-2.5335,-2.6697,-2.8918,-3.0068,-2.8395,-2.5507,-2.1745,-1.6587,-1.1933,-0.8069,-0.543,-0.3522,-0.2063,-0.134,-0.1174,-0.0614,0.0671,0.1006,0.134,0.2007,0.2788,0.3558,0.4365,0.49,0.5455,0.5998,0.6782,0.6893,0.6227,0.7634,0.8185,0.7787,0.8707,0.87,0.7904,0.8923,0.9159,0.8699,0.8345,0.9021,1.0324,1.0288,1.0563,1.1053,1.145,1.1945,1.2591,1.3213,1.3859,1.4713,0.0,0.0,0.0,0.0,0.0,0.0,0.0,0.0,0.0,0.0,0.0,0.0,0.0,0.0,0.0,-1.5209,-1.5511,-1.5788,-1.5964,-1.6385,-1.5665,-1.3518,-1.4308,-1.465,-1.4204,-1.4983,-1.6469,-1.8584,-2.0052,-2.0713,-2.0716,-2.0499,-1.9095,-1.6554,-1.3314,-1.2538,-1.3681,-1.4523,-1.6264,-1.8819,-2.3244,-2.4082,-2.2673,-2.2564,-2.1746,-2.0414,-1.8874,-1.7816,-1.7251,-1.8021,-1.7686,-1.7055,-1.7141,0.0,0.0,0.0,-1.4226,-1.4882,-1.6658,-1.9291,-2.1825,-2.2933,-2.3044,-2.2814,-2.2814,-2.2524,-2.2616,-2.394,-2.5412,-2.6657,-2.7095,-2.4786,-2.1067,-1.5838,-1.1511,-0.7453,-0.3505,-0.1802,-0.0569,0.0614,0.0724,0.1004,0.1673,0.2063,0.2454,0.2788,0.3566,0.4505,0.5588,0.59,0.6592,0.7843,0.803,0.8089,0.7946,0.8437,0.8602,0.8357,0.8837,0.8683,0.8024,0.8998,0.9062,0.8448,0.8661,0.9202,0.9901,1.0465,1.0955,1.1422,1.2212,1.2834,1.3374,1.411,1.4811,1.5634,0.0,0.0,0.0,0.0,0.0,0.0,0.0,0.0,0.0,0.0,0.0,0.0,0.0,0.0,0.0,0.0,-1.6648,-1.6535,-1.6244,-1.6974,-1.6581,-1.4538,-1.5014,-1.4965,-1.4204,-1.5486,-1.7004,-1.8823,-2.0588,-2.1205,-2.0743,-1.9661,-1.7866,-1.5288,-1.1916,-1.11,-1.2368,-1.4193,-1.6248,-1.8715,-2.3659,-2.5187,-2.438,-2.3537,-2.2989,-2.2426,-2.0666,-1.9749,-1.9398,-1.9513,-1.941,-1.9087,-1.8138,-1.786,0.0,0.0,0.0,-1.3788,-1.5502,-1.7069,-1.8576,-1.9958,-2.014,-2.0053,-2.0378,-1.974,-1.9474,-2.0797,-2.1655,-2.2725,-2.4352,-2.3006,-1.988,-1.4603,-1.0507,-0.6338,-0.1656,-0.0117,0.0973,0.2069,0.2174,0.2286,0.2454,0.2954,0.3453,0.3837,0.4395,0.5386,0.6804,0.6858,0.7641,0.9343,0.9184,0.9166,0.9298,0.9022,0.8958,0.9119,0.9231,0.9059,0.8659,0.96,0.9561,0.8814,0.9242,0.962,0.9961,1.0862,1.1587,1.2269,1.3305,1.3963,1.4401,1.5154,1.5857,1.6584,0.0,0.0,0.0,0.0,0.0,0.0,0.0,0.0,0.0,0.0,0.0,0.0,-1.8156,-1.8109,-1.8349,-1.8977,-1.7937,-1.7437,-1.7847,-1.8204,-1.7785,-1.6333,-1.5669,0.0,-1.4195,-1.4974,-1.6684,-1.9433,-2.0239,-2.0624,-2.0562,-1.9066,-1.6449,-1.294,-1.1894,-1.1047,-1.0632,-1.3779,-1.6293,-1.8702,-2.4358,-2.6295,-2.589,-2.6569,-2.5613,-2.3792,-2.287,-2.1377,-1.994,-2.0519,-2.0326,-1.9834,-1.961,-1.9655,-1.9395,0.0,0.0,0.0,-1.2818,-1.3209,-1.4125,-1.6479,-1.649,-1.6187,-1.7164,-1.644,-1.584,-1.7113,-1.8036,-1.8861,-1.9551,-1.956,-1.7909,-1.3111,-0.8531,-0.4343,-0.0731,0.1104,0.2124,0.2176,0.2174,0.2454,0.3176,0.3287,0.3892,0.5265,0.5433,0.6086,0.7557,0.7616,0.817,0.9343,0.989,0.9875,0.9298,0.9392,0.9716,1.0205,1.0677,1.0666,1.0322,1.1249,1.119,1.0339,0.9755,0.9983,1.081,1.1748,1.2657,1.3536,1.4877,1.5371,1.55,1.6318,1.679,1.72,0.0,0.0,0.0,0.0,0.0,0.0,0.0,0.0,0.0,0.0,0.0,0.0,0.0,-1.936,-1.9627,-2.0232,-1.9912,-1.9619,-1.9532,-1.976,-1.9541,-1.8658,-1.7654,-1.6826,-1.6346,-1.657,-1.7616,-1.9484,-2.0722,-2.1513,-2.1918,-1.9962,-1.7607,-1.4821,-1.1526,-0.9698,-0.9259,-1.1104,-1.4764,-1.9454,-2.0507,-2.3071,-2.5963,-2.3069,-2.1969,-2.1943,-2.1491,-2.0609,-1.9808,-2.099,-2.0661,-1.979,-1.9777,-1.9306,-1.8294,-1.5712,-1.3554,-1.1895,-1.1333,-1.1659,-1.2308,-1.2958,-1.3589,-1.409,-1.4222,-1.3856,-1.3687,-1.4314,-1.5069,-1.5555,-1.5196,-1.6255,-1.5914,-1.2133,-0.7502,-0.3303,0.0061,0.1984,0.3217,0.3641,0.368,0.379,0.407,0.4446,0.4937,0.5487,0.5928,0.6637,0.767,0.8131,0.8958,1.024,1.0415,1.0312,0.9938,0.9988,1.0264,1.0764,1.0905,1.0961,1.0873,1.1836,1.1721,1.0857,1.1478,1.1604,1.1452,1.2324,1.3212,1.407,1.5136,1.5796,1.6234,1.7052,1.7513,1.7847,0.0,0.0,0.0,0.0,0.0,0.0,0.0,0.0,0.0,0.0,0.0,0.0,0.0,0.0,-2.084,-2.1734,-2.2096,-2.2052,-2.1546,-2.1389,-2.113,-2.0694,-1.9594,-1.8599,-1.7757,-1.7829,-1.8454,-1.9597,-2.0921,-2.1945,-2.2601,-2.0934,-1.8505,-1.5366,-1.0988,-0.8397,-0.7254,-0.747,-0.9563,-1.2714,-1.2109,-1.4236,-1.7369,-1.361,-1.3263,-1.4532,-1.2687,-1.3719,-1.5989,-1.624,-1.7726,-1.9344,-1.8691,-1.7772,-1.6564,-1.4482,-1.2696,-1.1182,-1.0436,-1.006,-0.9991,-1.0444,-1.0825,-1.1162,-1.1298,-1.1114,-1.101,-1.116,-1.1852,-1.2011,-1.0492,-1.0948,-1.1017,-0.93,-0.5428,-0.1591,0.1431,0.3145,0.4174,0.4582,0.4616,0.4596,0.4601,0.5198,0.5669,0.5878,0.6529,0.7289,0.8049,0.8705,0.9621,1.0888,1.0947,1.0785,1.0498,1.0352,1.0467,1.0764,1.0905,1.112,1.1363,1.213,1.2321,1.2008,1.2914,1.2856,1.2212,1.3208,1.4084,1.4952,1.5829,1.6485,1.7019,1.7653,1.8035,1.8342,0.0,0.0,0.0,0.0,0.0,0.0,0.0,0.0,0.0,-2.41,0.0,0.0,0.0,0.0,0.0,-2.3469,-2.436,-2.4542,-2.3761,-2.305,-2.2547,-2.2316,-2.1325,-2.0035,-1.8387,-1.8549,-1.9004,-1.9685,-2.0823,-2.1757,-2.2443,-2.1721,-1.8823,-1.416,-1.0315,-0.7121,-0.4369,-0.2941,-0.0826,0.1548,0.0419,-0.016,-0.0214,0.1149,0.0023,-0.1646,0.3195,-0.0884,-0.8275,-0.6308,-1.1385,-1.8173,-1.6367,-1.5185,-1.4415,-1.4201,-1.2487,-1.0605,0.0,0.0,0.0,-0.8867,-0.8169,-0.7348,-0.8357,-0.8083,-0.7603,-0.7613,-0.8395,-0.8265,-0.5546,-0.3715,-0.3011,-0.443,-0.2082,0.0885,0.3453,0.4445,0.4864,0.486,0.4857,0.48,0.4653,0.532,0.598,0.6505,0.7241,0.8049,0.8752,0.9458,1.0256,1.1181,1.1445,1.1348,1.0857,1.0488,1.0283,1.0273,1.0753,1.1282,1.1811,1.2282,1.301,1.3868,1.3901,1.3589,1.3124,1.4335,1.5377,1.63,1.7019,1.7486,1.7816,1.8103,1.8391,1.8679,0.0,0.0,0.0,0.0,0.0,0.0,0.0,0.0,-2.2797,0.0,0.0,0.0,-1.9058,-2.1451,-2.3282,-2.3784,-2.5094,-2.5429,-2.4331,-2.4045,-2.4186,-2.4853,-2.3544,-2.2505,-2.1892,-2.1171,-2.0364,-1.9554,-2.0961,-2.1691,-2.1842,-2.1127,-1.854,-1.4152,-0.7942,-0.1929,0.3492,0.3256,0.2965,0.2984,0.5493,0.5017,0.3022,0.4854,0.5501,0.5478,0.5909,0.3806,0.0347,-0.2817,-0.632,-0.9838,-1.2654,-1.3266,-1.292,-1.2499,-1.1953,-1.1081,-0.9452,0.0,0.0,0.0,0.0,0.0,-0.5927,-0.575,-0.5666,-0.591,-0.6197,-0.5564,-0.2845,-0.057,0.1441,0.3044,0.3521,0.3727,0.3781,0.3945,0.4085,0.3941,0.3378,0.2938,0.2911,0.4019,0.4866,0.4993,0.6653,0.7978,0.8698,1.034,1.1314,1.1481,1.1567,1.1074,0.9892,0.9771,0.9707,0.967,1.0186,1.0864,1.1754,1.227,1.2826,1.3425,1.4052,1.4247,1.4132,1.5008,1.5887,1.668,1.7134,1.7492,1.7793,1.8313,1.8659,1.8948,0.0,0.0,0.0,0.0,0.0,0.0,-1.5309,-1.6255,-1.6992,0.0,0.0,0.0,-1.8708,-2.1506,-2.3725,-2.4771,-2.5761,-2.6023,-2.522,-2.4789,-2.4777,-2.5245,-2.4824,-2.4175,-2.3398,-2.2393,-2.0896,-1.8821,-1.976,0.0,0.0,0.0,-1.735,-1.3122,-0.5802,0.1525,0.8602,1.1256,1.2285,1.2386,1.5819,1.607,1.4556,1.6446,1.6607,1.5942,1.671,1.2988,0.7276,0.4402,-0.0932,-0.6983,-1.088,-1.1494,-1.0902,-1.1115,-1.1032,-1.0629,-0.9467,-0.8744,-0.79,-0.6357,0.0,0.0,-0.3901,-0.3287,-0.2855,-0.3028,-0.3077,-0.1962,0.1729,0.3843,0.6002,0.907,0.8883,0.7583,0.5233,0.4355,0.3697,0.3255,0.2741,0.241,0.232,0.3371,0.4008,0.3961,0.5686,0.7356,0.8633,1.0434,1.1389,1.1422,1.1448,1.096,0.9974,0.9762,0.955,0.9278,0.992,1.0636,1.1391,1.1959,1.2673,1.3514,1.4214,1.4662,1.5002,1.5635,1.6251,1.6815,1.7018,1.7351,1.781,1.8252,1.8604,1.8896,0.0,0.0,0.0,-0.4538,-0.5006,-0.5829,-0.6252,-0.7781,-0.9112,0.0,-1.1618,-1.4414,-1.8507,-2.1212,-2.3664,-2.5914,-2.6351,-2.6373,-2.612,-2.5302,-2.4797,-2.4723,-2.5523,-2.5356,-2.4061,-2.3148,0.0,0.0,0.0,0.0,0.0,0.0,0.0,0.0,-0.256,0.4939,1.2626,1.9806,2.372,2.527,2.7678,2.8741,2.9093,3.049,2.9212,2.7078,3.0332,2.3631,1.3072,1.2134,0.3455,-0.7421,-0.9921,-0.9674,-0.8712,-0.9785,-0.9948,-0.9762,-0.9718,-0.8771,-0.761,-0.6804,-0.4899,0.0,-0.2266,-0.087,0.0242,0.0363,0.038,0.1818,0.6639,0.8468,1.0314,1.3553,1.3584,1.1668,0.7227,0.5101,0.3611,0.2678,0.2477,0.2323,0.2203,0.2823,0.3184,0.3071,0.4589,0.6411,0.8469,0.9967,1.0896,1.1057,1.1143,1.0955,1.0526,1.0039,0.9589,0.9117,0.991,1.0504,1.0908,1.1594,1.2614,1.3934,1.4342,1.4895,1.5591,1.6006,1.6394,1.6738,1.6789,1.7167,1.7726,1.804,1.8351,1.866,0.0,0.0,0.0,-0.1615,-0.1072,-0.1297,-0.2047,-0.344,-0.531,-0.7864,-1.1023,-1.4249,-1.7476,-2.0499,-2.3227,-2.5443,-2.6483,-2.6755,-2.6063,-2.5415,-2.5522,-2.6601,-2.6425,-2.6658,-2.743,-2.5818,-2.2521,0.0,0.0,0.0,0.0,0.0,0.0,0.0,0.7363,1.3661,2.0199,2.4624,2.7327,2.8732,2.9135,2.9776,3.0446,3.0104,3.0057,3.0206,3.0759,2.6332,1.8768,0.9265,0.0904,-0.567,-0.6703,-0.7123,-0.7366,-0.8033,-0.8962,-0.9666,-0.9159,-0.8771,-0.8218,-0.6902,-0.4508,0.0,-0.1494,0.0286,0.1944,0.2523,0.2656,0.3576,0.6593,0.9764,1.2613,1.4753,1.5604,1.3978,0.8218,0.5445,0.3398,0.1741,0.0941,0.0537,0.0468,0.1174,0.1534,0.1517,0.3932,0.611,0.7729,0.9702,1.0656,1.0389,1.0906,1.076,0.9877,0.9473,0.9247,0.929,0.9913,1.0446,1.0945,1.1923,1.2941,1.3934,1.4342,1.4769,1.5196,1.53,1.5739,1.6421,1.6686,1.6892,1.7052,1.7597,1.8135,1.866,-0.6014,-0.3932,-0.1653,0.0,0.0,0.4574,0.488,0.3683,0.173,-0.0921,-0.7037,-1.2539,-1.6248,-1.9768,-2.3091,-2.6053,-2.7082,-2.7574,-2.7499,-2.6597,-2.6316,-2.6915,-2.689,-2.7032,-2.7376,-2.6518,-2.2767,0.0,0.0,0.0,0.0,0.0,0.0,0.7173,1.2257,1.719,2.1919,2.5949,2.8434,2.9751,3.0314,3.0558,3.055,3.0433,3.0452,3.049,2.997,2.4826,1.6705,0.6351,-0.0389,-0.4589,-0.5344,-0.6533,-0.7662,-0.7366,-0.8342,-0.9407,-0.895,-0.8514,-0.7966,-0.6853,-0.4671,0.0,0.0,0.0674,0.2742,0.4206,0.4859,0.627,1.0065,1.2547,1.5033,1.803,1.8013,1.6103,1.1561,0.8,0.4857,0.2271,0.161,0.1141,0.0672,0.0994,0.1169,0.1136,0.2805,0.4432,0.5923,0.7693,0.8906,0.9437,0.9772,1.0049,1.0228,0.9603,0.9512,0.9882,1.0368,1.0826,1.1318,1.2354,1.3191,1.3934,1.4533,1.4907,1.5134,1.5359,1.5876,1.6481,1.628,1.6438,1.6802,1.7318,1.8211,1.9175,-0.447,-0.2331,0.022,0.0,0.0,0.0,1.0673,0.9493,0.7296,0.4001,-0.3793,-1.0722,-1.5254,-1.9206,-2.3008,-2.6603,-2.7604,-2.8281,-2.8887,-2.7624,-2.6778,-2.6596,-2.6881,-2.677,-2.6225,-2.6053,-2.1875,0.0,0.0,0.0,0.0,0.0,0.9212,1.2221,1.6185,1.9638,2.2732,2.632,2.8515,2.9731,3.0721,3.0749,3.0208,3.07,3.0478,2.9685,2.7604,2.1156,1.2408,0.4304,-0.0718,-0.3727,-0.4553,-0.6269,-0.7785,-0.7119,-0.7903,-0.8922,-0.8838,-0.8374,-0.7723,-0.702,-0.5267,-0.3281,0.0,0.0,0.0,0.5995,0.751,0.9788,1.4154,1.5773,1.7634,2.1207,2.0522,1.8549,1.5553,1.142,0.7274,0.339,0.2926,0.2525,0.1674,0.1414,0.1252,0.1175,0.1563,0.2382,0.371,0.5081,0.6473,0.7846,0.8122,0.8971,1.0399,0.966,0.9761,1.0676,1.0994,1.1527,1.2196,1.3116,1.3953,1.4689,1.526,1.558,1.5654,1.5962,1.6381,1.6759,1.602,1.6227,1.6953,1.7355,1.8353,1.9414,-0.3743,-0.182,0.0897,0.3726,0.0,0.0,0.0,0.9482,0.5871,-0.1379,-0.5962,-1.0361,-1.5029,-1.9044,-2.2761,-2.6027,-2.7393,-2.8257,-2.8621,-2.7211,-2.6313,-2.6179,-2.6093,-2.59,-2.551,-2.4516,-1.9196,-0.9376,0.0,0.0,0.0,0.0,1.8325,2.1266,2.2575,2.4671,2.7276,2.7707,2.8502,2.9444,2.9458,2.9696,3.0027,3.0092,2.9956,2.8866,2.2288,1.62,1.037,0.4439,0.0132,-0.2981,-0.3682,-0.4592,-0.5534,-0.6597,-0.7427,-0.8146,-0.8637,-0.8752,-0.848,-0.7777,-0.6406,-0.4681,-0.2577,0.0,0.599,0.8678,0.0,1.4245,1.618,0.0,0.0,2.2179,2.2944,2.2174,1.8769,1.5055,1.0451,0.454,0.3771,0.3367,0.2603,0.1781,0.1279,0.1302,0.0627,0.061,0.1438,0.2832,0.3965,0.4858,0.6105,0.7459,0.894,0.8726,0.9501,1.1213,1.1556,1.2444,1.3848,1.4796,1.5984,1.7247,1.7103,1.7261,1.7559,1.7261,1.7179,1.7151,1.649,1.6808,1.7727,1.814,1.8323,1.8499,-0.145,0.0293,0.2621,0.4929,0.0,0.0,0.0,0.7409,0.3929,-0.1586,-0.4874,-0.8384,-1.2923,-1.7556,-2.1857,-2.5522,-2.7987,-2.9529,-3.0001,-2.8826,-2.7801,-2.717,-2.603,-2.4878,-2.3866,-2.239,-1.7029,-0.7535,-0.28,0.0,0.0,0.0,2.0808,2.3915,2.3827,2.524,2.7832,2.8646,2.9271,2.9715,3.0048,3.0035,2.9827,2.9869,2.8794,2.6456,2.026,1.5211,1.0599,0.4677,0.0993,-0.1258,-0.2101,-0.3281,-0.4463,-0.5362,-0.6176,-0.7017,-0.7925,-0.7864,-0.7711,-0.8584,-0.712,-0.4663,-0.1458,0.2218,0.6371,1.1398,0.0,0.0,0.0,0.0,0.0,0.0,2.4826,2.3919,2.0208,1.6136,1.162,0.6492,0.5068,0.424,0.3389,0.2962,0.2513,0.1865,0.1655,0.1383,0.111,-0.0385,-0.011,0.24,0.349,0.4674,0.6154,0.7124,0.8576,1.0424,1.1454,1.2962,1.4938,1.5845,1.6937,1.8099,1.777,1.7752,1.7861,1.7268,1.725,1.7583,1.7546,1.7888,1.8382,1.7936,1.892,2.0336,0.0424,0.2456,0.4691,0.6215,0.7953,0.0,0.0,0.5119,0.2179,-0.1182,-0.3426,-0.636,-1.0421,-1.5065,-1.9623,-2.3982,-2.7305,-2.9608,-3.0657,-2.9764,-2.8529,-2.7049,-2.5013,-2.2924,-2.0837,-1.8753,-1.3485,-0.4792,0.0,0.0,0.0,0.0,0.0,2.347,2.3456,2.4806,2.7068,2.8323,2.9215,2.9835,3.0226,3.0133,2.9717,2.9645,2.7734,2.4449,1.9479,1.5187,1.0945,0.5324,0.2384,0.0925,-0.0199,-0.1435,-0.2672,-0.3692,-0.4476,-0.5247,-0.6708,-0.6866,-0.7001,-0.865,-0.7143,-0.4141,-0.0175,0.3643,0.8014,1.4041,1.6532,0.0,0.0,0.0,2.4052,2.5665,0.0,2.523,2.1374,1.6449,1.1743,0.7673,0.5959,0.5111,0.4893,0.491,0.4603,0.3946,0.3488,0.261,0.116,-0.1659,-0.2103,0.0438,0.1209,0.2464,0.4338,0.6079,0.8023,1.0092,1.1776,1.3717,1.5877,1.6815,1.7743,1.8667,1.8302,1.8186,1.8137,1.7606,1.7704,1.8238,1.8675,1.9154,1.9514,1.8676,1.9771,2.1476,0.1017,0.4232,0.7191,0.7253,0.8105,0.7776,0.4833,0.2855,0.0859,-0.1329,-0.2492,-0.4436,-0.7859,-1.1465,-1.5655,-2.0809,-2.4469,-2.7446,-2.96,-2.9089,-2.7491,-2.4717,-2.242,-1.9572,-1.6025,-1.2939,-0.7654,-0.0,0.5956,0.0,0.0,0.0,0.0,2.0156,2.2286,2.4073,2.5509,2.6166,2.7603,2.9485,2.9193,2.937,2.9756,2.9296,2.7007,2.3557,1.966,1.5351,1.0884,0.663,0.459,0.359,0.1801,0.1201,0.0666,-0.1593,-0.2318,-0.2779,-0.4969,-0.6054,-0.6765,-0.7559,-0.6077,-0.3342,0.0886,0.6524,1.215,1.6574,1.9954,2.2238,2.2713,2.4187,2.5576,2.6357,2.7187,0.0,0.0,1.6336,1.0857,0.7558,0.6101,0.589,0.7521,0.7686,0.785,0.8172,0.6079,0.3687,0.1139,0.0272,-0.044,-0.0997,-0.0333,0.1441,0.4365,0.6042,0.8207,1.0773,1.2918,1.4953,1.6795,1.7804,1.867,1.934,1.9002,1.887,1.887,1.8836,1.9001,1.9297,1.9762,2.0543,2.1403,2.1164,2.0849,2.0691,0.3783,0.7274,0.9567,0.8731,0.837,0.7315,0.5032,0.3388,0.2092,0.094,-0.0896,-0.2427,-0.3372,-0.6857,-1.093,-1.5508,-2.0862,-2.4503,-2.5643,-2.635,-2.6072,-2.4653,-1.8423,-1.3819,-1.1272,-0.7326,-0.1877,0.5115,0.9579,1.3873,0.0,0.0,1.7164,1.8884,1.6991,1.8435,2.2513,2.5916,2.8015,2.9076,2.9584,2.9784,2.9649,2.8918,2.6745,2.357,1.9768,1.6118,1.2617,0.9058,0.7703,0.7117,0.5377,0.4403,0.3609,0.1742,0.0762,-0.018,-0.2573,-0.3377,-0.3929,-0.5615,-0.2765,0.1508,0.5435,1.0617,1.5823,2.0095,2.1964,2.3027,2.3654,2.4963,2.6188,2.6972,2.7988,2.7295,0.0,1.39,0.4831,-0.1825,0.1005,0.4124,0.5755,0.8182,0.959,0.9576,0.8779,0.6968,0.3999,0.2748,0.1579,0.0384,0.1045,0.2561,0.4918,0.6967,0.9275,1.1894,1.4137,1.6462,1.8796,1.9183,1.9991,2.1053,1.9921,1.9425,1.939,1.8885,1.8738,1.8959,2.0136,2.0805,2.1078,2.0835,2.1399,2.2445,0.3269,0.7395,1.0181,0.9985,0.8509,0.6809,0.5196,0.4009,0.3083,0.2596,0.1622,0.0822,0.066,-0.1548,-0.4683,-0.8791,-1.2411,-1.5409,-1.7652,-1.7704,-1.745,-1.7051,-1.1469,-0.7151,-0.4531,-0.0779,0.3832,0.9231,1.2832,1.6135,0.0,1.6679,1.6043,1.6756,1.4206,1.4997,1.8632,2.25,2.5292,2.7267,2.9024,2.9715,2.96,2.8577,2.6463,2.3631,2.0464,1.7214,1.4033,1.1355,1.0108,0.9394,0.7977,0.6964,0.5984,0.4648,0.3834,0.2928,0.0788,0.0253,-0.0059,-0.1209,0.2266,0.6929,1.0313,1.4671,1.8948,2.23,2.3106,2.3401,2.3977,2.5131,2.6142,2.664,2.7641,2.5576,0.0,0.6876,-0.2635,-0.9375,-0.3435,0.2119,0.4543,0.8445,1.1104,1.1644,1.1582,1.0008,0.6591,0.5125,0.3723,0.2277,0.292,0.4369,0.6619,0.8947,1.126,1.361,1.6057,1.8205,2.0052,2.0094,2.0568,2.1335,2.0007,1.9432,1.9338,1.8858,1.8699,1.8858,2.0005,2.072,2.1084,2.1351,2.227,2.345,-0.0671,0.4812,0.9515,1.0981,0.8585,0.6188,0.5364,0.4539,0.4012,0.3999,0.5008,0.5245,0.4204,0.4293,0.2908,-0.0905,0.0119,-0.114,-0.6008,-0.4042,-0.2725,-0.2882,-0.1941,0.0404,0.438,0.6712,0.9408,1.2668,1.5997,1.8117,1.913,2.0188,1.8144,1.3557,1.3392,1.3329,1.3377,1.5739,1.9577,2.4358,2.7555,2.9176,2.9542,2.8313,2.6267,2.3846,2.1743,1.8617,1.5216,1.3525,1.192,1.06,0.9707,0.881,0.7986,0.714,0.6862,0.6515,0.4938,0.4567,0.4817,0.5471,0.8805,1.2633,1.5306,1.8621,2.1596,2.3249,2.3522,2.3566,2.3901,2.4928,2.5672,2.5544,2.595,2.102,0.5876,-0.3776,-1.0724,-1.4551,-0.7259,-0.031,0.3716,0.8425,1.2061,1.4114,1.4275,1.2583,0.8791,0.7493,0.6125,0.4672,0.5232,0.6867,0.9599,1.1927,1.4067,1.5979,1.8628,2.015,2.0586,2.0568,2.0494,2.0286,1.9424,1.8992,1.8907,1.889,1.8999,1.9199,1.9695,2.0521,2.1598,2.2816,2.3459,2.371,-0.6984,0.4408,1.3697,1.2756,0.9797,0.7654,0.7734,0.7001,0.7038,0.8969,0.8581,0.863,0.9742,1.0147,0.9761,0.8329,0.6548,0.5255,0.4678,0.3651,0.3103,0.3136,0.6344,1.0611,1.6107,1.4114,1.4909,1.8888,2.0027,2.1598,2.3469,1.9654,1.4587,0.8574,0.5548,0.3078,0.1527,0.6884,1.4651,2.3636,2.6897,2.8629,2.9195,2.8605,2.7231,2.5173,2.2333,1.9786,1.75,1.5359,1.44,1.3828,1.2437,1.1454,1.0688,1.0469,1.0322,1.0034,0.8971,0.9414,1.0338,1.1027,1.4531,1.8248,1.9963,2.241,2.4385,2.4646,2.4732,2.4707,2.459,2.5965,2.675,2.5739,2.0483,1.1696,-0.2161,-0.7097,-1.1473,-1.7351,-1.454,-0.8934,-0.0872,0.4512,0.8923,1.2411,1.4034,1.387,1.1649,1.1379,1.0604,0.9119,1.0043,1.1761,1.4257,1.5536,1.7259,1.944,2.0845,2.1558,2.1675,2.158,2.1287,2.0776,2.0,1.9994,2.0511,2.0363,2.0655,2.1285,2.1899,2.2777,2.3693,2.3763,2.4024,2.4318,-0.6485,0.5829,1.6274,1.5878,1.3007,1.049,0.9847,0.9705,1.0246,1.1641,1.2357,1.3199,1.4618,1.5741,1.6494,1.6753,1.6848,1.6564,1.5836,1.5513,1.4875,1.3817,1.5046,1.7554,2.1317,1.9286,1.951,2.2212,2.3156,2.4496,2.602,1.9679,1.3109,0.6379,0.0309,-0.3795,-0.5558,0.3073,1.252,2.1917,2.4837,2.6976,0.0,2.8603,2.7636,2.5853,2.3677,2.1266,1.8891,1.7335,1.6331,1.5631,1.474,1.3917,1.3205,1.3205,1.338,1.3423,1.2941,1.4092,1.5767,1.6849,1.9962,2.2989,2.3859,2.5371,2.6478,2.6065,2.6194,2.6472,2.6635,2.753,2.7031,2.3286,1.4434,0.4548,-0.5455,-1.0988,-1.5613,-1.9942,-1.9362,-1.5971,-0.9288,-0.2683,0.3291,0.843,1.1056,1.2839,1.3763,1.395,1.3491,1.2426,1.3965,1.5648,1.7361,1.8789,2.0188,2.1537,2.2471,2.298,2.3051,2.2829,2.2599,2.2356,2.1531,2.1416,2.1784,2.1544,2.1676,2.2085,2.2819,2.3483,2.4027,2.4358,2.4543,2.4631,-0.1851,0.835,1.7449,1.8974,1.7278,1.4939,1.2786,1.3064,1.357,1.3684,1.6226,1.8288,1.8904,2.0913,2.2703,2.4024,2.7531,2.8641,2.6257,2.7935,2.7965,2.5534,2.3299,2.2504,2.3354,2.309,2.3343,2.4155,2.5683,2.6754,2.7247,2.0286,1.2935,0.523,-0.2898,-0.7721,-0.8956,0.2359,1.1776,1.9308,2.2084,2.4897,2.7512,2.8389,2.7717,2.6179,2.516,2.2717,1.9864,1.9206,1.8074,1.6906,1.6861,1.6346,1.5763,1.576,1.6227,1.6832,1.6854,1.8595,2.074,2.2287,2.4635,2.6689,2.7074,2.7648,2.7953,2.7391,2.7797,2.8379,2.8906,2.8802,2.6298,1.9139,0.9148,0.0068,-0.6327,-1.4261,-1.9972,-2.1455,-2.1907,0.0,-1.9024,-1.1085,-0.3251,0.3574,0.7205,1.1026,1.5362,1.5932,1.5786,1.5043,1.7133,1.8636,1.9383,2.1437,2.2587,2.2783,2.3678,2.4152,2.4236,2.3961,2.3896,2.3975,2.3158,2.284,2.287,2.2593,2.2453,2.2428,2.3229,2.3528,2.3667,2.4734,2.5032,2.4818,0.3724,1.0937,1.6439,1.8516,2.1275,2.2388,2.0025,1.7921,1.7189,1.9083,2.0772,2.2097,2.2666,2.4861,2.6894,2.8385,3.0394,3.1844,3.2366,3.2374,3.1628,2.9943,2.7965,2.7217,2.7906,2.6516,2.6392,2.7711,2.8019,2.7894,2.727,2.1797,1.298,0.1528,-0.4151,-0.7585,-0.8459,0.2058,0.9905,1.5693,2.0289,2.4081,2.7011,2.7947,2.7708,2.6682,2.531,2.3305,2.1239,2.0489,2.0102,1.9762,1.915,1.8839,1.8754,1.8747,1.9555,2.0457,2.0487,2.216,2.419,2.5408,2.6927,2.8366,2.9354,2.9121,2.859,2.8296,2.8909,2.9271,2.8561,2.7266,2.3381,1.4485,0.8499,0.1465,-0.8507,-1.3275,-1.6571,-1.8841,-2.083,-2.2723,-2.4454,-1.6202,-0.7359,0.078,0.6635,1.1792,1.6324,1.9004,1.9595,1.7835,1.9356,2.0447,2.0902,2.2295,2.3247,2.3775,2.4364,2.4393,2.3885,2.3998,2.3669,2.3043,2.2929,2.3245,2.3851,2.3621,2.3834,2.4341,2.4606,2.4746,2.4816,2.5147,2.5313,2.5359,0.342,1.3027,2.0673,2.1762,2.5062,2.7328,2.662,2.5459,2.4313,2.3258,2.4558,2.611,2.7611,2.902,3.0544,3.2384,3.308,3.3767,3.4568,3.4214,3.3574,3.2632,3.1012,3.0108,3.0101,2.9108,2.8599,2.8629,2.9566,2.9453,2.8262,2.2268,1.5677,0.8559,0.191,-0.231,-0.3868,0.467,1.1936,1.7958,2.0447,2.3351,2.6229,2.7739,2.7819,2.7032,2.5967,2.4335,2.2546,2.1499,2.1164,2.1137,2.1056,2.1064,2.112,2.1408,2.2277,2.3152,2.3147,2.4713,2.6458,2.7123,2.8129,2.9174,2.992,2.9661,2.9268,2.9277,3.0226,3.1009,3.0965,2.8236,2.356,1.6024,1.0022,0.3531,-0.44,-0.8416,-1.1269,-1.3121,-1.5762,-1.8814,-2.2337,-1.8052,-1.2069,-0.4824,0.285,0.9926,1.6215,2.0339,2.1698,1.99,2.1397,2.2287,2.2322,2.3529,2.4217,2.4416,2.4762,2.4734,2.4438,2.4636,2.4505,2.4159,2.4149,2.438,2.4764,2.4514,2.4568,2.481,2.498,2.5061,2.5118,2.5321,2.5428,2.5458,0.2188,1.3399,2.3086,2.4031,2.7682,3.08,3.1792,3.2154,3.1047,2.7541,2.8334,3.0029,3.2191,3.261,3.3491,3.522,3.5043,3.4945,3.5262,3.4998,3.4689,3.437,3.3138,3.2192,3.1671,3.1299,3.0606,2.9594,3.1017,3.0952,2.945,2.329,1.8732,1.5466,0.9266,0.5254,0.3536,0.9778,1.5808,2.1158,2.1411,2.3229,2.5968,2.7653,2.7857,2.7179,2.6524,2.5132,2.345,2.2455,2.2086,2.2211,2.2715,2.2906,2.3041,2.3671,2.4457,2.5163,2.5262,2.6528,2.7879,2.8121,2.8787,2.9514,2.9958,2.9932,2.9863,3.0056,3.1188,3.2403,3.3285,2.9828,2.4891,1.8938,1.2797,0.6869,0.1465,-0.2221,-0.4907,-0.6269,-0.8905,-1.1951,-1.5329,-1.4494,-1.1391,-0.5645,0.0451,0.7688,1.6367,2.1313,2.3378,2.2254,2.3425,2.4078,2.4049,2.4709,2.4955,2.4842,2.4949,2.5022,2.5077,2.5224,2.5322,2.539,2.5322,2.5341,2.538,2.5179,2.5019,2.4959,2.5113,2.5078,2.4968,2.5349,2.5303,2.5114,0.3477,1.0357,1.7418,2.1233,2.7894,3.3173,3.4497,3.4588,3.4037,3.2711,3.2727,3.3451,3.4883,3.4787,3.4909,3.5603,3.5361,3.5258,3.5538,3.5368,3.5237,3.5193,3.4366,3.3884,3.3804,3.3306,3.2862,3.2523,3.2779,3.2091,3.0386,2.6284,2.0607,1.3868,1.4014,1.4023,1.4174,1.7964,2.051,2.2058,2.2531,2.4447,2.7114,2.7703,2.7593,2.7044,2.6507,2.5132,2.3595,2.345,2.3406,2.3537,2.4044,2.422,2.4418,2.5287,2.5926,2.6403,2.6788,2.7582,2.8391,2.8662,2.9071,2.9548,3.0143,3.0217,3.0193,3.0326,3.1196,3.2272,3.3371,3.0829,2.6527,2.0257,1.6766,1.2755,0.6564,0.4088,0.2337,0.0765,-0.1086,-0.2458,-0.3035,-0.1142,0.198,0.6434,0.3629,0.6646,1.7963,2.2734,2.5335,2.5799,2.5498,2.5695,2.6468,2.538,2.487,2.4986,2.4979,2.5099,2.5274,2.5284,2.5303,2.5303,2.5303,2.5341,2.5409,2.537,2.5398,2.5447,2.5453,2.5017,2.4468,2.5141,2.484,2.4159,0.5908,1.2161,1.8354,2.112,2.7622,3.3467,3.6493,3.7517,3.7842,3.7655,3.6127,3.5609,3.6986,3.6476,3.6254,3.6748,3.5976,3.5479,3.5581,3.5519,3.5507,3.5543,3.499,3.4716,3.4768,3.435,3.3922,3.3513,3.4085,3.3634,3.2193,3.1324,2.9504,2.7064,2.7728,2.7586,2.6841,2.6413,2.6021,2.5723,2.5621,2.6416,2.7771,2.8086,2.7731,2.6985,2.6065,2.4847,2.3522,2.3183,2.3486,2.4184,2.4697,2.5105,2.5545,2.6455,2.7012,2.7412,2.7773,2.7798,2.7881,2.8433,2.8359,2.8386,2.9361,2.9766,3.0036,3.0331,3.1464,3.2677,3.3662,3.1543,2.8053,2.3124,1.9735,1.6314,1.2244,1.0205,0.8853,0.823,0.6907,0.5392,0.3685,0.7843,1.0239,0.9305,1.0725,1.4411,2.0928,2.4808,2.7263,2.8129,2.5879,2.5426,2.7012,2.5381,2.4783,2.524,2.5236,2.5282,2.537,2.5322,2.5303,2.5303,2.5341,2.539,2.5399,2.5441,2.5503,2.5553,2.5556,2.5036,2.4391,2.5171,2.4771,2.3888,0.7305,1.2443,1.7627,2.0053,2.5953,3.1986,3.6601,3.8426,3.9586,4.0501,3.8626,3.7674,3.8864,3.7838,3.7239,3.7674,3.64,3.5584,3.5603,3.5602,3.5645,3.5752,3.5681,3.565,3.5724,3.536,3.5004,3.4669,3.525,3.5052,3.4178,3.553,3.6689,3.7643,3.7546,3.7006,3.593,3.2581,3.0619,2.9547,2.814,2.7823,2.8241,2.7881,2.7078,2.6027,2.5212,2.4085,2.298,2.2936,2.3705,2.4736,2.5211,2.575,2.6334,2.7344,2.7805,2.8129,2.8489,2.7942,2.7429,2.7958,2.7507,2.7263,2.8509,2.9134,2.9754,3.0877,3.1722,3.2598,3.3713,3.1858,2.8845,2.4671,2.1622,1.8839,1.595,1.4372,1.3553,1.374,1.3243,1.2466,1.1344,1.5003,1.6485,1.4114,1.753,2.0527,2.2411,2.5893,2.8159,2.8965,2.6331,2.5595,2.7072,2.5288,2.4699,2.531,2.5307,2.5348,2.5409,2.5322,2.5303,2.5322,2.539,2.5406,2.5441,2.5488,2.5532,2.557,2.5317,2.4694,2.4019,2.4815,2.4359,2.3379,0.7171,0.9786,1.331,1.7042,2.2612,2.8475,3.433,3.6543,3.8334,4.0603,4.0116,3.9838,4.0579,3.8889,3.7832,3.8146,3.6546,3.5545,3.5603,3.5603,3.5694,3.5886,3.6537,3.6914,3.6993,3.652,3.6344,3.648,3.6354,3.6228,3.6211,3.8213,3.9988,4.1487,4.0217,3.9795,3.9779,3.5685,3.3659,3.2934,2.9496,2.8326,2.8512,2.6861,2.5226,2.3846,2.3759,2.2814,2.1821,2.3084,2.4271,2.5265,2.5668,2.6114,2.6751,2.8004,2.8394,2.8471,2.8887,2.8148,2.7302,2.732,2.67,2.6481,2.7806,2.8365,2.9415,3.2203,3.1949,3.1727,3.3412,3.1748,2.8628,2.4051,2.2273,2.0287,1.6973,1.5984,1.587,1.6373,1.7282,1.884,2.1462,2.0651,2.1001,2.3523,2.3127,2.2416,2.1646,2.5412,2.7718,2.8011,2.719,0.0,2.6798,2.5139,2.4575,2.5098,2.5098,2.5203,2.5409,2.5322,2.5341,2.5409,2.5409,2.5434,2.5508,2.5508,2.5547,2.5508,2.4656,2.3782,2.3119,2.3925,2.3373,2.248,0.6952,0.9178,1.177,1.4971,1.9954,2.5154,3.0218,3.358,3.6261,3.8142,3.8412,3.8528,3.877,3.8291,3.7818,3.7425,3.6315,3.5661,3.568,3.568,3.5738,3.5892,3.5974,3.5962,3.5837,3.5287,3.4955,3.4852,3.4829,3.5635,3.7285,3.99,4.1203,4.1365,4.0887,4.0047,3.879,3.5279,3.3225,3.2111,2.9403,2.8293,2.8041,2.5727,2.4108,2.2986,2.1902,2.1077,2.0606,2.1292,2.284,2.4572,2.4991,2.6028,2.7234,2.8148,2.8237,2.8129,2.8489,2.6997,2.5627,2.6981,2.5729,2.4875,2.7574,2.8776,2.9795,3.1378,3.1409,3.1258,3.1707,2.9593,2.6047,2.0761,1.9423,1.7752,1.3866,1.4318,1.4671,1.3569,1.4447,1.3868,1.0762,1.1847,1.1786,0.944,1.3957,1.8845,2.339,2.5079,2.6946,0.0,2.5888,0.0,2.6438,2.4428,2.388,2.4838,2.507,2.5266,2.5466,2.5447,2.5447,2.5466,2.5524,2.5511,2.5507,2.5605,2.5596,2.5511,2.5287,2.4549,2.3707,2.4533,2.3985,2.3052,0.6693,0.8725,1.0664,1.2844,1.7441,2.2123,2.6118,3.0005,3.3225,3.5169,3.6124,3.6559,3.6381,3.6394,3.6511,3.6782,3.6112,3.5669,3.5669,3.5695,3.5736,3.5812,3.5988,3.5976,3.5758,3.5084,3.4503,3.4027,3.3905,3.521,3.7852,3.9478,4.0315,4.0447,3.9276,3.8114,3.6872,3.3209,3.1132,3.0022,2.7569,2.6623,2.6395,2.4014,2.2602,2.1739,2.0556,1.9894,1.9679,2.0567,2.2176,2.3916,2.4785,2.5912,2.7081,2.7918,2.803,2.7964,2.8316,2.6641,2.5105,2.6519,2.5148,2.4178,2.7042,2.8676,2.9807,3.0584,3.0176,2.9431,2.8566,2.5753,2.1835,1.6662,1.5691,1.4508,1.1455,1.2209,1.2458,1.0761,1.0929,0.9598,0.547,0.543,0.4737,0.2457,0.6881,1.2389,1.8683,2.3382,2.6356,2.7369,2.463,2.3589,2.4496,2.3285,2.3178,2.4219,2.488,2.5309,2.5505,2.5503,2.552,2.5543,2.5582,2.557,2.5546,2.5633,2.5601,2.5457,2.5097,2.4519,2.3954,2.4359,2.3944,2.3328,0.6433,0.8367,0.9994,1.0908,1.5137,1.933,2.2235,2.6007,2.9345,3.1767,3.3184,3.3832,3.3455,3.3331,3.4014,3.5825,3.5591,3.536,3.5366,3.5471,3.5518,3.5527,3.6228,3.6476,3.6216,3.5387,3.4507,3.3545,3.3324,3.4676,3.748,3.7208,3.7668,3.8559,3.5705,3.4357,3.3934,2.9698,2.7578,2.6825,2.4281,2.3587,2.383,2.1898,2.079,2.0185,1.9718,1.9155,1.8879,2.0593,2.1969,2.3252,2.4813,2.5687,2.6365,2.7434,2.7799,2.7926,2.8219,2.6877,2.5503,2.604,2.4942,2.4278,2.637,2.8088,2.936,2.974,2.8375,2.6449,2.4385,2.067,1.6482,1.2077,1.1375,1.0917,0.9526,0.9672,0.9418,0.7933,0.6997,0.5804,0.42,0.1089,-0.0163,0.146,0.1629,0.4035,0.9438,2.035,2.5412,2.3192,2.3292,2.2733,2.1374,2.1807,2.2494,2.3473,2.463,2.5301,2.5508,2.5495,2.5523,2.558,2.558,2.559,2.5581,2.5601,2.5544,2.5389,2.4395,2.3986,2.3929,2.3685,2.3461,2.3386,0.6554,0.8179,0.9607,0.9833,1.3807,1.7493,1.932,2.2347,2.5246,2.7491,2.8385,2.9,2.9487,2.9916,3.0344,3.0812,3.2032,3.285,3.308,3.3389,3.3636,3.3784,3.3723,3.3566,3.3295,3.2256,3.1171,3.0093,3.0938,3.1631,3.2234,3.4134,3.4429,3.3347,3.1747,3.0142,2.835,2.5186,2.3346,2.232,2.0558,2.0611,2.155,2.0267,1.937,1.8809,1.8876,1.8095,1.7264,1.9195,2.0681,2.1911,2.301,2.4459,2.5966,2.7036,2.7379,2.747,2.7542,2.6356,2.5213,2.5639,2.5386,2.5268,2.6082,2.7032,2.7745,2.7906,2.641,2.4199,2.1342,1.725,1.2949,0.8593,0.867,0.8333,0.5775,0.6729,0.6647,0.3865,0.2393,-0.0247,-0.4979,-0.4671,-0.4012,-0.3647,-0.4219,-0.0337,0.9342,1.5706,1.9707,2.1246,2.0448,2.0012,2.0041,2.0697,2.2099,2.418,2.482,2.5253,2.5492,2.5492,2.551,2.552,2.552,2.5492,2.5456,2.5493,2.5449,2.5322,2.5118,2.4858,2.4582,2.4521,2.4279,2.3989,0.6662,0.8184,0.9605,1.0057,1.3323,1.633,1.7677,2.0001,2.2067,2.3411,2.438,2.522,2.5956,2.6306,2.6575,2.6932,2.9579,3.1314,3.1475,3.2076,3.2485,3.2555,3.2561,3.2335,3.1868,3.1031,2.9955,2.8602,2.844,2.8527,2.8887,2.9848,2.9719,2.8646,2.7005,2.5448,2.3911,2.1226,1.966,1.8773,1.767,1.7932,1.8899,1.8706,1.8325,1.79,1.7576,1.6632,1.5679,1.6528,1.7666,1.8935,1.9991,2.1808,2.3658,2.4163,2.5439,2.6689,2.6539,2.5397,2.4256,2.4149,2.4586,2.5003,2.5037,2.5437,2.5673,2.5046,2.2971,2.0226,1.6993,1.3296,0.9707,0.6578,0.7349,0.7677,0.5788,0.614,0.5614,0.296,0.0761,-0.1847,-0.5335,-0.5179,-0.4166,-0.251,-0.1632,0.2253,1.0118,1.4459,1.7509,1.935,1.8852,1.8672,1.8975,2.0135,2.1725,2.3728,2.4449,2.4976,2.5316,2.5439,2.5498,2.5498,2.5498,2.5468,2.5457,2.5492,2.5448,2.5331,2.5175,2.5004,2.4775,2.4591,2.4393,2.419,0.6664,0.8196,0.9699,1.0478,1.2973,1.535,1.6534,1.805,1.9275,1.9841,2.0932,2.1915,2.2661,2.285,2.3117,2.3644,2.7056,2.9283,2.9526,3.04,3.0899,3.0863,3.1241,3.1201,3.0674,3.0053,2.8885,2.7212,2.5867,2.5436,2.6027,2.5305,2.475,2.4296,2.2161,2.0864,2.0096,1.7768,1.6499,1.6024,1.5353,1.5628,1.6507,1.7259,1.7195,1.6594,1.5754,1.453,1.3324,1.2984,1.3666,1.4862,1.6287,1.8321,2.0158,2.0203,2.2332,2.474,2.4861,2.3883,2.2707,2.2179,2.2878,2.3701,2.3504,2.3539,2.3235,2.1965,1.9329,1.6224,1.2859,1.0065,0.7756,0.6185,0.7492,0.8449,0.7659,0.6979,0.5845,0.3714,0.1033,-0.0759,-0.1107,-0.2193,-0.1175,0.2863,0.5335,0.8384,1.2372,1.5413,1.7295,1.7885,1.78,1.7922,1.8278,1.9965,2.1528,2.2905,2.3886,2.4594,2.5081,2.5321,2.5447,2.5466,2.5466,2.5466,2.5466,2.5447,2.5398,2.531,2.495,2.4779,2.4716,2.4375,2.4228,2.419,0.6356,0.7996,0.9281,0.9143,1.1611,1.3838,1.4471,1.5233,1.6162,1.7493,1.8003,1.8536,1.9303,2.0332,2.0879,2.0535,2.2075,2.3651,2.5073,2.5906,2.6408,2.6626,2.6867,2.7242,2.7755,2.6402,2.4718,2.2701,2.2994,2.2481,2.1184,2.2041,2.1608,2.0104,1.8701,1.7485,1.6372,1.4949,1.4305,1.4185,1.357,1.425,1.574,1.6122,1.4958,1.3098,1.2923,1.0799,0.8202,0.8951,0.9366,0.9948,1.2499,1.4489,1.5986,1.6713,1.7802,1.9237,2.1515,2.1164,2.0226,2.04,2.0519,2.0829,2.1728,2.1339,2.0573,2.0081,1.7893,1.5165,1.2087,1.0521,0.9487,0.8805,0.9991,1.0519,0.922,0.8504,0.7121,0.4563,0.2717,0.2108,0.3207,0.355,0.6091,1.1761,1.2308,1.4192,1.8251,1.7927,1.7657,1.7822,1.6475,1.6715,1.8683,2.049,2.19,2.2905,2.3687,2.4401,2.5027,2.5065,2.516,2.5322,2.5322,2.5322,2.5322,2.5149,2.5065,2.5041,2.4861,2.4689,2.4545,2.4478,2.4358,2.419,0.6386,0.7541,0.8694,0.9467,1.1223,1.2981,1.4328,1.4738,1.5228,1.6088,1.629,1.6634,1.7401,1.8108,1.8607,1.8771,1.9434,2.0272,2.1296,2.3063,2.4247,2.4649,2.4971,2.5216,2.5305,2.4116,2.3054,2.208,2.1496,2.0778,1.9986,1.994,1.9089,1.7664,1.6777,1.5728,1.459,1.435,1.4026,1.3655,1.3788,1.3852,1.4039,1.544,1.2984,0.8657,0.8019,0.5884,0.3465,0.4279,0.5212,0.634,0.8335,1.0185,1.1624,1.1831,1.4246,1.7058,1.7862,1.7433,1.684,1.7196,1.7532,1.7871,1.8393,1.8517,1.8279,1.7529,1.5873,1.4037,1.2351,1.1703,1.1463,1.1514,1.2781,1.324,1.1909,1.0791,0.9383,0.7495,0.6273,0.6176,0.762,0.8863,1.1608,1.6405,1.6904,1.8225,2.1051,1.9698,1.8691,1.8361,1.7334,1.7581,1.9229,2.0276,2.144,2.2755,2.3412,2.4081,2.4718,2.485,2.493,2.5043,2.5043,2.5043,2.5012,2.4917,2.4891,2.4877,2.4697,2.4575,2.4495,2.4375,2.4339,2.4358,0.6734,0.7569,0.86,0.9967,1.1057,1.2258,1.3962,1.4356,1.4626,1.5039,1.54,1.5864,1.6436,1.6918,1.7392,1.7674,1.799,1.8332,1.8687,2.0678,2.2197,2.2932,2.356,2.3591,2.3014,2.2457,2.1976,2.1583,2.031,1.9524,1.9269,1.8235,1.7171,1.5986,1.5383,1.4551,1.3621,1.4132,1.4195,1.4007,1.4238,1.3693,1.2772,1.3355,0.9563,0.3791,0.2158,0.0125,-0.1638,-0.0767,0.0772,0.2596,0.4041,0.5849,0.7314,0.7221,1.0185,1.3442,1.3577,1.3408,1.3352,1.3983,1.4881,1.5642,1.5793,1.6408,1.6715,1.5886,1.4888,1.4023,1.3552,1.3552,1.3863,1.4451,0.0,1.5748,1.4461,1.3212,1.193,1.0539,0.9841,1.0037,1.143,1.314,1.5595,1.9123,2.0043,2.111,2.2601,2.1198,2.0009,1.9263,1.8772,1.8965,1.9846,2.0366,2.1371,2.2859,2.3247,2.3814,2.4512,2.4654,2.476,2.4804,2.4804,2.4804,2.4804,2.4746,2.4731,2.4716,2.4512,2.4426,2.441,2.4266,2.4339,2.4478,0.7496,0.8475,0.9383,0.9845,1.0748,1.1579,1.1969,1.2674,1.3398,1.4213,1.5555,1.6436,1.6482,1.7698,1.8159,1.725,1.7821,1.8209,1.8164,1.8333,1.9101,2.0506,2.166,2.1725,2.059,2.1225,2.0777,1.9136,1.9027,1.8461,1.7471,1.6839,1.5928,1.4811,1.419,1.3555,1.3008,1.3437,1.4265,1.527,1.4074,1.3461,1.2802,0.8058,0.3238,-0.1443,-0.4323,-0.6458,-0.7736,-0.6358,-0.427,-0.1928,-0.0132,0.1646,0.3238,0.4069,0.4382,0.5128,0.8162,0.94,1.017,1.1598,1.3325,1.4879,1.5484,1.6065,1.6421,1.6336,1.6206,1.6101,1.6058,1.6464,1.7044,1.7598,0.0,0.0,1.6183,1.5488,1.444,1.2694,1.2445,1.2855,1.4122,1.5447,1.7435,2.027,2.168,2.2728,2.3466,2.2562,2.1569,2.0587,2.005,2.0045,2.061,2.1455,2.2455,2.3604,2.3344,2.3663,2.4495,2.4512,2.4623,2.4804,2.4804,2.4804,2.479,2.4591,2.4528,2.4512,2.4303,2.4228,2.4209,2.4227,2.4339,2.4495,0.8694,0.9069,0.9452,0.9828,1.0227,1.0792,1.1681,1.2451,1.3228,1.3763,1.5103,1.6064,1.6098,1.6802,1.7154,1.712,1.7113,1.7428,1.8054,1.8106,1.8636,1.9859,2.0384,2.04,1.9945,2.0238,2.0074,1.9406,1.8736,1.8221,1.7773,1.651,1.5486,1.4652,1.4046,1.3603,1.3311,1.42,1.4724,1.4997,1.4215,1.3667,1.2438,0.4572,-0.2287,-0.8101,-1.0783,-1.1623,-1.0944,-0.7604,-0.4807,-0.2267,0.0067,0.1272,0.1876,0.2221,0.2203,0.2625,0.4731,0.6059,0.7435,0.9657,1.2146,1.4389,1.577,1.724,1.82,1.8054,1.8298,1.8467,1.8252,1.8423,1.8654,1.8854,0.0,1.8215,1.733,1.6788,1.6113,1.5066,1.5242,1.5795,1.6491,1.7852,1.9528,2.1598,2.2484,2.3161,2.3741,2.2316,2.1215,2.073,2.0902,2.1416,2.2175,2.2528,2.3079,2.3811,2.3857,2.3907,2.402,2.421,2.4357,2.4445,2.4445,2.4445,2.4409,2.4117,2.4002,2.3981,2.3696,2.3566,2.3628,2.3816,2.4002,2.421,0.9744,0.9744,0.9892,1.0323,1.0366,1.0596,1.1311,1.2089,1.2756,1.3154,1.4503,1.5447,1.5679,1.6226,1.6681,1.6847,1.6839,1.7072,1.7787,1.8027,1.8574,1.9639,1.969,1.969,1.969,1.969,1.969,1.969,1.8612,1.8106,1.8052,1.6378,1.5276,1.4652,1.4054,1.3638,1.3359,1.4403,1.4834,1.4677,1.4077,1.3496,1.1873,0.19,-0.6235,-1.2632,-1.5281,-1.5383,-1.3593,-0.9144,-0.5656,-0.2661,0.0067,0.1474,0.2129,0.2037,0.2162,0.2556,0.3743,0.5467,0.746,0.9845,1.2693,1.5401,1.7198,1.8855,1.9975,1.9713,2.0063,2.0285,1.9959,1.9886,1.9886,1.9886,1.9672,1.925,1.8642,1.8323,1.7926,1.7344,1.7637,1.8093,1.8643,1.9882,2.1289,2.2791,2.3286,2.3458,2.3293,2.2024,2.1224,2.103,2.1665,2.257,2.3759,2.3307,2.3441,2.4244,2.3946,2.372,2.3544,2.3774,2.3937,2.4054,2.3917,2.3955,2.4016,2.3692,2.3544,2.3522,2.33,2.3189,2.3236,2.3566,2.3826,2.4063,1.0634,1.0783,1.0918,1.1316,1.1423,1.1223,1.0712,1.1288,1.1959,1.2346,1.3734,1.4839,1.5164,1.6443,1.7051,1.6455,1.702,1.7377,1.731,1.7787,1.8574,1.9639,1.969,1.969,1.969,1.969,1.969,1.969,1.8612,1.8106,1.8052,1.6378,1.5276,1.4698,1.405,1.3467,1.2939,1.3779,1.4284,1.4524,1.3505,1.2773,1.1129,-0.0045,-0.8346,-1.4401,-1.7386,-1.7638,-1.5935,-1.1616,-0.7413,-0.3524,-0.0799,0.1912,0.4009,0.3655,0.4055,0.4723,0.5629,0.8103,1.0858,1.2609,1.5332,1.8084,1.9818,2.0838,2.1365,2.1168,2.1322,2.1393,2.107,2.1007,2.1007,2.1007,2.0991,2.083,2.0273,2.0206,2.0005,1.9491,1.9405,1.9775,2.0639,2.1568,2.2583,2.3712,2.4233,2.3745,2.201,2.197,2.1894,2.1719,2.2379,2.3513,2.5166,2.3765,2.367,2.4988,2.3457,2.289,2.3189,2.3189,2.3392,2.3671,2.3346,2.3392,2.3671,2.3346,2.3189,2.3189,2.3189,2.3189,2.3236,2.3566,2.3826,2.4044,1.1736,1.1526,1.1477,1.2201,1.2107,1.2006,1.2282,1.252,1.2478,1.2093,1.325,1.4082,1.4092,1.4886,1.5741,1.6334,1.6244,1.6454,1.7229,1.7787,1.8263,1.8574,1.893,1.9132,1.9132,1.953,1.969,1.969,1.8612,1.8106,1.8052,1.6378,1.5499,1.5276,1.4272,1.3861,1.3938,1.3779,1.3613,1.3412,1.1831,1.0064,0.7378,-0.1313,-0.8982,-1.4958,-1.4208,-1.3654,-1.2505,-0.7501,-0.3754,-0.053,0.3359,0.6316,0.831,0.7746,0.8565,0.982,1.0488,1.2771,1.5004,1.5216,1.7474,2.02,2.2147,2.3107,2.3492,2.3198,2.3006,2.2656,2.1922,2.1866,2.1811,2.146,2.143,2.1352,2.1195,2.0943,2.0716,2.0553,2.0719,2.1124,2.1826,2.2527,2.3378,2.4407,2.4288,2.3928,2.3395,2.2495,2.2276,2.2862,2.2752,2.3513,2.5166,2.4766,2.4566,2.4641,2.4425,2.3805,2.2873,2.3093,2.3236,2.3346,2.3236,2.3277,2.3305,2.2996,2.2848,2.2822,2.2634,2.2571,2.2624,2.3159,2.3397,2.3538,1.2118,1.1859,1.1703,1.2102,1.2195,1.2191,1.2074,1.2348,1.2313,1.1662,1.2377,1.2986,1.308,1.3851,1.4614,1.5302,1.5309,1.5555,1.6225,1.6801,1.71,1.71,1.7839,1.838,1.8574,1.8893,1.908,1.908,1.8224,1.7787,1.7747,1.6544,1.582,1.5543,1.4595,1.4163,1.4139,1.3408,1.2917,1.2431,1.0701,0.8275,0.4942,-0.1695,-0.6674,-1.0075,-0.9955,-0.8367,-0.5797,-0.2089,0.1367,0.4556,0.7566,1.0269,1.2304,1.1963,1.3141,1.4672,1.5265,1.7115,1.8974,1.9262,2.0644,2.2365,2.3975,2.4522,2.4606,2.4233,2.3803,2.3213,2.2283,2.2226,2.2152,2.1688,2.1764,2.1899,2.1899,2.1675,2.1552,2.1652,2.1852,2.2241,2.2964,2.3433,2.4161,2.5297,2.4955,2.4621,2.453,2.3553,2.3234,2.3683,2.3502,2.3902,2.5012,2.5028,2.4853,2.4506,2.412,2.3447,2.2537,2.2747,2.289,2.2996,2.2908,2.289,2.2972,2.2678,2.2537,2.2527,2.236,2.231,2.2349,2.2832,2.3093,2.3305,1.1951,1.1834,1.1708,1.1519,1.1845,1.1833,1.097,1.1396,1.1667,1.1213,1.1421,1.1775,1.2184,1.3027,1.369,1.3763,1.4334,1.4697,1.4708,1.5262,1.5586,1.5586,1.6654,1.7422,1.7854,1.7973,1.8052,1.8106,1.7504,1.7271,1.7312,1.6752,1.6194,1.5588,1.4971,1.4376,1.3752,1.284,1.2175,1.1592,0.9923,0.7285,0.3791,-0.1191,-0.2345,-0.17,-0.465,-0.2119,0.2891,0.4336,0.7423,1.0827,1.1742,1.3883,1.6101,1.6337,1.7706,1.9351,1.9975,2.1229,2.2669,2.4007,2.4238,2.4381,2.528,2.5238,2.4904,2.4509,2.396,2.3218,2.2265,2.2181,2.2135,2.1628,2.2024,2.2395,2.2327,2.2361,2.2483,2.2686,2.2721,2.3088,2.3931,2.4332,2.5018,2.6239,2.6006,2.5727,2.5486,2.4972,2.4568,2.437,2.4406,2.4617,2.4939,2.4908,2.473,2.4418,2.3038,2.2378,2.2321,2.231,2.2409,2.266,2.2415,2.2453,2.2634,2.2398,2.231,2.231,2.231,2.231,2.2321,2.2599,2.2923,2.3236,1.1833,1.1333,1.1121,1.1895,1.194,1.1992,1.24,1.2085,1.1675,1.1312,1.1077,1.1079,1.148,1.1944,1.2657,1.371,1.4359,1.4675,1.472,1.5266,1.5599,1.5616,1.6287,1.6527,1.6133,1.6985,1.7612,1.8106,1.7107,1.6828,1.7312,1.6752,1.6194,1.5588,1.4971,1.4376,1.3732,1.2499,1.1595,1.0864,0.883,0.6528,0.4015,0.0633,0.0643,0.2372,0.204,0.4084,0.7475,1.1003,1.3049,1.4378,1.5946,1.7893,1.9825,2.0651,2.2326,2.4009,2.4357,2.4775,2.5305,2.6024,2.5721,2.5273,2.5401,2.5245,2.5008,2.4756,2.4182,2.3368,2.2165,2.213,2.2049,2.126,2.2275,2.297,2.2395,2.2801,2.3045,2.2756,2.2923,2.3392,2.417,2.546,2.6339,2.6523,2.6653,2.6767,2.6872,2.5837,2.533,2.5589,2.5217,2.5394,2.6118,2.5563,2.4845,2.4029,2.3437,2.296,2.2599,2.2415,2.2321,2.2388,2.2338,2.2321,2.2388,2.2321,2.231,2.231,2.231,2.231,2.2321,2.2599,2.2923,2.3305,1.1461,1.1198,1.1121,1.1552,1.1694,1.1821,1.1852,1.1835,1.1762,1.1545,1.1515,1.1643,1.2018,1.2404,1.2813,1.333,1.3672,1.3956,1.425,1.4846,1.5306,1.5588,1.5903,1.5908,1.5588,1.5572,1.5855,1.6481,1.586,1.574,1.6046,1.5776,1.5466,1.5141,1.456,1.4097,1.3674,1.2052,1.1116,1.061,0.8521,0.6567,0.4739,0.2868,0.4334,0.7449,0.769,1.0822,1.5165,1.7313,1.8435,1.9124,1.9946,2.1495,2.3222,2.3809,2.5161,2.6504,2.6655,2.6455,2.6292,2.6693,2.6162,2.5494,2.5293,2.5182,2.5018,2.4713,2.4125,2.3361,2.2401,2.2269,2.2264,2.2115,2.2979,2.3715,2.3865,2.3873,2.3868,2.376,2.3578,2.3873,2.5003,2.6142,2.7077,2.7734,2.7772,2.7867,2.8125,2.6922,2.661,2.7465,2.6751,2.6672,2.723,2.6831,2.6068,2.4959,2.4601,2.4039,2.3301,2.3536,2.334,2.2835,2.2835,2.2632,2.231,2.231,2.231,2.231,2.231,2.231,2.2338,2.2463,2.2807,2.331,1.1102,1.1162,1.121,1.0976,1.1321,1.1354,1.0701,1.1199,1.1636,1.1811,1.207,1.2421,1.2968,1.3379,1.3473,1.3074,1.3142,1.3406,1.3941,1.4519,1.5022,1.5437,1.5536,1.5499,1.532,1.4318,1.4097,1.4698,1.4606,1.4606,1.4698,1.4698,1.456,1.4365,1.3852,1.3521,1.3178,1.1408,1.0618,1.0458,0.8501,0.7132,0.6212,0.5292,0.8057,1.2426,1.2321,1.6763,2.2659,2.2731,2.3257,2.3819,2.3676,2.4692,2.6064,2.6352,2.7196,2.8032,2.816,2.7441,2.6714,2.6916,2.6204,2.5363,2.509,2.5052,2.4986,2.4568,2.4004,2.3404,2.2797,2.2668,2.2811,2.3306,2.4009,2.4734,2.5488,2.5134,2.4878,2.5077,2.4638,2.4819,2.6163,2.6871,2.7763,2.9023,2.894,2.8951,2.9282,2.8174,2.807,2.9266,2.8548,2.8198,2.8353,2.8316,2.7645,2.6445,2.6267,2.548,2.4197,2.4813,2.4534,2.3579,2.3579,2.3173,2.2496,2.2496,2.2412,2.231,2.231,2.231,2.231,2.2349,2.2721,2.3305,1.1025,1.084,1.0697,1.0681,1.0685,1.0701,1.0624,1.0694,1.0996,1.168,1.1578,1.197,1.3364,1.3949,1.4139,1.3697,1.415,1.4516,1.4553,1.5163,1.5298,1.4835,1.5309,1.5129,1.405,1.3862,1.4097,1.4698,1.419,1.419,1.4698,1.4698,1.4122,1.3052,1.2966,1.2288,1.1157,1.0312,0.9909,0.9806,0.8296,0.8447,0.9401,0.7782,1.0736,1.5681,1.5314,1.9519,2.5371,2.5933,2.6518,2.6976,2.6829,2.7199,2.7804,2.8463,2.9158,2.9737,3.0043,2.8986,2.7755,2.7689,2.6441,2.5134,2.4765,2.4898,2.4998,2.4579,2.4208,2.3759,2.3158,2.3629,2.4015,2.3771,2.5234,2.6233,2.5674,2.6109,2.6338,2.5984,2.6393,2.6924,2.7409,2.8437,2.9094,2.918,2.9528,2.9851,3.012,2.9569,2.9508,3.0112,2.9991,2.9862,2.9722,2.95,2.8852,2.7844,2.8305,2.7387,2.5288,2.516,2.4809,2.4371,2.4371,2.3917,2.3241,2.3241,2.2885,2.231,2.231,2.231,2.2321,2.2563,2.2873,2.3212,1.0973,1.0909,1.0841,1.0841,1.0701,1.0624,1.0624,1.0624,1.1045,1.2304,1.2362,1.2764,1.4146,1.4643,1.4844,1.4766,1.5009,1.5153,1.5217,1.5469,1.5492,1.5231,1.5141,1.4687,1.3815,1.3467,1.342,1.3705,1.342,1.342,1.3705,1.3705,1.315,1.2248,1.2248,1.1904,1.1316,1.0669,1.0559,1.0813,0.9835,1.0072,1.0938,1.0185,1.2376,1.6078,1.8028,2.136,2.5013,2.6145,2.7113,2.7885,2.8255,2.8543,2.8882,2.9433,2.9842,3.0029,2.9647,2.8691,2.7735,2.7522,2.6211,2.5024,2.5181,2.4979,2.4716,2.4545,2.4228,2.4098,2.4406,2.4629,2.5089,2.5994,2.6804,2.7404,2.7675,2.7518,2.7149,2.6618,2.6933,2.7714,2.8965,2.9709,3.0472,3.1328,3.1458,3.1483,3.1354,3.0859,3.0881,3.1564,3.1066,3.1071,3.1672,3.0787,3.0055,2.9488,2.9082,2.7937,2.6189,2.6521,2.6103,2.5101,2.5101,2.4564,2.3648,2.3481,2.3034,2.25,2.2377,2.231,2.2321,2.2599,2.2797,2.2947]},{"header":{"parameterUnit":"m.s-1","parameterCategory":1,"la1":30.6,"la2":28.766,"lo1":-90.7593,"lo2":-88.6598,"dy":0.0162,"dx":0.0183,"nx":116,"ny":114,"refTime":"2023-05-22T12:00:00:Z","depth":0,"parameterNumber":3,"parameterNumberName":"V-component_of_WINDS"},"data":[0.0,0.0,0.0,0.0,0.0,0.0,0.0,0.0,0.0,0.0,0.0,0.0,0.0,0.0,0.0,0.0,0.0,0.0,0.0,0.0,0.0,0.0,0.0,0.0,0.0,0.0,0.0,0.0,0.0,0.0,0.0,0.0,0.0,0.0,0.0,0.0,0.0,0.0,0.0,0.0,0.0,0.0,0.0,0.0,0.0,0.0,0.0,0.0,0.0,0.0,0.0,0.0,0.0,0.0,0.0,0.0,0.0,0.0,0.0,0.0,0.0,0.0,0.0,0.0,0.0,0.0,0.0,0.0,0.0,0.0,0.0,0.0,0.0,0.0,0.0,0.0,0.0,0.0,0.0,0.0,0.0,0.0,0.0,0.0,0.0,0.0,0.0,0.0,0.0,0.0,0.0,0.0,0.0,0.0,0.0,0.0,0.0,0.0,0.0,0.0,0.0,0.0,0.0,0.0,0.0,0.0,0.0,0.0,0.0,0.0,0.0,0.0,0.0,0.0,0.0,0.0,0.0,0.0,0.0,0.0,0.0,0.0,0.0,0.0,0.0,0.0,0.0,0.0,0.0,0.0,0.0,0.0,0.0,0.0,0.0,0.0,0.0,0.0,0.0,0.0,0.0,0.0,0.0,0.0,0.0,0.0,0.0,0.0,0.0,0.0,0.0,0.0,0.0,0.0,0.0,0.0,0.0,0.0,0.0,0.0,0.0,0.0,0.0,0.0,0.0,0.0,0.0,0.0,0.0,0.0,0.0,0.0,0.0,0.0,0.0,0.0,0.0,0.0,0.0,0.0,0.0,0.0,0.0,0.0,0.0,0.0,0.0,0.0,0.0,0.0,0.0,0.0,0.0,0.0,0.0,0.0,0.0,0.0,0.0,0.0,0.0,0.0,0.0,0.0,0.0,0.0,0.0,0.0,0.0,0.0,0.0,0.0,0.0,0.0,0.0,0.0,0.0,0.0,0.0,0.0,0.0,0.0,0.0,0.0,0.0,0.0,0.0,0.0,0.0,0.0,0.0,0.0,0.0,0.0,0.0,0.0,0.0,0.0,0.0,0.0,0.0,0.0,0.0,0.0,0.0,0.0,0.0,0.0,0.0,0.0,0.0,0.0,0.0,0.0,0.0,0.0,0.0,0.0,0.0,0.0,0.0,0.0,0.0,0.0,0.0,0.0,0.0,0.0,0.0,0.0,0.0,0.0,0.0,0.0,0.0,0.0,0.0,0.0,0.0,0.0,0.0,0.0,0.0,0.0,0.0,0.0,0.0,0.0,0.0,0.0,0.0,0.0,0.0,0.0,0.0,0.0,0.0,0.0,0.0,0.0,0.0,0.0,0.0,0.0,0.0,0.0,0.0,0.0,0.0,0.0,0.0,0.0,0.0,0.0,0.0,0.0,0.0,0.0,0.0,0.0,0.0,0.0,0.0,0.0,0.0,0.0,0.0,0.0,0.0,0.0,0.0,0.0,0.0,0.0,0.0,0.0,0.0,0.0,0.0,0.0,0.0,0.0,0.0,0.0,0.0,0.0,0.0,0.0,0.0,0.0,0.0,0.0,0.0,0.0,0.0,0.0,0.0,0.0,0.0,0.0,0.0,0.0,0.0,0.0,0.0,0.0,0.0,0.0,0.0,0.0,0.0,0.0,0.0,0.0,0.0,0.0,0.0,0.0,0.0,0.0,0.0,0.0,0.0,0.0,0.0,0.0,0.0,0.0,0.0,0.0,0.0,0.0,0.0,0.0,0.0,0.0,0.0,0.0,0.0,0.0,0.0,0.0,0.0,0.0,0.0,0.0,0.0,0.0,0.0,0.0,0.0,0.0,0.0,0.0,0.0,0.0,0.0,0.0,0.0,0.0,0.0,0.0,0.0,0.0,0.0,0.0,0.0,0.0,0.0,0.0,0.0,0.0,0.0,0.0,0.0,0.0,0.0,0.0,0.0,0.0,0.0,0.0,0.0,0.0,0.0,0.0,0.0,0.0,0.0,0.0,0.0,0.0,0.0,0.0,0.0,0.0,0.0,0.0,0.0,0.0,0.0,0.0,0.0,0.0,0.0,0.0,0.0,0.0,0.0,0.0,0.0,0.0,0.0,0.0,0.0,0.0,0.0,0.0,0.0,0.0,0.0,0.0,0.0,0.0,0.0,0.0,0.0,0.0,0.0,0.0,0.0,0.0,0.0,0.0,0.0,0.0,0.0,0.0,0.0,0.0,0.0,0.0,0.0,0.0,0.0,0.0,0.0,0.0,0.0,0.0,0.0,0.0,0.0,0.0,0.0,0.0,0.0,0.0,0.0,0.0,0.0,0.0,0.0,0.0,0.0,0.0,0.0,0.0,0.0,0.0,0.0,0.0,0.0,0.0,0.0,0.0,0.0,0.0,0.0,0.0,0.0,0.0,0.0,0.0,0.0,0.0,0.0,0.0,0.0,0.0,0.0,0.0,0.0,0.0,0.0,0.0,0.0,0.0,0.0,0.0,0.0,0.0,0.0,0.0,0.0,0.0,0.0,0.0,0.0,0.0,0.0,0.0,0.0,0.0,0.0,0.0,0.0,0.0,0.0,0.0,0.0,0.0,0.0,0.0,0.0,0.0,0.0,0.0,0.0,0.0,0.0,0.0,0.0,0.0,0.0,0.0,0.0,0.0,0.0,0.0,0.0,0.0,0.0,0.0,0.0,0.0,0.0,0.0,0.0,0.0,0.0,0.0,0.0,0.0,0.0,0.0,0.0,0.0,0.0,0.0,0.0,0.0,0.0,0.0,0.0,0.0,0.0,0.0,0.0,0.0,0.0,0.0,0.0,0.0,0.0,0.0,0.0,0.0,0.0,0.0,0.0,0.0,0.0,0.0,0.0,0.0,0.0,0.0,0.0,0.0,0.0,0.0,0.0,0.0,0.0,0.0,0.0,0.0,0.0,0.0,0.0,0.0,0.0,0.0,0.0,0.0,0.0,0.0,0.0,0.0,0.0,0.0,0.0,0.0,0.0,0.0,0.0,0.0,0.0,0.0,0.0,0.0,0.0,0.0,0.0,0.0,0.0,0.0,0.0,0.0,0.0,0.0,0.0,0.0,0.0,0.0,0.0,0.0,0.0,0.0,0.0,0.0,0.0,0.0,0.0,0.0,0.0,0.0,0.0,0.0,0.0,0.0,0.0,0.0,0.0,0.0,0.0,0.0,0.0,0.0,0.0,0.0,0.0,0.0,0.0,0.0,0.0,0.0,0.0,0.0,0.0,0.0,0.0,0.0,0.0,0.0,0.0,0.0,0.0,0.0,0.0,0.0,0.0,0.0,0.0,0.0,0.0,0.0,0.0,0.0,0.0,0.0,0.0,0.0,0.0,0.0,0.0,0.0,0.0,0.0,0.0,0.0,0.0,0.0,0.0,0.0,0.0,0.0,0.0,0.0,0.0,0.0,0.0,0.0,0.0,0.0,0.0,0.0,0.0,0.0,0.0,0.0,0.0,0.0,0.0,0.0,0.0,0.0,0.0,0.0,0.0,0.0,0.0,0.0,0.0,0.0,0.0,0.0,0.0,0.0,0.0,0.0,0.0,0.0,0.0,0.0,0.0,0.0,0.0,0.0,0.0,0.0,0.0,0.0,0.0,0.0,0.0,0.0,0.0,0.0,0.0,0.0,0.0,0.0,0.0,0.0,0.0,0.0,0.0,0.0,0.0,0.0,0.0,0.0,0.0,0.0,0.0,0.0,0.0,0.0,0.0,0.0,0.0,0.0,0.0,0.0,0.0,0.0,0.0,0.0,0.0,0.0,0.0,0.0,0.0,0.0,0.0,0.0,0.0,0.0,0.0,0.0,0.0,0.0,0.0,0.0,0.0,0.0,0.0,0.0,0.0,0.0,0.0,0.0,0.0,0.0,0.0,0.0,0.0,0.0,0.0,0.0,0.0,0.0,0.0,0.0,0.0,0.0,0.0,0.0,0.0,0.0,0.0,0.0,0.0,0.0,0.0,0.0,0.0,0.0,0.0,0.0,0.0,0.0,0.0,0.0,0.0,0.0,0.0,0.0,0.0,0.0,0.0,0.0,0.0,0.0,0.0,0.0,0.0,0.0,0.0,0.0,0.0,0.0,0.0,0.0,0.0,0.0,0.0,0.0,0.0,0.0,0.0,0.0,0.0,0.0,0.0,0.0,0.0,0.0,0.0,0.0,0.0,0.0,0.0,0.0,0.0,0.0,0.0,0.0,0.0,0.0,0.0,0.0,0.0,0.0,0.0,0.0,0.0,0.0,0.0,0.0,0.0,0.0,0.0,0.0,0.0,0.0,0.0,0.0,0.0,0.0,0.0,0.0,0.0,0.0,0.0,0.0,0.0,0.0,0.0,0.0,0.0,0.0,0.0,0.0,0.0,0.0,0.0,0.0,0.0,0.0,0.0,0.0,0.0,0.0,0.0,0.0,0.0,0.0,0.0,0.0,0.0,0.0,0.0,0.0,0.0,0.0,0.0,0.0,0.0,0.0,0.0,0.0,0.0,0.0,0.0,0.0,0.0,0.0,0.0,0.0,0.0,0.0,0.0,0.0,0.0,0.0,0.0,0.0,0.0,0.0,0.0,0.0,0.0,0.0,0.0,0.0,0.0,0.0,0.0,0.0,0.0,0.0,0.0,0.0,0.0,0.0,0.0,0.0,0.0,0.0,0.0,0.0,0.0,0.0,0.0,0.0,0.0,0.0,0.0,0.0,0.0,0.0,0.0,0.0,0.0,0.0,0.0,0.0,0.0,0.0,0.0,0.0,0.0,0.0,0.0,0.0,0.0,0.0,0.0,0.0,0.0,0.0,0.0,0.0,0.0,0.0,0.0,0.0,0.0,0.0,0.0,0.0,0.0,0.0,0.0,0.0,0.0,0.0,0.0,0.0,0.0,0.0,0.0,0.0,0.0,0.0,0.0,0.0,0.0,0.0,0.0,0.0,0.0,0.0,0.0,0.0,0.0,0.0,0.0,0.0,0.0,0.0,0.0,0.0,0.0,0.0,0.0,0.0,0.0,0.0,0.0,0.0,0.0,0.0,0.0,0.0,0.0,0.0,0.0,0.0,0.0,0.0,0.0,0.0,0.0,0.0,0.0,0.0,0.0,0.0,0.0,0.0,0.0,0.0,0.0,0.0,0.0,0.0,0.0,0.0,0.0,0.0,0.0,0.0,0.0,0.0,0.0,0.0,0.0,0.0,0.0,0.0,0.0,0.0,0.0,0.0,0.0,0.0,0.0,0.0,0.0,0.0,0.0,0.0,0.0,0.0,0.0,0.0,0.0,0.0,0.0,0.0,0.0,0.0,0.0,0.0,0.0,0.0,0.0,0.0,0.0,0.0,0.0,0.0,0.0,0.0,0.0,0.0,0.0,0.0,0.0,0.0,0.0,0.0,0.0,0.0,0.0,0.0,0.0,0.0,0.0,0.0,0.0,0.0,0.0,0.0,0.0,0.0,0.0,0.0,0.0,0.0,0.0,0.0,0.0,0.0,0.0,0.0,0.0,0.0,0.0,0.0,0.0,0.0,0.0,0.0,0.0,0.0,0.0,0.0,0.0,0.0,0.0,0.0,0.0,0.0,0.0,0.0,0.0,0.0,0.0,0.0,0.0,0.0,0.0,0.0,0.0,0.0,0.0,0.0,0.0,0.0,0.0,0.0,0.0,0.0,0.0,0.0,0.0,0.0,0.0,0.0,0.0,0.0,0.0,0.0,0.0,0.0,0.0,0.0,0.0,0.0,0.0,0.0,0.0,0.0,0.0,0.0,0.0,0.0,0.0,0.0,0.0,0.0,0.0,0.0,0.0,0.0,0.0,0.0,0.0,0.0,0.0,0.0,0.0,0.0,0.0,0.0,0.0,0.0,0.0,0.0,0.0,0.0,0.0,0.0,0.0,0.0,0.0,0.0,0.0,0.0,0.0,0.0,0.0,0.0,0.0,0.0,0.0,0.0,0.0,0.0,0.0,0.0,0.0,0.0,0.0,0.0,0.0,0.0,0.0,0.0,0.0,0.0,0.0,0.0,0.0,0.0,0.0,0.0,0.0,0.0,0.0,0.0,0.0,0.0,0.0,0.0,0.0,0.0,0.0,0.0,0.0,0.0,0.0,0.0,0.0,0.0,-1.0337,-0.4372,0.0,0.0,0.0,0.0,0.0,0.0,0.0,0.0,0.0,0.0,0.0,0.0,0.0,0.0,0.0,0.0,0.0,0.0,0.0,0.0,0.0,0.0,0.0,0.0,0.0,0.0,0.0,0.0,0.0,0.0,0.0,0.0,0.0,0.0,0.0,0.0,0.0,0.0,1.7328,1.2391,0.2002,-0.5397,-0.988,-1.1558,0.0,0.0,0.0,0.0,0.0,0.0,0.0,0.0,0.0,0.0,0.0,0.0,0.0,0.0,0.0,0.0,0.0,0.0,0.0,0.0,0.0,0.0,0.0,0.0,0.0,0.0,0.0,0.0,0.0,0.0,0.0,0.0,0.0,0.0,0.0,0.0,0.0,0.0,0.0,0.0,0.0,0.0,0.0,0.0,0.0,0.0,0.0,0.0,0.0,0.0,0.0,0.0,0.0,0.0,0.0,0.0,0.0,0.0,0.0,0.0,0.0,0.0,0.0,0.0,0.0,0.0,0.0,0.0,0.0,0.0,-1.9157,-1.3107,0.0,0.0,0.0,0.0,0.0,0.0,0.0,0.0,0.0,0.0,0.0,0.0,0.0,0.0,0.0,0.0,0.0,0.0,0.0,0.0,0.0,0.0,0.0,0.0,0.0,0.0,0.0,0.0,0.0,0.0,0.0,0.0,0.0,0.0,0.0,0.0,0.0,0.0,1.5427,0.7432,-0.5641,-1.6731,-2.0747,-1.8423,-1.2947,0.0,0.0,0.0,0.0,0.0,0.0,0.0,0.0,0.0,0.0,0.0,0.0,0.0,0.0,0.0,0.0,0.0,0.0,0.0,0.0,0.0,0.0,0.0,0.0,0.0,0.0,0.0,0.0,0.0,0.0,0.0,0.0,0.0,0.0,0.0,0.0,0.0,0.0,0.0,0.0,0.0,0.0,0.0,0.0,0.0,0.0,0.0,0.0,0.0,0.0,0.0,0.0,0.0,0.0,0.0,0.0,0.0,0.0,0.0,0.0,0.0,0.0,0.0,0.6562,-0.2152,-1.1005,-2.2643,-2.9584,-3.2258,-2.8066,-2.3438,-1.8818,-1.7976,0.0,0.0,0.0,0.0,0.0,0.0,0.0,0.0,0.0,0.0,0.0,0.0,0.0,0.0,0.0,0.0,0.0,0.0,0.0,0.0,0.0,0.0,0.0,0.0,0.0,0.0,0.0,0.0,0.0,0.0,0.0,0.0,0.0,1.747,1.7914,1.8523,0.8669,-0.0144,-0.7956,-1.7587,-2.3216,-2.4976,-1.8789,-1.3155,-0.7947,0.0,0.0,0.0,0.0,0.0,0.0,0.0,0.0,0.0,0.0,0.0,0.0,0.0,0.0,0.0,0.0,0.0,0.0,0.0,0.0,0.0,0.0,0.0,0.0,0.0,0.0,0.0,0.0,0.0,0.0,0.0,0.0,0.0,0.0,0.0,0.0,0.0,0.0,0.0,0.0,0.0,-2.1127,-1.7779,0.0,0.0,0.0,0.0,0.0,0.0,0.0,0.0,0.0,0.0,0.0,0.0,0.0,2.4972,2.4355,2.4798,2.1592,1.4605,0.3462,-0.7726,-1.896,-2.991,-3.7185,-4.1092,-3.9974,0.0,-2.6719,-2.5674,0.0,0.0,0.0,0.0,0.0,0.0,0.0,0.0,0.0,0.0,0.0,0.0,0.0,0.0,0.0,0.0,0.0,0.0,0.0,0.0,0.0,0.0,0.0,0.0,0.0,0.0,0.0,0.0,0.0,0.0,0.0,0.0,0.0,0.0,1.7733,1.2429,0.3298,-0.514,-1.3026,-1.9631,-2.4198,-2.6766,-2.5249,-2.1145,-1.5027,-0.9987,0.0,0.0,0.0,0.0,0.0,0.0,0.0,0.0,0.0,0.0,0.0,0.0,0.0,0.0,0.0,0.0,0.0,0.0,0.0,0.0,0.0,0.0,0.0,0.0,0.0,0.0,0.0,0.0,0.0,0.0,0.0,0.0,0.0,0.0,0.0,0.0,0.0,0.0,0.0,-1.9899,-2.2524,-2.072,-2.0102,-1.633,0.0,0.0,0.0,0.0,0.0,0.0,0.0,0.0,0.0,1.5555,1.8965,2.1139,2.2168,2.2836,1.9462,1.1916,0.0339,-1.0676,-2.1313,-3.3158,-4.0179,-4.3003,-4.3521,-4.0868,-3.5953,-3.2338,-2.7534,-2.232,0.0,0.0,0.0,0.0,-2.069,-2.0083,0.0,0.0,0.0,0.0,0.0,0.0,0.0,0.0,0.0,0.0,0.0,0.0,0.0,0.0,0.0,0.5215,0.0,0.0,0.0,0.0,0.0,0.0,0.0,0.0,0.0,0.0,0.0,0.5939,-0.146,-0.9344,-1.7581,-2.1588,-2.491,-2.7567,-2.927,-2.7392,-2.2581,-1.7172,-1.1903,-0.6713,0.0,0.0,0.0,0.0,0.0,0.0,0.0,0.0,0.0,0.0,0.0,0.0,0.0,0.0,0.0,0.0,0.0,0.0,0.0,0.0,0.0,0.0,0.0,0.0,0.0,0.0,0.0,0.0,0.0,0.0,0.0,0.0,0.0,0.0,0.0,0.0,0.0,-2.1824,-2.4247,-2.4058,-2.7001,-2.5448,0.0,0.0,0.0,0.0,0.0,0.0,-1.3159,-0.7547,-0.0736,0.7504,1.2261,1.58,1.8164,1.9307,1.5488,0.6738,-0.346,-1.4034,-2.4855,-3.5684,-4.1487,-4.3052,-4.4249,-4.3985,-4.2408,-3.8079,-3.424,-3.0787,-2.7855,-2.5578,-2.4379,-2.8128,-2.8912,-2.7987,0.0,0.0,0.0,0.0,0.0,0.0,0.0,0.0,0.0,0.0,0.0,0.0,0.0,0.0,2.1289,1.5155,1.0001,0.389,0.0,0.0,0.0,0.0,0.0,0.0,0.0,0.0,0.0,0.1408,-0.5779,-1.3044,-2.0282,-2.2886,-2.574,-2.8627,-2.8944,-2.955,-3.0049,-2.5097,-1.9773,-1.3777,-0.392,0.0,0.0,0.0,0.0,0.0,0.0,0.0,0.0,0.0,0.0,0.0,0.0,0.0,0.0,0.0,0.0,0.0,0.0,0.0,0.0,0.0,0.0,0.0,0.0,0.0,0.0,0.0,0.0,0.0,0.0,0.0,0.0,0.0,0.0,0.0,0.0,0.0,0.0,-3.0513,-2.9711,0.0,0.0,0.0,0.0,-2.1823,-2.4573,-2.1811,-1.1746,-1.0391,-0.5355,0.4603,0.7729,1.0341,1.2602,1.4622,0.9762,-0.1831,-0.8698,-1.9206,-3.2816,-3.856,-4.1723,-4.2747,-4.3531,-4.3795,-4.3653,-4.2594,-4.0024,-3.6594,-3.5588,-3.3473,-3.1086,-3.1903,-3.2331,-3.2365,0.0,0.0,0.0,0.0,0.0,0.0,0.0,0.0,0.0,0.0,0.0,0.0,0.0,2.4941,1.7806,0.9452,0.2544,0.005,0.3454,0.0,0.0,0.0,0.0,0.0,0.0,0.0,0.6599,-0.1197,-0.7767,-1.3945,-1.9709,-2.3702,-2.6216,-2.7465,-2.853,-2.9594,-3.0488,-2.8944,-2.6664,-2.3439,-1.5813,-1.1215,0.0,0.0,0.0,0.0,0.0,0.0,0.0,0.0,0.0,0.0,0.0,0.0,0.0,0.0,0.0,0.0,0.0,0.0,0.0,0.0,0.0,0.0,0.0,0.0,0.0,0.0,0.0,0.0,0.0,0.0,0.0,0.0,0.0,0.0,0.0,0.0,0.0,-3.0138,-3.1746,0.0,-2.8602,-2.8769,-2.8744,-2.7934,-3.0969,-3.0309,-2.4442,-2.1809,-1.6842,-0.8884,-0.2462,0.2806,0.6904,1.0143,0.6546,-0.3966,-0.9929,-1.9394,-3.1794,-3.7985,-4.1224,-4.1979,-4.2929,-4.3023,-4.2525,-4.2869,-4.2096,-4.0589,-3.8755,-3.7347,-3.6196,-3.5064,-3.5046,-3.525,0.0,0.0,0.0,0.0,0.0,0.0,0.0,0.0,0.0,0.0,0.0,3.1266,3.1036,2.6779,1.8584,0.5202,-0.4045,-0.6079,0.1162,0.0,0.0,0.0,2.4521,0.0,0.0,1.029,0.5247,-0.0778,-0.7883,-1.4042,-1.9405,-2.348,-2.6004,-2.7163,-2.8429,-2.9339,-2.9933,-3.0155,-3.0024,-2.9249,-2.4941,-2.1584,-1.8585,0.0,0.0,0.0,0.0,0.0,0.0,0.0,0.0,0.0,0.0,0.0,0.0,0.0,0.0,0.0,0.0,0.0,0.0,0.0,0.0,0.0,0.0,0.0,0.0,0.0,0.0,0.0,0.0,0.0,0.0,0.0,0.0,0.0,0.0,-2.5876,-2.8161,-2.8732,-3.1725,-3.2676,-2.9969,-3.1468,-3.2343,-3.1772,-3.3323,-3.3562,-3.1792,-2.8494,-2.3884,-1.7681,-1.0154,-0.374,0.1432,0.499,0.1403,-0.9167,-1.313,-2.1627,-3.392,-3.8272,-4.0387,-4.0703,-4.1815,-4.1989,-4.1508,-4.2146,-4.2464,-4.2386,-4.0695,-3.9816,-3.9199,-3.6996,-3.6419,-3.6092,0.0,0.0,0.0,0.0,0.0,0.0,0.0,0.0,0.0,0.0,2.8414,3.2814,3.229,3.2027,2.3973,0.4261,-0.7539,-1.3097,-1.1303,-1.8558,0.0,0.0,0.0,0.0,0.9024,0.6581,0.4432,0.2547,-0.613,-1.3465,-1.9441,-2.2267,-2.5067,-2.7763,-2.8524,-2.8906,-2.9012,-2.8967,-2.9699,-3.083,-3.0186,-2.8703,-2.6428,0.0,0.0,0.0,0.0,0.0,0.0,0.0,0.0,0.0,0.0,0.0,0.0,0.0,0.0,0.0,0.0,0.0,0.0,0.0,0.0,0.0,0.0,0.0,0.0,0.0,0.0,0.0,0.0,0.0,0.0,0.0,0.0,0.0,-2.0898,-2.504,-2.7771,-2.6945,-2.9644,-3.1131,-2.9843,-2.9589,-3.0431,-3.262,-3.132,-3.0967,-3.2189,-2.9479,-2.5636,-2.0688,-1.4674,-0.8968,-0.368,-0.0917,-0.5659,-1.7787,-1.855,-2.6202,-3.9618,-3.9548,-3.928,-3.8934,-4.0089,-4.0654,-4.0688,-4.0719,-4.1238,-4.1952,-4.1601,-4.1019,-4.0063,-3.7627,-3.6358,-3.4739,0.0,0.0,0.0,0.0,0.0,0.0,0.0,0.0,0.0,0.0,2.7697,3.0049,3.2441,2.9569,2.266,1.072,0.3844,0.0672,0.1905,0.0,0.0,0.0,0.0,0.0,1.0163,0.7021,0.3926,0.0984,-0.6007,-1.1877,-1.6637,-2.1375,-2.3686,-2.3891,-2.5156,-2.6947,-2.8943,-2.8071,-2.8798,-3.0552,-3.0602,-3.0279,-2.9455,0.0,0.0,0.0,0.0,0.0,0.0,0.0,0.0,0.0,0.0,0.0,0.0,0.0,0.0,0.0,0.0,0.0,0.0,0.0,0.0,0.0,0.0,0.0,0.0,0.0,0.0,0.0,0.0,0.0,0.0,0.0,-1.9606,-2.1968,-2.2706,-2.5652,-2.7582,-2.7248,-2.9637,-3.1162,-3.0842,-3.1378,-3.2011,-3.2626,-3.226,-3.1843,-3.1529,-2.9183,-2.6405,-2.3083,-1.7239,-1.2338,-0.8669,-0.567,-0.8618,-1.7484,-1.8917,-2.535,-3.5994,-3.688,-3.7553,-3.8061,-3.8324,-3.8459,-3.852,-3.8941,-3.9276,-3.9582,-4.0545,-4.0283,-3.9204,-3.7648,-3.4666,-3.061,0.0,0.0,0.0,0.0,0.0,0.0,0.0,0.0,0.0,0.0,2.753,2.9214,3.0685,2.7669,2.2179,1.3808,0.9065,0.6532,0.6531,0.0,0.0,0.0,0.0,0.8387,0.6188,0.2958,0.0057,-0.2505,-0.7992,-1.2474,-1.5959,-2.0035,-2.2102,-2.2355,-2.3181,-2.526,-2.804,-2.7977,-2.8902,-3.0426,-3.0598,-3.07,-3.0492,-2.876,-2.7547,-2.6236,-2.2103,-1.7206,-1.2439,-1.0429,0.0,0.0,0.0,0.0,0.0,0.0,0.0,0.0,0.0,0.0,0.0,0.0,0.0,0.0,0.0,0.0,0.0,0.0,0.0,0.0,0.0,0.0,0.0,0.0,-1.9062,-2.1148,-2.1651,-2.4642,-2.6913,-2.6941,-2.9158,-3.062,-3.062,-3.1119,-3.1415,-3.1415,-3.1415,-3.1193,-3.062,-2.8361,-2.6029,-2.3896,-1.8437,-1.4401,-1.2088,-1.0081,-1.253,-1.9509,-2.1094,-2.633,-3.4615,-3.5298,-3.5859,-3.6306,-3.6684,-3.6705,-3.6543,-3.75,-3.7581,-3.7273,0.0,0.0,0.0,0.0,-3.251,-2.818,0.0,0.0,0.0,0.0,0.0,0.0,0.0,0.0,0.0,0.0,0.0,2.8812,2.7627,2.6004,2.2152,1.5148,1.0736,0.7829,0.0,0.0,0.0,1.3606,0.8088,0.3408,0.0056,-0.2707,-0.5117,-0.7052,-1.0846,-1.3903,-1.6337,-1.8625,-2.0494,-2.197,-2.2191,-2.3744,-2.6287,-2.7661,-2.908,-3.0405,-3.0403,-3.0341,-3.0105,-2.9,-2.8952,-2.9474,-2.9075,-2.4879,-1.9832,-2.1722,0.0,0.0,0.0,0.0,0.0,0.0,0.0,0.0,0.0,0.0,0.0,0.0,0.0,0.0,0.0,0.0,0.0,0.0,0.0,0.0,0.0,0.0,0.0,0.0,-1.827,-1.9428,-1.9192,-2.2962,-2.5889,-2.6337,-2.8366,-2.9691,-2.9691,-2.9641,-2.9628,-2.9691,-2.9641,-2.9526,-2.9437,-2.7097,0.0,0.0,0.0,-1.5708,-1.4345,-1.3852,-1.6453,-2.2195,-2.3719,-2.7798,-3.4008,-3.4004,-3.4013,-3.4055,-3.4898,-3.4969,-3.4561,-3.5865,-3.5595,-3.4673,-3.7261,-3.7869,-3.6863,-3.3442,-3.0154,-2.6786,0.0,0.0,0.0,0.0,0.0,0.0,0.0,0.0,0.0,2.4509,2.4436,2.4208,2.4429,2.3554,2.1771,1.875,1.4607,1.2324,0.0,0.0,1.8055,1.8452,1.172,0.5483,0.0108,-0.1751,-0.5066,-1.0007,-1.0802,-1.2512,-1.5128,-1.809,-1.9645,-2.002,-2.1602,-2.2635,-2.3181,-2.3474,-2.622,-3.0404,-3.0405,-2.9954,-2.9098,-2.7656,-2.8516,-3.056,-3.141,-3.08,-2.9664,-3.006,-2.5665,-1.9507,-1.6605,-1.1958,0.0,0.0,0.0,0.0,0.0,0.0,0.0,0.0,0.0,0.0,0.0,0.0,0.0,0.0,0.0,0.0,0.0,0.0,0.0,-1.5701,-1.7608,-1.9255,-1.9422,-2.2983,-2.5675,-2.5764,-2.7723,-2.9089,-2.9089,-2.8687,-2.8612,-2.9063,-2.8687,-2.8102,-2.7227,-2.5896,-2.4514,-2.309,-1.9272,-1.6993,-1.6389,-1.5526,-1.6756,-1.9963,-2.2355,0.0,-2.9786,-3.0535,-3.1359,-3.2207,-3.2072,-3.1936,-3.1847,-3.1964,-3.1271,-3.0354,-3.2745,-3.3599,-3.3143,-3.0566,-2.8092,-2.5328,0.0,0.0,0.0,0.0,0.0,0.0,0.0,0.0,0.0,0.0,2.3996,2.2695,2.1381,2.0788,1.9737,1.8002,1.3926,0.0,0.0,2.1544,2.2966,1.9732,1.265,0.7357,0.4219,0.0697,-0.325,-0.7606,-0.9379,-1.1612,-1.4306,-1.7007,-1.9346,-2.1343,-2.199,-2.264,-2.3295,-2.3631,-2.6355,-3.0406,-3.0573,-3.0259,-2.9739,-3.0111,-3.1267,-3.2773,-3.3371,-3.3458,-3.3412,-3.444,-3.1108,-2.6148,-2.41,-1.972,-1.528,0.0,0.0,0.0,0.0,0.0,0.0,0.0,0.0,0.0,0.0,0.0,0.0,0.0,0.0,-1.7595,-1.7461,0.0,-1.4387,-1.5109,-1.6653,-1.8145,-1.8987,-2.2705,-2.5362,-2.5608,-2.7327,-2.8276,-2.7789,-2.7544,-2.7421,-2.7765,-2.747,-2.704,-2.6306,-2.5067,-2.3665,-2.2295,-1.8747,-1.7002,-1.7294,-1.6196,-1.7071,-2.0038,-2.1641,-2.4222,-2.7454,-2.7906,-2.8834,-3.0015,-3.0201,-3.0046,-2.9608,-2.8389,-2.7473,-2.6888,-2.7414,-2.8435,-2.9467,-2.7634,-2.5354,-2.258,0.0,0.0,0.0,0.0,0.0,0.0,0.0,0.0,0.0,0.0,2.4328,2.2556,1.9589,1.8526,1.7535,0.0,0.0,0.0,0.0,2.527,2.5792,2.021,1.3832,0.9765,0.8423,0.4023,-0.0159,-0.3956,-0.7435,-1.063,-1.3688,-1.5972,-1.9078,-2.2734,-2.2449,-2.3091,-2.4506,-2.5759,-2.7918,-3.0583,-3.1511,-3.1691,-3.1546,-3.294,-3.3873,-3.4465,-3.4629,-3.4428,-3.4325,-3.6123,-3.3956,-3.0283,-2.9217,-2.5925,-2.2078,-2.0129,-1.9936,0.0,0.0,0.0,0.0,0.0,0.0,0.0,0.0,0.2768,-0.0866,-1.0785,-1.3243,-1.3774,-1.4328,-1.2542,-1.185,-1.4349,-1.5784,-1.7205,-1.8869,-2.2452,-2.5057,-2.5597,-2.7037,-2.763,-2.6831,-2.6661,-2.6526,-2.6366,-2.6196,-2.5837,-2.5036,-2.3654,-2.2237,-2.0938,-1.7578,-1.6213,-1.7055,-1.6077,-1.6971,-1.9908,-2.0962,-2.2934,-2.564,-2.583,-2.6556,-2.7746,-2.8362,-2.8106,-2.7116,-2.5174,-2.4094,-2.362,-2.2504,-2.3528,-2.5384,-2.4623,-2.2623,-1.9795,0.0,0.0,0.0,0.0,0.0,0.0,0.0,0.0,0.0,0.0,0.0,0.0,0.0,0.0,0.0,0.0,0.0,0.0,2.4667,2.5368,2.4599,2.2079,1.8236,1.3859,0.8845,0.8132,0.4447,-0.2436,-0.547,-0.9003,-1.3033,-1.5318,-1.8098,-2.12,-2.1963,-2.3364,-2.5391,-2.8521,-3.0217,-3.1106,-3.4196,-3.522,-3.4742,-3.2957,-3.281,-3.3649,-3.4504,-3.4372,-3.3965,-3.4788,-3.2307,-2.8426,-2.6034,-2.4085,-2.2309,-2.0427,-2.1877,-2.3271,-1.9521,-0.7852,0.3677,0.5354,1.3021,1.6183,0.0,-0.1349,-0.3032,-1.2092,-1.3579,-1.3427,-1.384,-1.1612,-1.0581,-1.3136,-1.542,-1.7621,-1.98,-2.2626,-2.4802,-2.5761,-2.6748,-2.7369,-2.7226,-2.6776,-2.6198,-2.5444,-2.4847,-2.3642,-2.1495,-2.0339,-1.935,-1.836,-1.5881,-1.4659,-1.4741,-1.5122,-1.5807,-1.688,-1.9467,-2.1658,-2.339,-2.4168,-2.498,-2.5741,-2.5811,-2.5009,-2.3515,-2.2468,-2.1225,-1.9879,-1.9727,-1.9912,-2.0353,-2.1575,-2.0688,-1.8311,0.0,0.0,0.0,0.0,0.0,0.0,0.0,0.0,0.0,0.0,0.0,0.0,0.0,0.0,0.0,0.0,0.0,0.0,2.4976,2.5376,2.4312,2.1587,2.0605,1.7963,1.337,1.3283,1.0289,0.4205,-0.3049,-0.905,-1.3758,-1.5999,-1.9226,-2.3137,-2.3887,-2.4536,-2.531,-2.9082,-3.1917,-3.3999,-3.5421,-3.5308,-3.4082,-3.2317,-3.1554,-3.1464,-3.1735,-3.3115,0.0,-2.4894,-1.8091,-1.2156,-0.5997,-0.7304,-1.1065,-1.0589,-1.464,-1.7997,-1.2222,-0.2838,0.671,1.2524,1.606,1.556,0.5715,0.3877,0.1308,-0.889,-0.9771,-0.8721,-0.8949,-0.7549,-0.733,-1.0594,-1.347,-1.6485,-1.9916,-2.2859,-2.5207,-2.6996,-2.7776,-2.7699,-2.6413,-2.5286,-2.4413,-2.4062,-2.236,-2.0807,-1.9445,-1.8379,-1.7195,-1.5843,-1.4291,-1.3801,-1.4351,-1.4473,-1.5349,-1.6988,-1.8633,-2.0477,-2.2384,-2.2713,-2.3372,-2.4255,-2.4243,-2.3154,-2.1314,-2.0323,-1.9244,-1.8243,-1.8429,-1.8368,-1.8375,-1.9792,-1.8818,-1.6519,0.0,0.0,0.0,0.0,0.0,0.0,0.0,0.0,0.0,0.0,0.0,0.0,0.0,0.0,0.0,0.0,0.0,0.0,0.0,2.4856,2.4311,2.2255,2.2814,2.1873,1.9111,1.9034,1.7197,1.345,0.5346,-0.2646,-1.0478,-1.6222,-2.0914,-2.462,-2.5941,-2.629,-2.6126,-3.0367,-3.3595,-3.5868,-3.5859,-3.4925,-3.3407,-3.2606,-3.0513,-2.8198,-2.9589,-3.0185,-2.8294,-1.488,-0.663,-0.0709,0.6577,0.4525,-0.0477,-0.014,-0.4443,-0.8179,-0.2941,0.3706,1.1331,2.0524,2.1712,1.9278,1.4027,1.1972,0.8331,-0.1834,-0.2734,-0.1829,-0.2302,-0.1909,-0.2872,-0.6987,-1.0845,-1.5021,-1.978,-2.3197,-2.606,-2.8405,-2.9048,-2.8634,-2.6862,-2.5162,-2.375,-2.2678,-2.0593,-1.8636,-1.7022,-1.6206,-1.5027,-1.3611,-1.2893,-1.2833,-1.3486,-1.3693,-1.4652,-1.6523,-1.7594,-1.926,-2.1342,-2.1786,-2.2412,-2.3102,-2.2743,-2.1418,-1.947,-1.8518,-1.7521,-1.6703,-1.7159,-1.7187,-1.711,-1.8208,-1.7229,-1.5151,0.0,0.0,0.0,0.0,0.0,0.0,0.0,0.0,0.0,0.0,0.0,0.0,0.0,0.0,1.7661,2.0751,0.0,0.0,0.0,2.3553,2.4385,2.5313,2.54,2.541,2.5425,2.5425,2.5342,2.5187,2.2654,1.3912,-0.075,-1.5347,-2.29,-2.4344,-2.7497,-2.8641,-2.8512,-3.3318,-3.5431,-3.5514,-3.5506,-3.4838,-3.3879,-3.4538,-2.9905,-2.3721,-2.9134,-2.5167,-1.6029,-0.7163,-0.2951,-0.0788,0.2864,0.4631,0.5847,0.8441,0.7522,0.5738,0.6144,1.225,2.0164,2.7095,3.111,3.1715,2.5438,2.1807,1.7475,0.9574,0.7753,0.7108,0.5791,0.5045,0.2969,-0.2129,-0.767,-1.3441,-1.9633,-2.3837,-2.7227,-2.9904,-3.0455,-3.0352,-2.9559,-2.7771,-2.5136,-2.1441,-2.0151,-1.774,-1.3746,-1.321,-1.2639,-1.1696,-1.1533,-1.1491,-1.1491,-1.2436,-1.3377,-1.423,-1.598,-1.7978,-1.9986,-2.1593,-2.2322,-2.2272,-2.1022,-1.9551,-1.793,-1.7153,-1.6021,-1.4849,-1.537,-1.5713,-1.5993,-1.6574,-1.5965,-1.4684,0.0,0.0,0.0,0.0,0.0,0.0,0.0,0.0,0.0,0.0,0.0,0.0,0.0,0.0,0.0,0.0,1.9597,2.0855,0.0,2.1857,2.2411,2.3403,2.4222,2.4647,2.4693,2.2735,2.1023,1.9601,1.721,1.0552,-0.0223,-0.9963,-1.6951,-2.1409,-2.418,-2.6672,-2.8866,-3.0483,-3.2423,-3.4287,-3.3088,-3.2438,-3.1941,-3.0573,-2.7867,-2.5201,0.0,-1.9795,-0.6526,0.2501,1.0709,1.7319,1.8479,1.7929,1.6178,1.2935,1.3946,1.6175,1.641,2.134,2.7464,3.1905,3.3958,3.3223,2.6882,2.4553,2.1612,1.416,1.1511,1.0483,1.0316,0.7135,0.373,0.1276,-0.4591,-1.1651,-1.9785,-2.5175,-2.8856,-3.0474,-3.1334,-3.0672,-2.7712,-2.5805,-2.351,-2.0551,-1.7054,-1.3889,-1.1312,-1.0337,-0.9667,-0.9228,-0.9712,-0.9993,-0.9993,-1.1981,-1.3243,-1.3791,-1.7252,-1.9219,-1.9963,-2.2048,-2.2287,-2.101,-2.0177,-1.8442,-1.6167,-1.5708,-1.4926,-1.4038,-1.5074,-1.5378,-1.5314,-1.6019,-1.54,-1.406,0.0,0.0,0.0,0.0,0.0,0.0,0.0,0.0,0.0,0.0,0.0,0.0,0.0,0.0,0.0,0.0,0.0,1.9922,2.1176,0.0,2.1582,2.2331,2.3109,2.3223,2.2617,1.9948,1.7471,1.5207,1.268,0.7498,-0.0144,-0.6018,-1.1532,-1.6642,-2.0083,-2.358,-2.6918,-2.6891,-2.9199,-3.2673,-3.0399,-2.9033,-2.7953,-2.4518,-2.1319,0.0,-1.6458,-0.8811,0.1899,1.174,1.9302,2.4804,2.6043,2.5685,2.4114,2.0481,2.1737,2.4047,2.2768,2.6132,3.0799,3.4001,3.4975,3.3713,2.8111,2.5585,2.2766,1.6937,1.3987,1.2772,1.383,1.0774,0.758,0.6121,-0.0076,-0.8081,-1.757,-2.3433,-2.7359,-2.905,-2.9899,-2.8693,-2.4563,-2.2059,-1.9802,-1.7637,-1.3949,-1.0853,-0.8623,-0.8025,-0.7702,-0.7507,-0.8355,-0.9005,-0.9274,-1.0892,-1.2243,-1.3418,-1.7501,-1.9385,-1.9445,-2.1531,-2.1579,-2.0056,-1.8913,-1.7108,-1.4847,-1.4083,-1.3359,-1.2788,-1.4098,-1.4523,-1.4453,-1.5346,-1.4839,-1.3672,0.0,0.0,0.0,0.0,0.0,0.0,0.0,0.0,0.0,0.0,0.0,0.0,0.0,0.0,0.0,0.0,0.0,0.0,2.132,0.0,0.0,2.2093,2.2131,2.1404,1.9723,1.7503,1.5124,1.2696,1.0067,0.5872,0.0167,-0.3433,-0.6978,-1.0538,-1.5241,-1.9308,-2.2528,-2.23,-2.5185,-2.9622,-2.6769,-2.4156,-2.1532,-1.6707,-1.0705,-0.3801,0.3653,0.712,0.9747,1.9904,2.2509,2.208,2.5426,2.7648,2.9238,3.0265,3.0397,2.9358,2.5467,2.6968,3.041,3.3626,3.4447,3.3405,2.9206,2.506,2.1225,1.8213,1.5325,1.4102,1.6567,1.614,1.4713,1.2595,0.5709,-0.28,-1.2777,-1.8574,-2.2813,-2.5633,-2.6078,-2.4554,-2.0341,-1.7005,-1.4407,-1.2713,-1.0849,-0.8559,-0.5766,-0.6095,-0.6475,-0.6527,-0.7428,-0.8275,-0.921,-0.9396,-1.0703,-1.307,-1.6726,-1.8452,-1.8566,-1.9989,-2.0261,-1.9432,-1.7333,-1.5494,-1.3936,-1.2419,-1.146,-1.1132,-1.2445,-1.3129,-1.3459,-1.44,-1.4279,-1.3459,0.0,0.0,0.0,0.0,0.0,0.0,0.0,0.0,0.0,0.0,0.0,0.0,0.0,0.0,0.0,0.0,0.0,0.0,1.7908,0.0,0.0,0.0,0.0,0.0,0.0,0.0,0.0,0.9864,0.9153,0.6902,0.3278,0.0124,-0.3301,-0.675,-0.8017,-1.1037,-1.482,-1.1398,-1.0688,-1.2074,0.0,-1.0962,-0.7555,0.0,0.0,0.4634,1.4895,1.996,2.1563,2.0304,2.2897,2.694,2.8368,2.9146,2.9585,2.9843,3.0722,3.1147,2.9122,2.8693,2.9741,3.3648,3.2581,2.9597,2.5859,2.2033,1.895,1.7699,1.491,1.4174,1.9164,2.121,2.1842,2.099,1.1375,0.1834,-0.4636,-1.1657,-1.7072,-1.9675,-2.0284,-1.894,-1.4849,-1.2344,-0.9433,-0.5911,-0.6136,-0.558,-0.3763,-0.3668,-0.3981,-0.468,-0.541,-0.6625,-0.8285,-1.0815,-1.2687,-1.3914,-1.6453,-1.798,-1.8509,-1.9468,-1.9479,-1.8703,-1.7108,-1.5225,-1.3218,-1.2197,-1.1394,-1.0832,-1.2093,-1.2611,-1.2814,-1.3876,-1.3664,-1.2752,0.0,0.0,0.0,0.0,0.0,0.0,0.0,0.0,0.0,0.0,0.0,0.0,0.0,0.0,0.0,0.0,0.0,0.0,0.0,0.0,0.0,0.0,0.0,0.0,0.0,0.0,0.0,0.0,0.0,0.0,0.4843,0.3188,0.0834,-0.1904,-0.265,-0.447,-0.6765,-0.4109,0.0,0.0,0.0,0.0,0.0,0.0,0.0,1.264,2.1799,2.7139,2.958,2.7963,2.93,3.1974,3.4091,3.36,3.2276,3.2421,3.3003,3.3437,3.267,3.2036,3.2085,3.4177,3.2409,2.8648,2.2904,1.9973,1.764,1.4684,1.2679,1.2932,1.7865,2.1303,2.416,2.6563,1.8029,0.8822,0.2165,-0.4691,-1.0196,-1.3078,-1.4101,-1.2912,-0.8659,-0.6895,-0.441,-0.0776,-0.2391,-0.3205,-0.2252,-0.2101,-0.2502,-0.3418,-0.4193,-0.5653,-0.7746,-1.0472,-1.2386,-1.3549,-1.5838,-1.7345,-1.8115,-1.8893,-1.8594,-1.7483,-1.6026,-1.43,-1.2389,-1.1593,-1.1085,-1.0944,-1.1964,-1.2489,-1.2702,-1.3525,-1.3441,-1.2852,0.0,0.0,0.0,0.0,0.0,0.0,0.0,0.0,0.0,0.0,0.0,0.0,0.0,0.0,0.0,0.0,0.0,0.0,0.0,0.0,0.0,0.0,0.0,0.0,0.0,0.7284,0.7231,0.8266,0.8017,0.7037,0.0,0.0,0.0,0.0,0.0,0.0,0.0,0.0,0.0,0.0,0.0,0.0,0.0,0.0,0.0,1.743,2.4939,3.011,3.3984,3.7503,3.7568,3.6743,4.014,3.8927,3.6207,3.5996,3.5318,3.4599,3.4392,3.4576,3.4633,3.384,3.1779,2.7666,1.9003,1.739,1.6108,1.0392,0.9501,1.094,1.5012,1.9252,2.3966,2.9467,2.3905,1.6287,0.8727,0.2252,-0.284,-0.5983,-0.7512,-0.6666,-0.273,-0.1465,0.0077,0.2621,0.0452,-0.1031,-0.0937,-0.0963,-0.1449,-0.2475,-0.3558,-0.5133,-0.7291,-0.924,-1.1027,-1.2655,-1.4877,-1.6475,-1.7423,-1.802,-1.7542,-1.6115,-1.4723,-1.3236,-1.1772,-1.0926,-1.0767,-1.1106,-1.1901,-1.2421,-1.2814,-1.3185,-1.3365,-1.3268,0.0,0.0,0.0,0.0,0.0,0.0,0.0,0.0,0.0,0.0,1.6084,1.7763,0.0,0.0,0.0,0.0,0.0,0.0,0.0,0.0,0.0,0.0,0.0,0.0,0.5365,0.5027,0.5132,0.5557,0.6714,0.6623,0.0,0.0,0.0,0.0,0.0,0.0,0.0,0.0,0.0,0.0,0.0,0.0,0.0,0.0,0.0,0.0,2.299,2.9356,3.238,3.7108,3.9139,3.9826,4.0886,4.0752,3.9609,3.6501,3.2991,2.985,2.8569,2.9719,3.0771,2.861,2.4923,1.9342,0.9897,1.0179,1.1355,0.7213,0.6684,0.8871,1.5073,2.0479,2.5023,2.806,2.4276,1.996,1.7105,0.953,0.3615,0.1672,0.0231,-0.03,0.0528,0.1409,0.2109,0.2568,0.2086,0.1505,0.0886,0.0876,0.0194,-0.1316,-0.3646,-0.5333,-0.6249,-0.8677,-1.0799,-1.2589,-1.3347,-1.4537,-1.6223,-1.6321,-1.5855,-1.4962,-1.4378,-1.3236,-1.1772,-1.0926,-1.0654,-1.0698,-1.115,-1.1534,-1.1972,-1.2378,-1.2716,-1.2978,0.0,0.0,0.0,0.0,0.0,0.0,0.0,0.0,0.839,0.9702,1.1389,1.3423,1.5968,1.5739,0.0,0.0,0.0,0.0,0.0,0.0,0.0,0.0,0.0,0.0,0.8204,0.6211,0.5365,0.5583,0.0,0.5996,0.5797,0.5545,0.5372,0.5379,0.5396,0.4411,0.2669,0.081,0.0,0.0,0.0134,0.1227,0.0,0.0,0.0,0.0,2.5133,2.8327,2.9897,3.3549,3.6204,3.8309,4.0226,4.0844,4.013,3.6554,3.4024,3.1731,2.8715,2.8178,2.7251,2.211,1.372,0.5754,0.225,0.3489,0.5272,0.4869,0.8038,1.2125,1.5998,2.1286,2.557,2.7258,2.6396,2.421,2.0472,1.5069,1.0315,0.7217,0.4928,0.3795,0.4392,0.4673,0.4959,0.5174,0.49,0.365,0.1315,0.083,-0.0123,-0.1763,-0.2975,-0.4528,-0.6435,-0.7733,-0.9622,-1.2061,-1.2705,-1.3946,-1.5521,-1.5521,-1.5026,-1.4054,-1.3473,-1.2442,-1.1156,-1.0574,-1.0479,-1.0654,-1.0682,-1.1115,-1.1782,-1.1979,-1.2423,-1.2881,0.0,0.0,0.0,0.0,0.0,0.0,0.0,0.7822,0.7269,0.6809,0.7537,0.943,1.3019,1.429,1.4846,0.0,0.0,0.0,0.0,0.0,0.0,0.0,0.0,0.0,0.0,0.0,0.0,0.5853,0.5337,0.0,0.0,0.0,0.0,0.0,0.5393,0.5386,0.5093,0.2351,0.0939,0.0,0.0,0.6961,0.8622,0.0,0.0,0.0,0.0,2.5994,2.6919,2.892,3.1116,3.3377,3.5413,3.7178,3.8076,3.5794,3.4756,3.3615,3.0197,2.8247,2.5013,1.5928,0.3457,-0.5883,-0.3358,-0.1857,0.0061,0.3565,1.0109,1.5553,1.6692,2.1094,2.5038,2.663,2.7452,2.6622,2.2987,1.9315,1.5767,1.2339,0.8793,0.6981,0.7807,0.7285,0.714,0.7595,0.6899,0.5028,0.1831,0.072,-0.0465,-0.1914,-0.2091,-0.3596,-0.6595,-0.6839,-0.8515,-1.1525,-1.2175,-1.3274,-1.4614,-1.4614,-1.3917,-1.2601,-1.2084,-1.1121,-0.9989,-0.9894,-1.0045,-1.0258,-1.0263,-1.0846,-1.169,-1.169,-1.2221,-1.2881,0.0,0.0,0.0,0.0,0.0,0.0,0.0,0.7878,0.7924,0.5801,0.5663,0.8099,1.4486,1.3933,1.3148,0.0,0.0,0.0,0.0,0.0,0.0,0.0,0.0,0.0,0.0,0.0,0.0,0.468,0.4856,0.0,0.0,0.0,0.0,0.0,0.0,0.52,0.4948,0.4948,0.0,0.0,0.0,0.0,0.0,0.0,0.0,0.0,0.0,2.0882,2.3607,2.4132,2.4496,2.4351,2.2279,2.6426,3.2305,3.3583,3.236,3.0521,3.0248,2.9497,2.5422,1.144,-0.1137,-0.9137,-0.5468,-0.4338,-0.2305,0.4034,1.0605,1.5414,1.6093,1.9021,2.2478,2.597,2.4933,2.4645,2.7488,2.2191,1.8071,1.8167,1.3119,0.9616,0.976,0.838,0.7427,0.737,0.6265,0.4952,0.3424,0.1888,0.0617,-0.0224,-0.1506,-0.3277,-0.5579,-0.6327,-0.8267,-1.1517,-1.1156,-1.161,-1.2761,-1.2761,-1.1643,-0.9762,-0.9992,-0.9282,-0.8021,-0.8813,-0.8963,-0.8863,-0.9754,-1.0644,-1.1361,-1.1361,-1.2004,-1.2881,0.0,0.0,0.0,0.0,0.0,0.0,0.8964,0.6874,0.5347,0.4834,0.4546,0.6358,1.1776,1.4415,1.6105,0.0,0.0,0.0,0.0,0.0,0.0,0.0,0.0,0.0,0.0,0.0,0.7868,0.6637,0.5516,0.0,0.0,0.0,0.0,0.0,0.0,0.5894,0.7164,0.5519,0.0,0.0,0.0,0.0,0.0,0.0,0.0,0.0,0.0,0.0,2.2761,2.1685,2.1843,2.2393,2.2114,2.4489,2.7911,3.0402,2.9438,2.7748,2.8465,2.3912,1.5195,-0.0575,-0.8218,-1.0965,-0.7777,-0.5888,-0.3184,0.2253,0.9674,1.5371,1.6009,1.9274,2.2384,2.3891,2.5256,2.6357,2.7064,2.5493,2.3331,2.0699,1.5832,1.2848,1.3189,1.1531,0.9919,0.8537,0.7444,0.6436,0.5481,0.3516,0.1664,0.0056,-0.1001,-0.2603,-0.4801,-0.5584,-0.7241,-0.9806,-0.9621,-1.0205,-1.1456,-1.1011,-1.0242,-0.924,-0.8939,-0.8305,-0.7597,-0.7763,-0.8062,-0.8372,-0.8601,-0.9637,-1.0984,-1.0984,-1.1826,-1.2881,0.0,0.0,0.0,0.0,0.0,1.0797,0.9273,0.5494,0.2883,0.2986,0.3316,0.5324,0.9881,1.3999,1.714,1.9004,0.0,0.0,0.0,0.0,0.0,0.0,0.0,0.0,0.0,0.0,0.8926,0.826,0.6189,0.5235,0.0,0.0,0.5418,0.5373,0.0,0.0,0.0,0.0,0.0,0.0,0.0,0.0,0.0,0.0,0.0,0.0,0.0,0.0,0.0,0.0,0.0,2.3544,2.4084,2.4368,2.4973,2.7317,2.6983,2.574,2.53,1.7082,0.546,-0.7709,-1.1189,-1.1002,-0.9775,-0.7567,-0.4414,0.0643,0.8473,1.4677,1.5558,1.9182,2.2198,2.2806,2.5022,2.6732,2.6894,2.7515,2.6569,2.2802,1.8965,1.6507,1.6208,1.3992,1.1736,0.9714,0.8817,0.7925,0.6966,0.5245,0.3257,0.1051,-0.0166,-0.1825,-0.4027,-0.4809,-0.6274,-0.8357,-0.8357,-0.8874,-0.9813,-0.932,-0.8758,-0.8169,-0.7583,-0.7084,-0.6724,-0.6979,-0.7335,-0.776,-0.8045,-0.9253,-1.0813,-1.0813,-1.1692,-1.2881,0.0,0.0,0.0,0.0,0.0,0.0,0.0,0.3718,0.1233,-0.0183,0.1873,0.5287,0.9913,1.2266,1.4656,1.7392,0.0,0.0,0.0,0.0,0.0,0.0,0.0,0.0,0.0,0.0,1.0444,0.8765,0.6543,0.5378,0.5367,0.5431,0.5368,0.5386,0.0,0.0,0.0,0.0,0.0,0.0,0.0,0.0,0.0,0.0,0.0,0.0,0.0,0.0,0.0,0.0,0.0,0.0,0.0,2.4725,2.3758,2.4526,2.5142,2.4696,2.0581,0.9995,-0.1174,-0.6676,-0.8219,-0.9013,-1.1329,-0.982,-0.6253,-0.0289,0.7128,1.3003,1.4615,1.8189,2.1515,2.3319,2.3472,2.4577,2.8071,2.7797,2.6626,2.5045,2.2902,2.0605,1.8227,1.4954,1.2303,1.0593,1.0053,0.919,0.7771,0.6966,0.5571,0.3346,0.1161,-0.1051,-0.3291,-0.4027,-0.5504,-0.7606,-0.7606,-0.76,-0.7659,-0.76,-0.6942,-0.5817,-0.5627,-0.521,-0.4865,-0.6463,-0.69,-0.6776,-0.8508,-0.9831,-1.0813,-1.0813,-1.1692,-1.2881,0.0,0.0,0.0,0.0,0.0,0.0,0.0,0.2477,0.125,0.3305,0.3462,0.578,1.1851,1.3779,1.5797,1.8773,0.0,0.0,0.0,0.0,0.0,0.0,0.0,0.0,0.0,0.0,1.0544,1.0001,1.0659,1.1949,1.3745,1.1293,1.0206,1.0257,0.9163,0.962,0.0,0.0,0.0,0.0,0.0,0.0,2.6038,0.0,0.0,0.0,0.0,0.0,0.0,0.0,0.0,0.0,0.0,0.0,0.0,2.3792,2.2847,2.1291,1.8536,1.314,0.5892,-0.405,-0.9874,-1.2945,-1.2042,-0.9449,-0.5431,0.0725,0.9348,1.6004,1.6854,2.0083,2.2279,2.1164,2.2413,2.498,2.9232,2.9019,2.8074,2.7069,2.4018,2.0561,1.694,1.4901,1.3277,1.1991,1.1036,1.0108,0.9183,0.8429,0.6796,0.4136,0.2377,0.0664,-0.1051,-0.1771,-0.298,-0.4674,-0.5175,-0.5662,-0.6143,-0.6166,-0.5946,-0.5571,-0.5026,-0.4709,-0.4591,-0.5087,-0.5826,-0.6701,-0.7722,-0.9232,-1.0864,-1.1316,-1.2089,-1.2881,0.0,0.0,0.0,0.0,0.0,0.0,0.0,0.1879,0.1089,0.4121,0.3087,0.5178,1.331,1.5109,1.66,1.8704,0.0,0.0,0.0,0.0,0.0,0.0,0.0,0.0,0.0,1.2282,1.1213,1.1175,1.2049,1.4288,1.7673,1.6816,1.6937,1.7806,1.5225,1.4308,0.0,0.0,0.0,0.0,0.0,0.0,2.9459,0.0,0.0,0.0,0.0,0.0,0.0,0.0,0.0,0.0,0.0,0.0,0.0,0.0,2.277,2.0724,1.7326,1.379,0.8721,-0.0759,-0.8002,-1.195,-0.892,-0.5054,-0.0542,0.5148,1.2446,1.8208,1.9536,2.2459,2.4204,2.2735,2.3763,2.5646,2.8257,2.909,2.8753,2.6989,2.4192,2.1038,1.7656,1.5942,1.4521,1.3233,1.1917,1.0864,1.021,0.9459,0.8115,0.6093,0.4078,0.2323,0.0832,-0.0166,-0.1163,-0.2043,-0.3099,-0.3649,-0.3854,-0.4149,-0.4271,-0.4216,-0.384,-0.379,0.0,-0.4283,-0.5226,-0.6501,-0.7178,-0.8648,-1.0457,-1.0845,-1.1682,-1.2684,0.0,0.0,0.0,0.0,0.0,0.0,0.0,0.0,0.0767,0.2864,0.1775,0.4406,1.3907,1.6019,1.7036,1.7724,0.0,0.0,0.0,0.0,0.0,0.0,0.0,0.0,0.0,1.3397,1.2549,1.2584,1.1763,1.3675,1.818,2.1704,2.4469,2.6221,2.1109,1.7558,0.0,0.0,0.0,0.0,0.0,0.0,0.0,0.0,0.0,0.0,0.0,0.0,0.0,0.0,0.0,0.0,0.0,0.0,0.0,0.0,0.0,0.0,0.0,1.2966,0.8322,0.2849,-0.2659,-0.5813,-0.254,0.2316,0.0,1.1976,1.6152,1.9788,2.2464,2.5177,2.7022,2.7212,2.7004,2.6675,2.6234,2.8396,2.8714,2.5147,2.3525,2.1866,1.9762,1.7677,1.584,1.431,1.2789,1.1616,1.0914,1.0214,0.9533,0.8776,0.6196,0.403,0.2432,0.0998,0.0277,0.0221,-0.1277,-0.1613,-0.0998,-0.1781,-0.2119,-0.2119,-0.2169,-0.2666,-0.3434,-0.3893,-0.4924,-0.6248,-0.6884,-0.8205,-0.9686,-0.9786,-1.084,-1.2315,0.0,0.0,0.0,0.0,0.0,0.0,0.0,0.0,0.0,0.0,0.676,0.9011,1.1287,1.5029,1.7906,0.0,0.0,0.0,0.0,0.0,0.0,0.0,0.0,0.0,0.0,1.367,1.4483,1.664,1.7983,1.9706,2.1875,2.4647,2.5212,2.3525,1.3801,1.1687,0.0,0.0,0.0,0.0,0.0,0.0,0.0,0.0,0.0,0.0,1.3162,1.4782,0.0,0.0,0.0,0.0,0.0,0.0,0.0,0.0,2.7424,2.7931,2.3999,0.0,1.2402,0.601,0.7145,0.8864,0.0,0.8024,1.2209,1.5244,1.895,2.2428,2.5106,2.73,2.8912,2.9489,2.9245,2.9406,3.0658,3.0092,2.7943,2.3503,2.269,2.1379,1.8606,1.7593,1.6356,1.4518,1.3734,1.2793,1.1616,1.1399,1.0721,0.9482,0.8833,0.7231,0.4729,0.3808,0.3094,0.2485,0.1052,0.0388,0.0554,-0.0777,-0.1332,-0.1386,-0.1949,-0.2574,-0.3159,-0.3305,-0.4403,-0.6139,-0.7241,-0.849,-0.9823,-1.0785,-1.1645,-1.2302,0.0,0.0,0.0,0.0,0.0,0.0,0.0,0.0,0.0,0.0,0.0,0.0,0.0,0.0,0.0,0.0,0.0,0.0,0.0,0.0,0.0,0.0,0.0,0.0,1.446,1.5808,1.7653,1.9908,2.2078,2.2662,2.1817,2.157,1.9148,1.4865,1.1846,0.0,0.0,0.0,0.0,0.0,2.0772,0.0,0.0,0.0,0.0,0.0,1.3362,1.4053,0.0,1.9055,2.1019,2.198,0.0,0.0,0.0,0.0,2.8501,2.8964,2.6767,2.2666,1.7572,1.1497,1.0396,1.1735,1.5294,1.8221,2.0354,2.0883,2.3198,2.552,2.6802,2.8686,2.9921,2.9619,3.0288,3.0899,3.104,2.8846,2.6253,2.3549,2.2973,2.186,1.9469,1.8336,1.7135,1.5774,1.4758,1.3899,1.3158,1.311,1.2503,1.1148,1.1148,0.9789,0.6977,0.5914,0.5325,0.5267,0.3465,0.2811,0.3085,0.1599,0.0712,0.0378,-0.0373,-0.1417,-0.2583,-0.2537,-0.3935,-0.6211,-0.6799,-0.8092,-0.9761,-1.0816,-1.1685,-1.2395,0.0,0.0,0.0,0.0,0.0,0.0,0.0,0.0,0.0,0.0,0.0,0.0,0.0,0.0,0.0,0.0,0.0,0.0,0.0,0.0,0.0,0.0,0.0,1.4562,1.5806,1.8706,2.1097,2.2902,2.4799,2.4098,2.0888,1.7395,1.2598,0.7207,1.3363,0.0,0.0,0.0,0.0,0.0,1.836,0.0,0.0,0.0,0.0,0.0,0.0,0.0,0.0,1.7568,1.9198,1.996,1.9943,0.0,0.0,0.0,0.0,0.0,2.6431,2.3976,2.079,1.7424,1.2278,1.1191,2.3261,2.678,2.7078,2.5585,2.6431,2.7464,2.7472,2.8998,2.9868,2.876,3.0467,3.1369,2.9753,2.7192,2.5244,2.4578,2.3846,2.2673,2.0932,1.9282,1.8009,1.7245,1.5802,1.4915,1.4824,1.4744,1.4226,1.311,1.311,1.1969,0.9621,0.7844,0.7295,0.7911,0.5851,0.5213,0.5766,0.4191,0.3094,0.2469,0.1525,0.0052,-0.1689,-0.1862,-0.3576,-0.6152,-0.6477,-0.784,-0.9797,-1.077,-1.1737,-1.2733,0.0,0.0,0.0,0.0,0.0,0.0,0.0,0.0,0.0,0.0,0.0,0.0,0.0,0.0,0.0,0.0,0.0,0.0,0.0,0.0,0.0,0.0,1.6325,1.6004,1.8214,2.037,2.3036,2.6181,2.652,2.5782,2.393,2.0016,1.6646,1.4038,1.7539,1.775,1.543,0.0,0.0,0.0,1.7261,0.0,0.0,0.0,0.0,0.0,0.0,0.0,0.0,1.8536,1.9708,1.9925,2.0411,0.0,0.0,0.0,0.0,0.0,2.1711,1.7805,1.5136,2.0636,2.1016,2.0063,2.0099,2.1383,2.267,2.287,2.3521,2.4558,2.6207,2.6878,2.7445,2.8289,2.9738,3.0504,2.9782,2.9306,2.8269,2.6238,2.4502,2.2745,2.0881,1.9528,1.8352,1.7267,1.6532,1.5935,1.5384,1.4937,1.4606,1.4411,1.4411,1.4204,1.3778,1.0739,0.9254,0.9364,0.7846,0.7169,0.7222,0.5175,0.4129,0.3783,0.1899,0.0546,-0.0428,-0.1961,-0.3686,-0.561,-0.7862,-0.9494,-1.077,-1.2154,-1.3048,-1.3715,0.0,0.0,0.0,0.0,0.0,0.0,0.0,0.0,0.0,0.0,0.0,0.0,0.0,0.0,0.0,0.0,0.0,0.0,0.0,0.0,0.0,2.4841,2.263,1.9967,1.6904,2.0261,2.3606,2.6852,2.7139,2.605,2.3562,1.88,1.5626,1.4083,1.6394,1.5679,1.2555,1.0797,0.0,0.0,0.0,0.0,0.0,0.0,0.0,0.0,0.0,0.0,0.0,0.0,1.866,1.8526,1.8721,0.0,0.0,0.0,0.0,0.0,1.9555,1.705,1.4919,1.7182,1.5318,1.277,1.211,1.2793,1.4325,1.7046,1.9362,2.1636,2.3918,2.6678,2.9231,3.131,3.0517,2.9518,2.9094,2.8323,2.7215,2.5693,2.4377,2.3195,2.2103,2.0873,1.9686,1.8593,1.8187,1.7704,1.6959,1.7114,1.6855,1.6083,1.6497,1.6359,1.558,1.4272,1.3016,1.1862,1.0455,0.9804,0.9745,0.7825,0.6513,0.5745,0.4145,0.2307,0.0364,-0.1407,-0.381,-0.6591,-0.8777,-1.0598,-1.2213,-1.3806,-1.5008,-1.5905,0.0,0.0,0.0,0.0,0.0,0.0,0.0,0.0,0.0,0.0,0.0,0.0,0.0,0.0,0.0,0.0,0.0,0.0,0.0,0.0,3.0111,2.9476,2.8222,2.4261,1.7161,2.0751,2.414,2.7062,2.7515,2.5654,2.16,1.6791,1.4072,1.3168,1.4451,1.344,1.0559,0.6484,0.6927,0.0,0.0,0.0,0.0,0.0,0.0,0.0,0.0,0.0,0.0,0.0,0.0,0.0,0.0,0.0,0.0,1.6931,1.7093,1.7334,1.7452,1.6038,1.4114,1.2404,0.8502,0.5299,0.6036,0.6005,0.7038,1.1559,1.4953,1.8116,2.1443,2.6252,3.0495,3.2858,3.0885,2.8998,2.89,2.7434,2.6113,2.543,2.4298,2.3473,2.3158,2.2045,2.1007,2.0097,1.9821,1.9426,1.884,1.9284,1.9045,1.7984,1.8585,1.8425,1.7326,1.763,1.6528,1.4103,1.3158,1.2607,1.2464,1.0819,0.9552,0.8491,0.6919,0.4904,0.2552,0.0085,-0.3241,-0.6948,-0.9287,-1.1858,-1.4382,-1.573,-1.6893,-1.7826,0.0,0.0,0.0,0.0,0.0,0.0,0.0,0.0,0.0,0.0,0.0,0.0,0.0,0.0,0.0,0.0,0.0,0.0,0.0,0.0,3.0514,3.0746,3.0366,2.7695,2.2453,2.3584,2.5419,2.7807,2.7975,2.4775,1.8452,1.5536,1.4159,1.4085,1.3951,1.3161,1.1578,0.549,0.5824,1.02,0.0,0.0,0.0,0.0,0.0,0.0,0.0,0.0,0.0,0.0,0.0,0.0,0.0,0.0,1.624,1.5222,1.4528,1.4075,1.3908,1.1545,0.9078,0.8646,0.756,0.6506,0.6497,0.4543,0.4083,0.8526,1.0733,1.3568,1.9087,2.443,2.8391,2.9659,2.9607,2.9575,2.9949,2.8407,2.7186,2.7043,2.4764,2.3216,2.3203,2.2399,2.1695,2.1406,2.0893,2.0686,2.0866,2.0224,1.9964,2.0147,2.0226,2.0287,2.0302,2.0332,1.8644,1.536,1.552,1.5326,1.4789,1.3584,1.2873,1.2536,0.9826,0.8459,0.7784,0.3185,-0.1063,-0.5011,-0.9157,-1.3645,-1.7838,-1.7963,-1.8284,-1.8608,0.0,0.0,0.0,0.0,0.0,0.0,0.0,0.0,0.0,0.0,0.0,0.0,0.0,0.0,0.0,0.0,0.0,0.0,0.0,0.0,2.9589,2.971,2.8671,2.6591,2.3389,2.3705,2.4976,2.7134,2.6585,2.3846,1.9078,1.4873,1.2471,1.1829,1.1744,1.0533,0.8561,0.779,0.679,0.5213,0.0953,0.0,0.0,0.0,0.0,0.0,0.0,0.0,0.0,0.0,1.8491,1.7817,1.7023,1.6797,1.6485,1.4619,1.462,1.5101,1.463,1.2604,1.0549,1.0063,0.7133,0.388,0.1936,0.1078,0.1129,0.2825,0.6418,1.2069,2.133,2.6493,2.9905,3.1529,3.0882,2.9989,2.9499,2.8355,2.7239,2.6265,2.4818,2.3867,2.3867,2.3163,2.2548,2.2204,2.2224,2.2105,2.1793,2.2013,2.2022,2.1713,2.222,2.23,2.1855,2.2134,2.1088,1.8651,1.7976,1.756,1.7352,1.5724,1.479,1.4397,1.3025,1.1817,1.0533,0.7659,0.3644,-0.1651,-1.154,-1.6544,-1.8193,-1.8204,-1.8539,-1.8945,0.0,0.0,0.0,0.0,0.0,0.0,0.0,0.0,0.0,0.0,0.0,0.0,0.0,0.0,0.0,0.0,0.0,0.0,0.0,2.8446,2.8776,2.83,2.7254,2.6039,2.4614,2.395,2.4306,2.5731,2.5687,2.4097,2.0875,1.5563,1.2113,1.0404,0.9891,0.8939,0.7794,0.9012,0.7239,0.3078,-0.2315,-0.4006,0.0,0.0,0.0,0.0,0.0,0.0,0.0,0.0,1.8801,1.8127,1.7531,1.7557,1.7476,1.5746,1.5789,1.6283,1.5605,1.3682,1.1627,1.0817,0.7412,0.3481,0.0461,-0.0472,-0.041,0.0476,0.5513,1.2572,2.1717,2.634,2.9412,3.131,3.0879,3.0015,2.9136,2.8088,2.6934,2.5646,2.4633,2.413,2.4354,2.3862,2.3406,2.3173,2.3312,2.3343,2.3052,2.3499,2.3601,2.323,2.3818,2.3905,2.3385,2.3454,2.2881,2.1683,2.0255,1.9416,1.9074,1.7811,1.7063,1.6695,1.579,1.4697,1.3428,1.114,0.6933,0.0934,-0.9246,-1.3207,-1.3385,-1.4655,-1.543,-1.5798,0.0,0.0,0.0,0.0,0.0,0.0,0.0,0.0,0.0,0.0,0.0,0.0,0.0,0.0,0.0,0.0,0.0,0.0,2.4221,2.7195,2.8293,2.6781,2.6711,2.6698,2.6687,2.4652,2.3616,2.3595,2.5669,2.5577,2.3425,1.7812,1.3433,1.0261,0.8694,0.8845,1.0226,0.8404,0.6769,0.4845,-0.0525,-0.5917,-0.9485,0.0,0.0,0.0,0.0,0.0,0.0,0.0,2.0192,2.0107,1.9577,1.9405,1.9304,1.8702,1.7852,1.6967,1.6296,1.3976,1.1425,1.0166,0.847,0.6367,0.3412,0.066,-0.0408,0.2518,0.8815,1.5039,1.9321,2.311,2.618,2.7937,2.9053,2.9529,2.9062,2.7615,2.6312,2.5597,2.4324,2.3783,2.4541,2.4357,2.4229,2.429,2.4118,2.4244,2.4771,2.454,2.4528,2.4789,2.4858,2.4946,2.508,2.4287,2.3949,2.4042,2.2324,2.0905,1.9819,1.9866,1.9909,1.9793,1.7926,1.7113,1.6832,1.3239,0.8222,0.2488,-0.0894,-0.2226,-0.2725,-0.6772,-0.8304,-0.8521,0.0,0.0,0.0,0.0,0.0,0.0,0.0,0.0,0.0,0.0,0.0,0.0,0.0,0.0,0.0,0.0,0.0,0.0,2.5238,2.5973,2.649,2.6691,2.6691,2.6368,2.5664,2.4292,2.3594,2.3615,2.4231,2.3296,2.0777,1.4785,1.003,0.648,0.538,0.5098,0.5351,0.4552,0.3195,0.1268,-0.2913,-0.6998,-0.9989,0.0,0.0,0.0,0.0,0.0,0.0,0.0,0.0,0.0,2.0146,2.0495,2.0776,1.9167,1.8885,1.8905,1.818,1.6593,1.4873,1.375,1.223,1.0384,0.822,0.5406,0.4094,0.6599,1.0921,1.5322,1.8869,2.2989,2.6452,2.8366,2.8989,2.9161,2.9017,2.7622,2.6093,2.4746,2.4242,2.4143,2.4557,2.4617,2.4582,2.4512,2.4542,2.462,2.4782,2.4728,2.487,2.5277,2.454,2.4082,2.3982,2.3357,2.272,2.2056,2.1546,2.1165,2.0902,2.0113,1.974,1.9648,1.889,1.8577,1.8428,1.6497,1.4127,1.1621,1.0749,1.0409,1.0254,0.9037,0.6239,0.2536,0.0,0.0,0.0,0.0,0.0,0.0,0.0,0.0,0.0,0.0,0.0,0.0,0.0,0.0,0.0,0.0,0.0,0.0,0.0,0.0,2.4437,2.5189,2.5786,2.5868,2.5421,2.442,2.3582,2.2832,2.1464,1.9822,1.7944,1.3584,0.9768,0.6506,0.4716,0.3204,0.1909,0.0477,-0.0118,-0.0565,-0.6865,-1.133,-1.3425,0.0,0.0,0.0,0.0,0.0,0.0,0.0,0.0,0.0,2.1308,2.1742,2.2088,2.075,2.0291,2.0039,1.9168,1.7622,1.602,1.4793,1.3576,1.2503,1.1789,0.913,0.7472,0.969,1.2075,1.4745,1.7813,2.1663,2.5068,2.7163,2.807,2.8529,2.8515,2.7121,2.5718,2.4738,2.4511,2.4553,2.4861,2.4841,2.4808,2.4875,2.4831,2.4859,2.4994,2.5059,2.4787,2.4175,2.4042,2.3737,2.3198,2.2518,2.1842,2.1154,2.08,2.0661,2.0665,1.9967,1.9583,1.9411,1.899,1.8601,1.8216,1.7727,1.6857,1.5858,1.6203,1.6217,1.5993,1.5855,1.3782,1.0673,0.0,0.0,0.0,0.0,0.0,0.0,0.0,0.0,0.0,0.0,0.0,0.0,0.0,0.0,0.0,0.0,0.0,0.0,0.0,0.0,2.2565,2.3088,2.4495,2.5382,2.5669,2.4952,2.3747,2.2024,1.8518,1.6402,1.5631,1.4111,1.1985,0.9279,0.633,0.3275,0.0224,-0.2792,-0.25,-0.0949,-1.1981,-1.6447,-1.5219,-0.4189,0.0,0.0,0.0,0.0,0.0,0.0,0.0,0.0,2.2643,2.2898,2.3165,2.2746,2.1732,2.0518,1.9353,1.752,1.5625,1.4387,1.3714,1.3659,1.4714,1.2325,1.0392,1.2085,1.2792,1.3842,1.6501,1.9735,2.2761,2.5025,2.6711,2.7721,2.7699,2.6324,2.5303,2.5329,2.5057,2.4988,2.5293,2.5052,2.5012,2.5303,2.5046,2.4996,2.531,2.5271,2.4294,2.222,2.3291,2.3436,2.2436,2.1639,2.113,2.0929,2.0132,1.9676,1.9541,1.9555,1.9405,1.9073,1.8455,1.7665,1.6846,1.7426,1.706,1.6242,1.6913,1.677,1.6151,1.592,1.5843,1.5806,0.0,0.0,0.0,0.0,0.0,0.0,0.0,0.0,0.0,0.0,0.0,0.0,0.0,0.0,0.0,0.0,0.0,0.0,0.0,0.0,2.2832,2.4046,2.5059,2.5524,2.5297,2.5889,2.5647,2.4451,2.0826,1.8557,1.758,1.6911,1.4765,1.1472,0.9559,0.6791,0.3326,0.0335,-0.0576,-0.1428,-1.7727,-1.1005,0.8095,0.2218,0.7931,0.0,0.0,0.0,0.0,0.0,0.0,0.0,2.2197,2.2635,2.3351,2.2169,2.1485,2.0748,1.9072,1.7906,1.7014,1.6359,1.7006,1.7915,1.8127,1.7052,1.5661,1.4332,1.4963,1.6031,1.6837,1.9916,2.2973,2.507,2.6394,2.7114,2.6876,2.5955,2.5336,2.5431,2.5389,2.5398,2.5519,2.5525,2.5515,2.5527,2.5422,2.5383,2.5448,2.4138,2.3169,2.2663,2.152,2.0719,2.0281,2.008,1.9881,1.9678,1.9497,1.932,1.9117,1.9237,1.8959,1.8415,1.8252,1.7633,1.6753,1.719,1.6492,1.5247,1.6428,1.62,1.5271,1.597,1.602,1.5784,0.0,0.0,0.0,0.0,0.0,0.0,0.0,0.0,0.0,0.0,0.0,0.0,0.0,0.0,0.0,0.0,0.0,0.0,0.0,0.0,0.0,2.4596,2.5196,2.5562,2.5806,2.5914,2.574,2.5207,2.245,2.0338,1.8836,1.8416,1.7191,1.5235,1.3968,1.2706,1.1109,0.5681,-0.1585,-0.9961,-1.6185,-0.6129,1.2292,0.9663,1.3185,1.9696,2.1164,0.0,0.0,0.0,0.0,0.0,0.0,0.0,2.3467,2.2634,2.187,2.1061,1.9749,1.9107,1.8832,1.9126,2.0109,2.1003,2.1003,2.0676,1.9694,1.7282,1.6351,1.6201,1.7091,1.9642,2.2303,2.4188,2.5627,2.6518,2.646,2.5815,2.539,2.5488,2.5523,2.5566,2.5644,2.5612,2.5598,2.5559,2.5527,2.5393,2.5172,2.4296,2.3288,2.2115,2.1444,2.0622,1.9613,1.9599,1.9499,1.9305,1.9305,1.9261,1.9134,1.898,1.8717,1.8391,1.8249,1.7736,1.702,1.7524,1.6967,1.5871,1.6849,1.6559,1.5619,1.6117,1.5809,1.5203,0.0,0.0,0.0,0.0,0.0,0.0,0.0,0.0,0.0,0.0,0.0,0.0,0.0,0.0,0.0,0.0,0.0,0.0,0.0,0.0,0.0,2.4905,2.5351,2.5898,2.6622,2.5933,2.5379,2.5035,2.3413,2.1787,2.0074,1.9616,1.9387,1.9331,1.8686,1.8925,1.9393,1.118,-0.1723,-1.6297,-1.1718,-0.2606,0.9011,1.5612,1.9085,2.0491,2.0969,2.1167,2.111,2.0718,0.0,0.0,0.0,0.0,2.3072,2.285,2.217,2.1334,2.0519,2.0378,2.0648,2.1679,2.2633,2.3262,2.3262,2.3068,2.2258,2.0139,1.7639,1.621,1.7274,1.9509,2.1698,2.3431,2.5014,2.6135,2.6489,2.5884,2.5447,2.5517,2.5564,2.5625,2.5673,2.5583,2.55,2.5495,2.5488,2.5292,2.486,2.4755,2.372,2.1531,2.1806,2.1213,1.9633,1.9499,1.9365,1.9261,1.9146,1.9073,1.8995,1.8681,1.8547,1.8585,1.8231,1.771,1.7186,1.7645,1.7378,1.669,1.7316,1.7028,1.6301,1.6117,1.536,1.4461,0.0,0.0,0.0,0.0,0.0,0.0,0.0,0.0,0.0,0.0,0.0,0.0,0.0,0.0,0.0,0.0,0.0,0.0,1.9924,0.0,0.0,2.5034,2.6323,2.708,2.7175,2.708,2.613,2.4315,2.3564,2.2819,2.2079,2.1509,2.1522,2.2117,2.2808,2.3129,2.2638,1.4125,0.4713,-0.4866,-0.8443,-0.2572,0.9035,1.5646,1.8124,1.8383,2.0873,2.1139,2.0289,2.0482,2.074,0.0,0.0,0.0,2.1098,2.1111,2.1295,2.129,2.0243,2.0612,2.159,2.2682,2.3603,2.4232,2.4232,2.3163,2.212,2.1716,2.0061,1.8516,1.7657,2.0108,2.2715,2.4362,2.5446,2.6392,2.7297,2.6308,2.5503,2.557,2.5598,2.5598,2.5616,2.5605,2.557,2.5507,2.5453,2.5318,2.5072,2.4356,2.3396,2.2192,2.1187,2.0307,1.9601,1.9013,1.8825,1.9035,1.8567,1.8138,1.7753,1.8095,1.8371,1.855,1.7896,1.7147,1.6442,1.6464,1.6266,1.6008,1.666,1.667,1.6188,1.5402,1.4797,1.4146,0.0,0.0,0.0,0.0,0.0,0.0,0.0,0.0,0.0,0.0,0.0,0.0,0.0,0.0,0.0,2.0648,2.0398,2.0208,2.007,2.1744,2.3335,2.4641,2.6079,2.6982,2.7286,2.6754,2.5727,2.4219,2.2966,2.2505,2.2608,2.2568,2.3164,2.4313,2.5305,2.5285,2.4058,1.6929,0.9485,0.2186,-0.1625,0.0,0.5287,1.0944,1.4737,1.7359,1.946,2.0226,2.0198,1.9753,2.0079,2.0415,1.9205,0.0,0.0,0.0,2.129,2.1553,2.1807,2.1997,2.2502,2.3956,2.4604,2.4897,2.4897,2.4581,2.4042,2.3119,2.2091,2.0827,1.9326,2.1263,2.3397,2.4158,2.5704,2.6876,2.7079,2.6599,2.6068,2.5598,2.5537,2.5547,2.5531,2.5503,2.5488,2.5453,2.5376,2.5226,2.4948,2.4575,2.3771,2.2459,2.1478,2.0535,1.9666,1.8949,1.8659,1.877,1.8528,1.8103,1.7506,1.7949,1.7785,1.7132,1.7091,1.6516,1.5692,1.5886,1.5791,1.5578,1.5987,1.592,1.5521,1.4612,1.3872,1.306,0.0,0.0,0.0,0.0,0.0,0.0,0.0,0.0,0.0,0.0,0.0,0.0,0.0,0.0,0.0,0.0,2.0017,1.9882,1.997,2.0962,2.2305,2.4076,2.5362,2.6451,2.7286,2.6421,2.5329,2.3984,2.2566,2.2151,2.2637,2.3225,2.4367,2.6084,2.6764,2.6309,2.4671,1.8921,1.2924,0.6997,0.3694,0.2314,0.2724,0.7252,1.184,1.6218,1.8526,1.9749,2.0175,1.9598,1.9838,2.0202,1.903,1.9237,0.0,0.0,0.0,2.1853,2.3091,2.328,2.3458,2.4979,2.5433,2.5551,2.5618,2.5843,2.5726,2.4566,2.3945,2.3125,2.164,2.2707,2.401,2.4424,2.6005,2.7181,2.7078,2.6718,2.6232,2.558,2.5493,2.5484,2.5488,2.5434,2.5372,2.5297,2.5245,2.5072,2.4746,2.4731,2.405,2.2556,2.1902,2.0954,1.9714,1.8915,1.8469,1.8391,1.8313,1.7875,1.7179,1.759,1.6986,1.5658,1.6089,1.5775,1.4978,1.5019,1.4964,1.4818,1.4907,1.4779,1.4464,1.3585,1.2726,1.183,0.0,0.0,0.0,0.0,0.0,0.0,0.0,0.0,0.0,0.0,0.0,0.0,2.1352,2.1391,2.1108,2.0439,2.0274,1.9883,1.9223,1.9183,2.046,2.3327,2.4361,0.0,2.7269,2.6737,2.5448,2.3366,2.2776,2.2507,2.2538,2.344,2.5089,2.7282,2.703,2.6183,2.4598,1.9679,1.48,0.984,0.479,0.2996,0.3696,0.7244,1.074,1.4366,1.9021,2.0375,2.0028,2.0609,2.0415,1.9747,1.869,1.8329,1.8405,0.0,0.0,0.0,2.3243,2.383,2.4343,2.5255,2.576,2.6158,2.6557,2.6438,2.6233,2.6101,2.5758,2.5258,2.4579,2.4371,2.465,2.5871,2.6451,2.7036,2.792,2.6618,2.5556,2.5513,2.5493,2.5488,2.5408,2.5394,2.5288,2.5038,2.5022,2.4872,2.4526,2.4528,2.3896,2.2556,2.2214,2.1299,1.9714,1.8735,1.8082,1.7856,1.7509,1.6987,1.6281,1.6678,1.6055,1.4697,1.5021,1.487,1.428,1.3337,1.3164,1.3477,1.322,1.3128,1.3006,1.213,1.1432,1.0695,0.0,0.0,0.0,0.0,0.0,0.0,0.0,0.0,0.0,0.0,0.0,0.0,0.0,2.1596,2.0955,1.9452,1.8166,1.7055,1.6101,1.6802,1.8222,2.0361,2.2194,2.4031,2.5782,2.5639,2.4812,2.3323,2.2417,2.1796,2.1445,2.2863,2.4458,2.6196,2.7655,2.7769,2.6702,2.3678,1.8478,1.1689,0.5495,0.126,-0.085,0.3912,0.7404,1.0702,1.8113,2.1341,2.1903,2.0717,2.0661,2.0854,1.9777,1.9391,1.9447,2.0292,2.1378,2.2609,2.3894,2.4171,2.4286,2.516,2.5291,2.5419,2.6193,2.6476,2.6718,2.7206,2.6908,2.6539,2.6454,2.6139,2.6097,2.6623,2.7754,2.8442,2.8086,2.7507,2.6682,2.5503,2.5379,2.5363,2.5339,2.5216,2.5105,2.501,2.493,2.4771,2.4512,2.4301,2.38,2.2999,2.1713,2.0239,1.8495,1.8112,1.7777,1.7479,1.7368,1.6799,1.5895,1.6291,1.5696,1.4342,1.4429,1.4202,1.377,1.3687,1.3386,1.3006,1.3042,1.2677,1.2013,1.1074,1.0367,0.9741,0.0,0.0,0.0,0.0,0.0,0.0,0.0,0.0,0.0,0.0,0.0,0.0,0.0,0.0,2.048,1.7758,1.5907,1.4596,1.3726,1.4359,1.5707,1.7753,1.9766,2.1873,2.4107,2.4539,2.4269,2.3355,2.2632,2.1945,2.1354,2.1868,2.3264,2.5447,2.7894,2.8577,2.78,2.5836,2.0625,1.3109,0.6678,0.1089,-0.2946,0.1491,0.4959,0.8731,1.8203,2.2608,2.3705,2.2047,2.2087,2.2649,2.1407,2.0626,2.0364,2.1471,2.2214,2.2926,2.4001,2.4288,2.4422,2.5059,2.5195,2.5368,2.6139,2.6832,2.7423,2.7973,2.7921,2.7789,2.7876,2.7616,2.7441,2.7596,2.8591,2.9136,2.8499,2.8145,2.7517,2.6323,2.6178,2.6063,2.5764,2.5551,2.531,2.4962,2.4799,2.4607,2.441,2.408,2.3518,2.27,2.1142,1.9658,1.8183,1.7929,1.7681,1.7479,1.7368,1.6881,1.6078,1.6244,1.563,1.4502,1.4469,1.4154,1.3683,1.35,1.3134,1.2657,1.2479,1.1868,1.1052,1.0244,0.964,0.8996,0.0,0.0,0.0,0.0,0.0,0.0,0.0,0.0,0.0,1.3566,0.0,0.0,0.0,0.0,0.0,1.5534,1.3782,1.2708,1.2304,1.1808,1.2821,1.5699,1.7115,1.9263,2.2305,2.3529,2.3891,2.346,2.3433,2.3027,2.2248,2.0523,2.1654,2.5156,2.7588,2.8297,2.7586,2.581,2.1019,1.4134,0.8349,0.2612,-0.2177,0.0229,0.3516,0.8275,1.909,2.3812,2.4912,2.4615,2.4839,2.5013,2.3375,2.1889,2.0973,2.2077,2.2644,2.3005,0.0,0.0,0.0,2.5039,2.5521,2.6054,2.6507,2.7509,2.8374,2.8412,2.8801,2.9062,2.8867,2.8706,2.8651,2.8782,2.887,2.8971,2.9171,2.8464,2.7939,2.792,2.7901,2.7574,2.6727,2.6443,2.5901,2.4927,2.4642,2.441,2.4209,2.3858,2.3035,2.1593,2.0542,1.9655,1.89,1.8166,1.7811,1.7794,1.7462,1.7126,1.6789,1.6448,1.5853,1.5134,1.5104,1.4701,1.4013,1.2683,1.2231,1.2283,1.1372,1.0715,1.0235,0.9677,0.9119,0.8513,0.0,0.0,0.0,0.0,0.0,0.0,0.0,0.0,1.4453,0.0,0.0,0.0,2.3017,2.0805,1.7784,1.479,1.2172,1.021,0.9097,0.8338,0.8983,1.1261,1.332,1.5905,1.9114,2.0896,2.203,2.2494,2.3178,2.1977,1.8904,1.8446,1.9537,2.2108,2.5777,2.6747,2.5662,2.6047,2.2146,1.4999,0.7257,0.0164,-0.5538,-0.3352,-0.2925,-0.1846,1.0659,1.6821,1.988,2.5214,2.7105,2.6848,2.4701,2.3328,2.2491,2.2549,2.26,2.2845,2.3692,0.0,0.0,0.0,0.0,0.0,2.6193,2.7052,2.7847,2.8415,2.9153,2.9658,2.9551,2.9018,2.8694,2.8961,2.9202,2.9295,2.9209,2.8991,2.8616,2.8045,2.802,2.7951,2.7699,2.6889,2.6252,2.599,2.5049,2.4372,2.4062,2.3361,2.2206,2.05,2.0137,1.9474,1.8409,1.8186,1.8065,1.7996,1.7732,1.7302,1.6709,1.6432,1.6052,1.558,1.4937,1.4561,1.4318,1.3278,1.2468,1.1898,1.1234,1.0667,1.0118,0.9231,0.8602,0.7946,0.0,0.0,0.0,0.0,0.0,0.0,2.3687,1.9632,1.7367,0.0,0.0,0.0,2.4714,2.1885,1.8041,1.4086,1.1335,0.877,0.6464,0.5496,0.6063,0.8508,1.0092,1.2652,1.6232,1.9041,2.1171,2.2731,2.4511,0.0,0.0,0.0,2.0677,2.2056,2.4639,2.4934,2.3474,2.2825,1.9661,1.4567,0.793,0.0877,-0.5734,-0.6478,-0.5881,-0.4272,-0.1499,0.6022,1.6152,2.5957,2.8461,2.7244,2.5787,2.4509,2.3513,2.3435,2.3259,2.3188,2.3728,2.4025,2.4315,2.4804,0.0,0.0,2.5721,2.6772,2.7744,2.8217,2.9272,2.9936,2.9324,2.8709,2.8236,2.8124,2.8389,2.8804,2.9302,2.9583,2.9574,2.9135,2.9129,2.9002,2.8676,2.7961,2.7226,2.6502,2.5647,2.4832,2.4044,2.3298,2.2233,2.0712,2.0653,2.0185,1.9161,1.8853,1.8742,1.8813,1.8082,1.7442,1.6888,1.6612,1.6148,1.5477,1.4783,1.4283,1.3868,1.3119,1.2413,1.1774,1.1479,1.0895,1.0128,0.935,0.8675,0.807,0.0,0.0,0.0,3.3897,3.2527,3.0702,2.9102,2.4866,2.1466,0.0,2.096,2.2845,2.643,2.3871,1.9594,1.3997,1.105,0.8063,0.4606,0.3387,0.3872,0.6279,0.6541,0.8546,1.2659,1.7051,0.0,0.0,0.0,0.0,0.0,0.0,0.0,0.0,2.3376,2.2511,2.1328,1.7523,1.4966,1.3085,0.8926,0.3084,-0.3766,-0.8527,-0.6744,-0.3025,-1.2719,-0.4326,1.336,2.6473,2.9191,2.6987,2.6713,2.5534,2.4265,2.4526,2.4165,2.3714,2.3753,2.4098,2.451,2.4746,2.4913,0.0,2.527,2.6587,2.7772,2.7751,2.9001,2.973,2.8474,2.7699,2.7045,2.6457,2.6661,2.7489,2.9257,3.0078,3.051,3.0606,3.0623,3.036,2.9645,2.9317,2.8495,2.6954,2.6361,2.5475,2.4082,2.348,2.2717,2.1701,2.1635,2.127,2.0547,1.9809,1.9552,1.9777,1.8444,1.7568,1.7205,1.6869,1.6145,1.5074,1.4658,1.4011,1.3141,1.2789,1.2354,1.1884,1.1811,1.1255,1.039,0.9795,0.9199,0.8553,0.0,0.0,0.0,3.3614,3.2756,3.1262,2.8383,2.752,2.5528,2.0893,2.391,2.6799,2.7564,2.4867,2.1284,1.7081,1.1584,0.7231,0.4596,0.3121,0.2065,0.1452,-0.1038,-0.0349,0.4099,1.2108,1.8981,0.0,0.0,0.0,0.0,0.0,0.0,0.0,1.9182,1.7804,2.0376,1.379,1.1041,1.06,0.5597,0.1691,-0.1596,-0.6605,-0.8903,-0.9019,-0.6049,0.092,1.0891,2.5456,2.9595,2.8504,2.7656,2.6582,2.548,2.4724,2.4132,2.3774,2.4016,2.4098,2.421,2.4678,2.4928,0.0,2.5327,2.6229,2.6961,2.6815,2.7587,2.8113,2.7462,2.5436,2.3974,2.4312,2.3914,2.4832,2.8426,2.974,3.0416,3.0654,3.0786,3.0776,3.0621,2.9879,2.9276,2.8945,2.7119,2.5449,2.4145,2.3422,2.2723,2.2028,2.1755,2.1348,2.0823,2.0085,1.9717,1.9697,1.8353,1.7557,1.7181,1.6638,1.5909,1.5074,1.4658,1.42,1.3742,1.3656,1.3148,1.2318,1.1957,1.1664,1.1394,1.0417,0.9491,0.8553,3.1302,3.3225,3.4413,0.0,0.0,3.1545,2.9165,2.8454,2.7308,2.4827,2.721,2.8667,2.7446,2.3874,1.9548,1.4516,0.959,0.48,0.024,-0.2093,-0.3465,-0.3842,-0.6208,-0.6865,-0.5632,0.0521,1.0375,0.0,0.0,0.0,0.0,0.0,0.0,2.0541,1.1993,0.9676,1.1901,0.653,0.4631,0.5045,0.3253,0.0733,-0.2404,-0.6747,-0.8804,-0.8671,-0.368,0.619,1.8151,2.7238,2.9743,2.8975,2.8487,2.7476,2.6289,2.548,2.493,2.4506,2.4261,2.4211,2.4335,2.4712,2.4898,0.0,0.0,2.5733,2.6087,2.6188,2.6869,2.7157,2.622,2.4624,2.326,2.2769,2.3055,2.41,2.643,2.8366,2.9822,3.056,3.0719,3.076,3.0793,3.0374,2.9743,2.8903,2.7258,2.5794,2.467,2.4033,2.3506,2.3066,2.2883,2.2571,2.206,2.0951,2.0283,2.0039,1.8325,1.7325,1.6938,1.6246,1.5651,1.5074,1.447,1.4084,1.3868,1.3648,1.344,1.3227,1.2663,1.2164,1.1656,1.0874,0.9888,0.8789,3.083,3.2318,3.3593,0.0,0.0,0.0,3.0139,2.8788,2.8212,2.8924,2.9818,2.9457,2.6961,2.2587,1.7337,1.1156,0.6755,0.1482,-0.5224,-0.8446,-0.9746,-0.8964,-1.0251,-1.1709,-1.3147,-1.0066,0.0048,0.0,0.0,0.0,0.0,0.0,2.0099,1.2168,0.4565,0.0643,-0.0347,-0.2129,-0.2369,-0.1428,-0.0335,-0.141,-0.3977,-0.7158,-0.774,-0.6039,-0.0843,1.1546,2.5869,2.9236,2.9894,2.9295,2.9158,2.8278,2.7148,2.634,2.585,2.5371,2.4448,2.4321,2.4495,2.4685,2.4778,2.4922,0.0,0.0,0.0,2.4733,2.5153,2.5008,2.3441,2.2527,2.1583,2.0213,2.1344,2.2601,2.3387,2.6108,2.8641,3.0339,3.0387,3.0383,3.0657,3.0846,3.0189,2.8335,2.7534,2.6554,2.5197,2.4698,2.437,2.4148,2.4098,2.3836,2.3356,2.1825,2.0813,2.0292,1.8208,1.7009,1.6633,1.5841,1.5294,1.4948,1.4106,1.3663,1.3608,1.3276,1.3444,1.3815,1.3206,1.2508,1.1815,1.1324,1.0278,0.9156,2.9943,3.2058,3.4246,3.5449,0.0,0.0,0.0,2.9182,2.9181,3.0086,3.0318,2.9462,2.6975,2.2596,1.7308,1.1115,0.4461,-0.241,-0.9438,-1.2906,-1.4287,-1.3411,-1.4241,-1.443,-1.3923,-1.1432,-0.7756,-0.2867,0.0,0.0,0.0,0.0,1.0368,0.545,-0.0345,-0.7484,-1.4887,-1.0984,-0.8443,-0.7205,-0.8516,-0.6992,-0.4153,-0.6191,-0.6367,-0.3993,0.762,1.7072,2.473,2.884,3.0312,3.0264,2.9458,2.8994,2.8471,2.6958,2.6336,2.5836,2.4561,2.4209,2.4284,2.4478,2.4549,2.4657,2.5043,0.0,2.1971,2.0822,0.0,1.9077,1.6902,0.0,0.0,1.4403,1.5476,1.7014,1.8851,2.2638,2.6531,2.9931,2.9644,2.9555,3.0514,3.1356,3.0833,2.8388,2.8743,2.7943,2.533,2.4859,2.4684,2.4703,2.4485,2.4209,2.3911,2.2152,2.0847,2.0023,1.788,1.6741,1.6503,1.5524,1.4905,1.4601,1.3544,1.289,1.2582,1.289,1.3063,1.3101,1.2711,1.2551,1.2413,1.1837,1.0685,0.9426,3.1627,3.3631,3.5274,3.5637,0.0,0.0,0.0,2.9715,2.9347,3.0271,3.2132,3.2712,3.1008,2.5545,1.8917,1.1296,-0.0244,-0.812,-1.0477,-1.2759,-1.4013,-1.3918,-1.5873,-1.6939,-1.6789,-1.6267,-1.3606,-0.8745,-0.4353,0.0,0.0,0.0,0.2325,-0.3148,-1.0298,-1.472,-1.6476,-1.3664,-1.1383,-0.9799,-0.9402,-0.8118,-0.6408,-0.7517,-0.3791,0.3131,1.2053,1.9469,2.5587,2.9119,3.0335,3.0325,3.0044,2.9368,2.8579,2.7908,2.7018,2.5963,2.4574,2.4204,2.4089,2.3584,2.4229,2.4561,2.302,1.9464,1.6278,1.5474,0.0,0.0,0.0,0.0,0.0,0.0,1.2581,1.423,1.8275,2.1124,2.4363,2.8689,2.9113,2.9245,2.9749,3.0069,2.9463,2.7535,2.8057,2.7543,2.5425,2.5212,2.5097,2.4924,2.4834,2.4619,2.4231,2.2943,2.1497,1.9918,1.8153,1.674,1.5604,1.4711,1.4212,1.4014,1.3089,1.2546,1.2391,1.2317,1.2476,1.2716,1.2229,1.2352,1.2633,1.1648,1.0704,0.9809,3.2399,3.4052,3.5039,3.4801,3.5147,0.0,0.0,3.1006,3.1154,3.1853,3.4027,3.5172,3.4353,2.9567,2.3078,1.4768,-0.006,-0.87,-0.8214,-1.1351,-1.3684,-1.461,-1.7433,-1.9321,-2.0035,-2.1196,-1.9621,-1.52,0.0,0.0,0.0,0.0,0.0,-1.281,-1.8326,-1.9294,-1.6832,-1.5619,-1.4013,-1.213,-1.0482,-0.8569,-0.6724,-0.6234,0.0061,0.9447,1.5356,2.1291,2.6754,2.9444,3.0297,3.0259,3.0468,2.9868,2.9077,2.9024,2.8261,2.6995,2.5035,2.4343,2.402,2.3289,2.3733,2.3485,2.0058,1.5174,1.098,0.9605,0.689,0.0,0.0,0.0,0.5113,0.7359,0.0,1.013,1.5672,1.8592,2.2203,2.7667,2.8964,2.9363,2.9242,2.9338,2.8656,2.6801,2.7416,2.7101,2.5305,2.5317,2.5303,2.5113,2.5166,2.5016,2.4601,2.3504,2.2042,2.0241,1.8574,1.6864,1.5133,1.4235,1.3676,1.3315,1.2403,1.198,1.1948,1.1653,1.1718,1.1901,1.1726,1.2027,1.2372,1.1613,1.0903,1.0186,3.1058,3.2144,3.2775,3.2381,3.4089,3.4365,3.0953,3.3472,3.579,3.5815,3.5636,3.5485,3.5448,3.4266,3.0559,2.3314,0.8545,-0.0898,-0.2005,-0.9452,-1.4694,-1.6829,-1.949,-2.1642,-2.3208,-2.5258,-2.6474,-2.6855,-2.6867,0.0,0.0,0.0,0.0,-2.3599,-2.171,-2.02,-1.9048,-1.8407,-1.7081,-1.5267,-1.3924,-0.9472,-0.3325,-0.0256,0.5679,1.3058,1.8094,2.3192,2.7809,2.9599,3.0259,3.0335,3.0533,3.0562,3.052,3.0388,3.0302,2.9537,2.6173,2.4739,2.4189,2.4157,2.3081,2.0807,1.6226,1.1591,0.7157,0.3372,0.1352,-0.0582,-0.3142,-0.2863,-0.2125,-0.1901,-0.0,0.0,0.0,1.4014,1.9996,2.7253,2.9333,2.9954,2.9344,2.9988,2.9298,2.6523,2.742,2.7094,2.4837,2.4979,2.5191,2.5371,2.5447,2.5369,2.5072,2.3574,2.2245,2.1144,1.9062,1.7202,1.5525,1.4418,1.3379,1.2499,1.1417,1.0949,1.0949,1.093,1.0641,1.026,1.1238,1.1564,1.15,1.1974,1.1497,1.0543,1.6225,1.9717,2.3097,3.1751,3.4206,3.4786,3.4182,3.5189,3.6835,3.9149,3.7333,3.5836,3.5838,3.5277,3.364,3.0437,1.4812,0.3009,-0.2018,-1.0379,-1.669,-2.0143,-2.2955,-2.4675,-2.5169,-2.6871,-2.771,-2.7596,-2.6319,-2.4645,0.0,0.0,-2.2674,-2.1158,-2.2754,-2.2265,-2.0182,-1.9089,-1.7676,-1.5952,-1.2482,-0.7772,-0.2399,0.1959,0.9014,1.6968,2.0116,2.3783,2.7368,2.8948,2.9519,2.9646,3.011,3.0366,3.049,3.0673,2.9092,2.7538,2.8693,2.7016,2.4808,2.4321,2.3805,2.1568,1.4441,0.8521,0.3147,-0.1802,-0.6091,-0.8955,-0.8903,-0.8963,-0.8953,-0.8634,-0.5949,-0.1251,0.0,1.537,2.2974,2.785,2.8771,2.8887,2.8606,2.7846,2.6709,2.5111,2.5318,2.5126,2.4223,2.4593,2.493,2.5134,2.5193,2.4888,2.4173,2.3521,2.2118,1.9991,1.8424,1.6462,1.4164,1.2879,1.1894,1.1077,1.0205,0.9844,0.9827,0.9571,0.9342,0.9247,1.0039,1.0317,1.0337,1.0904,1.0962,1.0466,0.0286,0.9091,1.8273,3.1195,3.4775,3.5863,3.5836,3.7364,3.9176,4.0972,3.9107,3.7667,3.7826,3.7312,3.6182,3.4301,2.1069,0.8896,-0.0385,-1.1718,-1.9637,-2.3148,-2.5166,-2.623,-2.6371,-2.7469,-2.7705,-2.7001,-2.5049,-2.2725,0.0,-2.2134,-2.178,-1.9619,-2.3295,-2.4,-2.2304,-2.089,-1.9495,-1.7792,-1.2696,-0.7409,-0.2005,0.3319,1.0357,1.7808,2.0554,2.3802,2.6957,2.8105,2.8743,2.9128,2.977,3.0164,3.0433,3.0645,2.9124,2.7854,3.0107,2.9042,2.6875,2.5166,2.4662,2.1324,0.8886,0.1834,-0.3213,-0.7085,-1.0897,-1.3375,-1.2816,-1.3013,-1.2963,-1.2001,-0.8914,-0.3084,0.0,1.6601,2.3584,2.6475,2.7973,2.8515,2.7894,2.6991,2.5691,2.3874,2.4013,2.4013,2.3568,2.411,2.4543,2.4778,2.4671,2.4159,2.3276,2.2569,2.1177,1.9081,1.7447,1.5344,1.2836,1.1485,1.0311,0.9221,0.8699,0.855,0.8762,0.8495,0.8374,0.8495,0.9275,0.9497,0.9498,1.0356,1.0563,1.0136,-1.5376,0.1122,1.8475,3.0796,3.5761,3.7481,3.589,3.984,4.2644,4.1527,4.0787,4.0521,4.0858,4.0005,3.8014,3.4558,2.7187,1.6836,0.2963,-1.2918,-2.3023,-2.5796,-2.6119,-2.6442,-2.6892,-2.7172,-2.6753,-2.5547,-2.3606,-2.1025,-1.7918,-2.0277,-2.0508,-1.9095,-2.2849,-2.4677,-2.4895,-2.3779,-2.2422,-2.0529,-1.4574,-0.8366,-0.2001,0.3853,0.9886,1.5708,1.9577,2.33,2.6488,2.7128,2.7913,2.8732,2.9437,2.9982,3.0333,3.0323,3.0327,3.0324,3.0323,3.0559,2.9987,2.6591,2.5392,1.9926,0.0434,-0.7665,-1.1302,-1.2103,-1.3039,-1.4021,-1.4935,-1.4978,-1.4157,-1.2047,-0.862,-0.1978,1.0229,1.7208,2.1628,2.3174,2.6626,2.8436,2.7307,2.7345,2.6162,2.3031,2.3641,2.3791,2.2902,2.3584,2.4117,2.4321,2.3847,2.3184,2.2342,2.0763,1.945,1.8381,1.6051,1.3784,1.1647,1.0311,0.8752,0.7134,0.6878,0.7148,0.7687,0.7728,0.7773,0.7953,0.8872,0.9083,0.9001,1.0218,1.0261,0.9459,-2.1984,-0.1348,1.9115,3.2802,3.6885,3.8046,3.7592,4.0215,4.2626,4.3599,4.0807,3.8137,3.6677,3.6588,3.4323,2.8576,3.0157,2.3702,0.5405,-0.9268,-2.0765,-2.8637,-2.8322,-2.7643,-2.6939,-2.6406,-2.531,-2.3534,-2.157,-1.8528,-1.4594,-1.3194,-1.2513,-1.2475,-1.4083,-1.681,-2.0549,-2.525,-2.4145,-1.8885,-1.4604,-0.9095,-0.2875,0.307,0.8913,1.468,1.95,2.2861,2.5109,2.6337,2.694,2.7435,2.8775,2.9264,2.9365,2.9361,2.9351,2.9348,2.9343,2.9409,2.8993,2.6953,2.3829,1.7316,0.2319,-0.8268,-1.4364,-1.2288,-1.4351,-1.6353,-1.5817,-1.5679,-1.4298,-1.0009,-0.2243,0.5086,1.0503,1.4879,1.8095,1.9698,2.0863,2.2972,2.6626,2.5919,2.4853,2.3969,2.3944,2.3429,2.2142,2.359,2.4098,2.3299,2.2424,2.1327,1.9987,1.868,1.7184,1.5532,1.3408,1.1583,0.9992,0.8994,0.7643,0.6056,0.5499,0.5592,0.6124,0.6665,0.6961,0.7173,0.8242,0.8403,0.81,0.8944,0.8803,0.8078,-2.987,-0.8602,1.2829,2.6689,3.4108,3.8478,3.9494,4.0815,4.187,4.2335,4.0419,3.7532,3.3619,3.3001,3.0537,2.4721,2.8179,2.3115,0.5299,-0.8911,-2.0287,-2.8486,-2.7568,-2.6395,-2.5405,-2.4464,-2.3148,-2.145,-1.8919,-1.4938,-0.9599,-0.7702,-0.6536,-0.6187,-0.8842,-1.3236,-1.907,-2.5027,-2.4704,-1.9821,-1.5976,-1.1174,0.0,0.1311,0.7925,1.411,1.8168,2.1546,2.4179,2.5223,2.5884,2.6404,2.7289,2.7762,2.7999,2.7999,2.6545,2.4981,2.4993,2.4408,2.3266,2.1088,1.7583,1.1713,0.0625,-0.7036,-1.1789,-1.1469,-1.3636,-1.536,-1.4916,-1.487,-1.2462,-0.5056,0.3935,1.0779,1.3088,1.5193,1.6525,1.6585,1.6905,1.7894,1.9805,1.909,1.9153,2.0735,1.9641,1.9771,2.1708,2.2765,2.2904,2.1963,2.09,1.9497,1.7744,1.655,1.5075,1.3263,1.1265,0.9695,0.8561,0.7418,0.6214,0.5007,0.4576,0.4552,0.4879,0.5924,0.6524,0.6858,0.7635,0.7743,0.7518,0.7505,0.7503,0.7413,-3.5323,-1.6657,0.3273,1.731,2.9332,3.7925,4.0552,4.1119,4.0852,3.9741,3.9661,3.7496,3.1774,2.9729,2.6817,2.1917,2.2394,1.7294,0.3749,-0.9755,-1.9855,-2.5758,-2.4552,-2.3611,-2.3354,-2.22,-2.0835,-1.93,-1.6283,-1.115,-0.4133,-0.2581,-0.0933,0.0504,-0.4638,-1.1777,-2.0235,-2.4496,-2.511,-2.2807,-1.853,-1.3943,-0.8807,-0.0743,0.6782,1.3411,1.6339,1.9922,2.336,2.393,2.465,2.5301,2.5354,2.5782,2.6234,2.6099,2.3067,1.9708,1.9561,1.8194,1.6059,1.2803,0.9828,0.5673,-0.2012,-0.4937,-0.6969,-1.0173,-1.1943,-1.3083,-1.3479,-1.2374,-0.804,0.2138,1.016,1.5625,1.7151,1.7378,1.661,1.454,1.4568,0.0,1.0437,1.0337,1.1624,1.4467,1.3134,1.4435,1.9574,2.0763,2.0949,2.0236,1.9029,1.7531,1.5696,1.4392,1.2909,1.1297,0.9327,0.8022,0.7236,0.5863,0.4807,0.4174,0.4083,0.3976,0.4033,0.5372,0.6227,0.6804,0.6991,0.7081,0.6954,0.5824,0.5837,0.6303,-2.7365,-1.6064,-0.2936,1.4401,2.5694,3.3665,3.7464,3.9783,4.0741,3.9564,3.806,3.5708,3.2221,2.81,2.3482,1.8258,1.2823,0.7498,0.2476,-0.7548,-1.5171,-1.9445,-1.931,-2.0416,-2.3106,-2.1568,-1.9529,-1.6981,-1.4741,-0.9333,-0.0893,0.4733,0.8269,0.9645,0.3939,-0.8649,-2.5653,-2.6894,-2.7779,-2.7879,-2.2337,-1.6166,-0.9499,-0.1526,0.5261,1.112,1.5739,1.9383,2.209,2.2656,2.2922,2.3139,2.3648,2.3897,2.379,2.2843,2.1155,1.9329,1.8286,1.6775,1.4463,0.9945,0.7341,0.4683,0.0256,-0.3705,-0.6996,-0.8854,-1.1607,-1.3805,-1.424,-0.6735,0.2509,1.1782,1.6954,2.0318,2.1734,2.0838,1.8979,1.6163,1.4518,1.1329,0.5646,0.6919,0.7391,0.5728,0.8646,1.0251,0.9615,1.5666,1.8677,1.7603,1.6098,1.4855,1.4033,1.2231,1.0594,0.9186,0.7682,0.6536,0.5679,0.4992,0.444,0.4063,0.4146,0.4151,0.4206,0.5075,0.5887,0.6579,0.6021,0.5941,0.5901,0.3646,0.2215,0.1274,-3.2536,-2.2564,-1.1166,0.2576,1.5509,2.5708,3.0894,3.425,3.656,3.7585,3.5236,3.2387,2.948,2.4786,2.0026,1.5446,1.1552,0.7409,0.2872,-0.4809,-1.0025,-1.1877,-1.4875,-1.6948,-1.782,-1.8723,-1.7958,-1.5383,-1.1646,-0.6193,0.1049,0.7559,1.1286,1.2223,0.4473,-0.7217,-2.1391,-2.6149,-2.8817,-2.9449,-2.5363,-2.1118,-1.6073,-0.4642,0.5093,1.2966,1.5372,1.8172,2.0841,2.1782,2.2108,2.208,2.1995,2.1717,2.1306,2.0764,1.9027,1.721,1.6587,1.5219,1.3336,1.0547,0.8667,0.6468,0.2881,-0.0647,-0.3788,-0.589,-0.8882,-1.0905,-1.0061,-0.2843,0.5439,1.2861,1.9356,2.3624,2.4034,2.2813,2.0973,1.8566,1.6465,1.1871,0.3289,0.1104,0.0158,-0.0011,0.0757,0.287,0.6634,1.1802,1.4774,1.5132,1.4029,1.2803,1.1558,1.0538,0.9235,0.7581,0.6519,0.5824,0.5362,0.4789,0.4431,0.426,0.4312,0.4354,0.4422,0.5099,0.6012,0.6939,0.6055,0.5156,0.4091,0.1882,0.0277,-0.0722,-4.0077,-3.0273,-1.9371,-0.9709,0.4261,1.6376,2.3098,2.7462,3.1183,3.4469,3.1886,2.8621,2.5606,2.1076,1.6607,1.2819,1.1725,0.8875,0.324,-0.2064,-0.5339,-0.6293,-1.0767,-1.2762,-1.1606,-1.4678,-1.526,-1.3099,-0.8602,-0.3527,0.2189,0.842,1.1145,1.0531,0.3862,-0.5861,-1.7777,-2.564,-2.942,-2.9938,-2.6917,-2.416,-2.0471,-0.7864,0.342,1.2746,1.4552,1.7192,1.994,2.0939,2.1328,2.117,2.0453,1.9824,1.9334,1.8998,1.7205,1.5269,1.5104,1.3883,1.2485,1.1576,1.0335,0.8533,0.5552,0.275,-0.0195,-0.3624,-0.578,-0.6592,-0.4826,0.0976,0.7432,1.3508,2.0883,2.5861,2.5798,2.4764,2.3337,2.1507,1.9316,1.3808,0.3223,-0.2817,-0.5993,-0.5871,-0.7643,-0.5433,0.2118,0.6771,1.0105,1.202,1.1362,1.0407,0.9292,0.8629,0.7689,0.6367,0.576,0.5433,0.5273,0.4732,0.4522,0.4477,0.4522,0.4525,0.4532,0.5066,0.5891,0.6688,0.5567,0.3972,0.213,0.0332,-0.1215,-0.2252,-4.2984,-3.5248,-2.5945,-1.6219,-0.4418,0.6523,1.5,2.1196,2.6354,3.0503,2.8324,2.5093,2.1797,1.7725,1.3751,1.0041,0.9063,0.6853,0.2485,0.0463,-0.231,-0.6126,-0.6836,-0.7048,-0.6954,-0.955,-1.0283,-0.8943,-0.6893,-0.2949,0.2725,0.8414,0.8536,0.4141,0.6911,-0.3334,-2.3017,-2.8063,-3.0551,-3.064,-2.5806,-2.0787,-1.5497,-0.9471,-0.2596,0.4769,1.2431,1.7192,1.9798,1.994,1.9991,1.9837,1.9125,1.8838,1.8484,1.7137,1.6043,1.5167,1.4394,1.3082,1.1688,1.0788,0.9939,0.9034,0.7866,0.5328,0.1582,-0.4127,-0.3623,-0.1833,-0.0728,0.5783,1.3154,1.9819,2.3834,2.6591,2.8151,2.7767,2.6714,2.5027,2.2611,1.6952,0.6472,-0.0639,-0.7456,-1.4367,-1.4554,-1.3404,-1.1279,-0.164,0.4982,0.7459,0.6713,0.6885,0.8219,0.5976,0.5116,0.5597,0.5538,0.5164,0.457,0.4515,0.4519,0.4519,0.4519,0.4525,0.448,0.4588,0.465,0.4601,0.3125,0.1749,0.048,-0.0878,-0.2995,-0.508,-4.3408,-3.8864,-3.2275,-2.2847,-1.3847,-0.4927,0.4239,1.156,1.7046,1.9706,2.1174,2.0976,1.844,1.446,1.1084,0.8992,0.7729,0.6416,0.4763,0.2484,0.0155,-0.2408,-0.4141,-0.5421,-0.6287,-0.7301,-0.752,-0.6818,-0.3808,-0.1101,0.1476,0.7232,0.9373,0.8274,1.0161,0.2232,-1.3091,-2.1104,-2.5238,-2.6176,-2.4102,-1.7734,-0.8956,-0.47,0.0424,0.623,1.2854,1.7157,1.9825,1.9801,1.9533,1.898,1.8274,1.7743,1.7069,1.5505,1.4514,1.3742,1.2951,1.2087,1.1336,1.1272,1.0815,1.0122,0.8977,0.6599,0.3621,0.0199,0.0137,0.157,0.4059,1.0554,1.6525,1.975,2.2802,2.5363,2.7023,2.7295,2.7045,2.6301,2.4088,1.9117,1.0194,0.1295,-0.7928,-1.7593,-1.7502,-1.559,-1.2266,-0.55,-0.0357,0.2523,0.2663,0.2672,0.272,0.2109,0.2223,0.3099,0.4336,0.4743,0.4473,0.4522,0.4519,0.4519,0.4525,0.4477,0.4421,0.3519,0.3641,0.4448,0.3819,0.1751,-0.1065,-0.2479,-0.4034,-0.5405,-4.3076,-4.0699,-3.6341,-2.8375,-2.266,-1.5774,-0.5879,0.0922,0.6005,0.8886,1.1809,1.4179,1.5801,1.2294,0.9285,0.8008,0.6911,0.6274,0.6278,0.445,0.2884,0.1874,-0.1714,-0.4535,-0.6379,-0.6633,-0.6725,-0.6504,-0.2929,-0.0688,0.0373,0.4993,0.8218,0.9911,0.7468,0.1373,-0.7473,-1.6156,-2.0653,-2.1964,-2.1398,-1.5107,-0.5489,-0.073,0.5019,1.1115,1.5526,1.8565,2.0421,1.9938,1.9111,1.8221,1.749,1.6722,1.5823,1.4007,1.3114,1.2451,1.1655,1.1289,1.1152,1.1509,1.1323,1.0671,0.9401,0.7399,0.5582,0.4684,0.5095,0.641,0.9033,1.4351,1.8554,1.9275,2.2099,2.4663,2.6029,2.6333,2.6457,2.6536,2.4391,1.9662,1.1443,0.241,-0.7296,-1.7823,-1.8717,-1.7072,-1.3135,-0.8727,-0.4965,-0.1835,-0.138,-0.1229,-0.1419,-0.1491,-0.0647,0.105,0.2493,0.3619,0.448,0.4522,0.4519,0.4522,0.4477,0.4024,0.3067,0.2006,0.2178,0.314,0.2773,0.0808,-0.1996,-0.3487,-0.468,-0.5613,-4.2287,-4.0374,-3.7327,-3.2392,-3.0282,-2.5527,-1.4396,-1.0306,-0.6415,-0.0443,0.0263,0.4011,1.4071,1.1612,0.8474,0.6812,0.6444,0.6268,0.6278,0.6278,0.6213,0.6247,0.0638,-0.3798,-0.6606,-0.7513,-0.8057,-0.8255,-0.5433,-0.2692,0.0,0.1501,0.3674,0.5831,-0.3519,-0.8822,-1.0845,-1.5888,-1.8561,-1.9206,-1.7461,-1.3059,-0.6648,0.0879,0.9873,1.8714,2.0836,2.1839,2.1821,2.0155,1.8708,1.7446,1.6669,1.5924,1.4828,1.2541,1.1834,1.1648,1.08,1.0875,1.11,1.1108,1.0923,1.0365,0.9102,0.7933,0.7402,0.8478,1.1235,1.3631,1.4011,1.6881,1.931,1.9738,2.2665,2.5165,2.5889,2.5456,2.5274,2.595,2.3463,1.8194,0.9221,0.249,-0.5382,-1.513,-1.8396,-1.8893,-1.6386,-1.2189,-0.8474,-0.5445,-0.547,0.0,-0.2698,-0.4433,-0.3508,0.0,0.0055,0.1597,0.448,0.4522,0.4525,0.448,0.448,0.2785,0.0056,0.0056,0.0056,-0.0056,-0.1238,-0.1767,-0.1972,-0.3629,-0.5021,-0.6129,-4.2106,-4.0156,-3.7616,-3.4637,-3.1172,-2.6857,-2.0963,-1.656,-1.2752,-0.9775,-0.7815,-0.5415,-0.2117,0.1923,0.4979,0.6515,0.6403,0.6288,0.6291,0.6291,0.6302,0.6329,0.1728,-0.3304,-0.8604,-0.8798,-0.953,-1.0989,-0.917,-0.5485,0.0,0.0435,-0.0809,-0.3619,-0.6659,-1.0824,-1.5672,-1.6077,-1.6747,-1.7525,-1.758,-1.4338,-0.7711,0.8484,1.3432,1.2676,2.007,2.1731,2.0161,1.8673,1.7685,1.673,1.4721,1.4279,1.4177,1.2312,1.2205,1.2451,1.1655,1.2161,1.2987,1.316,1.2828,1.2132,1.1001,0.9211,0.8544,1.1498,1.2135,1.3188,1.6156,1.8134,1.9987,2.2167,2.3879,2.5003,2.5274,2.5178,2.4906,2.4479,2.3008,1.9353,1.2435,0.4225,-0.4613,-1.4128,-1.984,-2.1114,-1.715,-1.5144,-1.3143,0.0,-1.2279,0.0,-0.9362,-0.8891,-0.713,-0.3989,-0.2304,0.0606,0.449,0.4487,0.4487,0.449,0.4501,0.2794,-0.0167,-0.224,-0.3086,-0.3132,-0.3498,-0.3943,-0.4447,-0.5103,-0.6091,-0.7103,-4.1099,-3.9357,-3.7497,-3.6021,-3.229,-2.8444,-2.5222,-2.1502,-1.8134,-1.575,-1.3416,-1.1615,-1.0863,-0.6172,-0.1514,0.233,0.3955,0.4696,0.4696,0.4937,0.4784,0.4001,0.1414,-0.291,-0.9165,-0.9647,-1.0796,-1.2722,-1.209,-0.8942,-0.3645,-0.4935,-0.7109,-0.9897,-0.9339,-1.22,-1.7194,-1.6648,-1.6206,-1.6132,-1.7395,-1.5293,-0.9935,0.418,0.9074,0.9565,1.8267,2.0782,1.9765,1.8196,1.7171,1.6131,1.3457,1.3203,1.3576,1.1707,1.2043,1.2818,1.202,1.2922,1.4131,1.4026,1.3442,1.2519,1.0857,0.9456,0.9255,1.2047,1.2887,1.4196,1.7677,1.9761,2.1835,2.4358,2.511,2.5385,2.543,2.5033,2.445,2.375,2.2658,1.9787,1.4344,0.633,-0.2272,-1.1318,-1.7694,-2.0217,-1.7963,-1.7942,-1.6791,-1.4172,-1.5242,-1.51,-1.3578,-1.1992,-0.9779,-0.6945,-0.3718,-0.0442,0.285,0.3357,0.3928,0.4504,0.4511,0.28,-0.0223,-0.3261,-0.4514,-0.4546,-0.4878,-0.5268,-0.564,-0.5961,-0.6697,-0.7524,-3.9499,-3.8136,-3.6974,-3.6531,-3.3603,-3.0342,-2.7458,-2.5225,-2.2619,-1.8993,-1.7,-1.5152,-1.3178,-1.2297,-0.9914,-0.5274,-0.101,0.1467,0.1776,0.2325,0.1861,-0.0078,-0.0395,-0.3031,-0.8528,-1.0231,-1.1966,-1.3895,-1.4317,-1.3051,-1.0218,-1.3176,-1.4084,-1.3277,-1.2207,-1.3447,-1.6459,-1.7581,-1.69,-1.5254,-1.7081,-1.606,-1.3006,-0.8516,-0.0681,0.8829,1.5684,1.9239,2.0423,1.8461,1.7087,1.5684,1.2779,1.2737,1.3217,1.0876,1.1586,1.2948,1.2197,1.3327,1.4576,1.3846,1.3123,1.1841,0.9144,0.8991,0.9753,1.0972,1.3687,1.6607,1.8881,2.1877,2.4551,2.6198,2.6319,2.6195,2.6172,2.5032,2.4062,2.3708,2.2532,1.9913,1.5273,0.9036,0.1652,-0.7097,-1.2807,-1.6808,-1.893,-2.0529,-1.9499,-1.5351,-1.5271,-1.5406,-1.5672,-1.3826,-1.1523,-0.866,-0.4398,-0.1603,-0.0111,0.128,0.2683,0.4051,0.4051,0.2408,-0.0502,-0.32,-0.4389,-0.4591,-0.5464,-0.5759,-0.5745,-0.6236,-0.6894,-0.7599,-3.8647,-3.7277,-3.6168,-3.6066,-3.3539,-3.1236,-3.0326,-2.7719,-2.5356,-2.3897,-2.0908,-1.8564,-1.763,-1.5325,-1.3431,-1.2215,-0.8284,-0.469,-0.1734,-0.1385,-0.1542,-0.2066,-0.4365,-0.6753,-0.9155,-1.1185,-1.3392,-1.5749,-1.7504,-1.7263,-1.5031,-1.3532,-1.4261,-1.6808,-1.7417,-1.8471,-1.9851,-1.9152,-1.8653,-1.8399,-1.8674,-1.776,-1.5159,-0.51,0.0973,0.5261,1.3527,1.8254,2.0213,1.7589,1.645,1.5629,1.2755,1.3074,1.4025,1.1685,1.2405,1.3846,1.3657,1.4534,1.53,1.4654,1.3286,1.1715,1.0472,1.0512,1.1563,1.4066,1.6263,1.8737,2.21,2.4521,2.6258,2.7047,2.7289,2.7046,2.6047,2.5333,2.4808,2.4403,2.4296,2.2616,1.8421,1.4377,0.72,-0.4385,-1.0576,-1.5465,-1.926,-2.2431,-2.2177,-1.7827,-1.8737,-1.8662,-1.7344,-1.5175,-1.1937,-0.7682,-0.5163,-0.3157,-0.1671,-0.1336,-0.0947,-0.0613,-0.0613,-0.1671,-0.3408,-0.2961,-0.3463,-0.4522,-0.4769,-0.5454,-0.6357,-0.6513,-0.7365,-0.8495,-3.8272,-3.6916,-3.5845,-3.566,-3.3608,-3.1706,-3.0772,-2.8698,-2.6889,-2.5886,-2.3339,-2.1445,-2.0925,-1.8851,-1.7423,-1.7158,-1.2938,-0.9127,-0.6547,-0.5584,-0.5509,-0.6328,-0.7517,-0.8816,-1.0124,-1.1757,-1.4048,-1.7016,-1.9273,-1.9423,-1.7529,-1.629,-1.6644,-1.8249,-1.9351,-2.0152,-2.0603,-2.0588,-2.0627,-2.0758,-2.0327,-1.9063,-1.6721,-0.979,-0.3149,0.3197,0.8336,1.4268,1.9623,1.9352,1.8373,1.6974,1.5271,1.5772,1.6643,1.4734,1.4687,1.51,1.4484,1.5487,1.6361,1.5017,1.3698,1.2534,1.1609,1.1861,1.294,1.5423,1.7547,1.9963,2.3069,2.5005,2.6313,2.6883,2.65,2.5918,2.5323,2.4858,2.4562,2.4549,2.491,2.4148,2.1597,1.8061,1.1847,0.1926,-0.5138,-1.1201,-1.6271,-2.1038,-2.221,-1.9098,-1.9779,-1.9762,-1.881,-1.5944,-1.2606,-0.8871,-0.6323,-0.446,-0.3277,-0.3236,-0.3244,-0.3244,-0.3244,-0.3749,-0.4432,-0.3583,-0.3747,-0.4581,-0.5466,-0.6119,-0.6696,-0.7343,-0.8103,-0.8804,-3.7796,-3.6593,-3.5576,-3.509,-3.3577,-3.1823,-3.0137,-2.8887,-2.7656,-2.633,-2.4836,-2.3708,-2.316,-2.197,-2.0998,-2.0463,-1.6177,-1.2885,-1.1482,-0.9585,-0.9153,-1.0552,-0.9775,-0.9838,-1.1089,-1.2372,-1.4638,-1.7841,-2.0029,-2.0324,-1.8737,-1.986,-1.9775,-1.8643,-1.9607,-2.0148,-2.045,-2.165,-2.2196,-2.2157,-2.1724,-2.0184,-1.8014,-1.6739,-0.8714,0.2037,0.3565,1.09,2.013,2.1933,2.1144,1.9369,1.907,1.9475,1.9809,1.8513,1.7764,1.7003,1.561,1.6491,1.7345,1.5315,1.4435,1.3753,1.2828,1.325,1.4378,1.6253,1.8503,2.0859,2.3198,2.4603,2.5568,2.6013,2.4893,2.4026,2.429,2.3945,2.3885,2.4485,2.49,2.4852,2.4135,2.0862,1.5816,0.8681,0.1367,-0.5628,-1.2211,-1.7967,-2.052,-1.9348,-1.9769,-1.9817,-1.9515,-1.6095,-1.3128,-1.0681,-0.7703,-0.5735,-0.4648,-0.4636,-0.4601,-0.449,-0.449,-0.449,-0.449,-0.4601,-0.465,-0.4805,-0.6569,-0.7047,-0.6912,-0.8156,-0.8699,-0.8804,-3.6045,-3.5337,-3.4637,-3.3825,-3.279,-3.1637,-3.0339,-2.9106,-2.7994,-2.7066,-2.571,-2.4599,-2.4051,-2.2981,-2.2002,-2.1358,-1.9616,-1.7421,-1.4696,-1.2149,-1.0603,-1.0154,-1.0179,-1.0457,-1.1073,-1.3744,-1.6052,-1.7896,-1.9901,-2.042,-1.9668,-2.1849,-2.1702,-1.9584,-1.9707,-2.0563,-2.1925,-2.1649,-2.1613,-2.1738,-2.2036,-2.1227,-1.9524,-1.6768,-0.8855,0.1319,0.5788,1.528,2.5244,2.2294,2.1931,2.2744,2.2549,2.2099,2.1604,2.1295,2.1216,2.0811,1.8952,1.8075,1.7428,1.652,1.5674,1.4926,1.445,1.5221,1.6585,1.8241,2.0314,2.2377,2.4244,2.509,2.5207,2.4356,2.3682,2.3216,2.3111,2.3052,2.3475,2.462,2.4813,2.4715,2.436,2.3404,1.9173,1.0405,0.5772,-0.0868,-1.0537,-1.4976,-1.7504,-1.8057,-2.0436,-2.0367,-1.7652,-1.5093,-1.2771,-1.0681,-0.9034,-0.7228,-0.532,-0.5328,-0.5062,-0.4522,-0.4522,-0.4522,-0.4522,-0.5117,-0.5328,-0.5437,-0.6372,-0.7079,-0.7563,-0.7777,-0.8268,-0.8804,-3.6219,-3.5477,-3.4548,-3.3289,-3.2594,-3.1534,-2.954,-2.8769,-2.8047,-2.7041,-2.6324,-2.5737,-2.5201,-2.4139,-2.3183,-2.257,-2.0841,-1.907,-1.7399,-1.4978,-1.3302,-1.2627,-1.2247,-1.2367,-1.3103,-1.529,-1.675,-1.7484,-1.9355,-2.0152,-1.9899,-2.1383,-2.1576,-2.059,-2.0442,-2.0967,-2.1939,-2.1887,-2.1911,-2.196,-2.1853,-2.1744,-2.1413,-1.9238,-1.0656,0.1274,0.9307,1.8521,2.6769,2.5919,2.5907,2.6157,2.5652,2.5691,2.5804,2.5084,2.3362,2.1445,2.0548,1.9704,1.895,1.828,1.7685,1.7258,1.7076,1.7343,1.8042,1.9382,2.0686,2.1927,2.2986,2.3344,2.3245,2.2476,2.1916,2.1711,2.2048,2.2248,2.2793,2.3952,2.4039,2.3882,2.3626,2.279,1.932,1.2306,0.7263,0.0796,-0.7662,-1.2915,-1.6248,-1.7424,-1.9084,-1.8936,-1.6789,-1.5348,-1.3528,-1.1221,-0.9877,-0.8351,-0.6681,-0.6253,-0.5928,-0.5609,-0.5609,-0.5609,-0.566,-0.5982,-0.6091,-0.6145,-0.6907,-0.7396,-0.7723,-0.8156,-0.8262,-0.8268,-3.6334,-3.5611,-3.4491,-3.2857,-3.2342,-3.1319,-2.8785,-2.8328,-2.7947,-2.6992,-2.6674,-2.6401,-2.6049,-2.4964,-2.3939,-2.3243,-2.144,-1.9918,-1.8933,-1.7197,-1.5833,-1.5035,-1.4297,-1.4245,-1.4946,-1.6241,-1.7015,-1.7168,-1.8857,-1.9781,-1.9866,-2.0793,-2.1205,-2.1214,-2.127,-2.1471,-2.1797,-2.2399,-2.2498,-2.22,-2.203,-2.2235,-2.2575,-2.1687,-1.4796,-0.3995,0.8197,1.9023,2.7784,2.9287,2.9462,2.8946,2.8307,2.8747,2.9336,2.8433,2.5691,2.282,2.194,2.1354,2.0858,2.0251,1.9747,1.9402,1.933,1.9043,1.906,1.9882,2.0398,2.0791,2.1171,2.1171,2.0945,2.0448,0.0,2.0066,2.0846,2.1247,2.1859,2.2993,2.3045,2.2811,2.2432,2.113,1.8504,1.415,0.7845,0.1337,-0.5166,-1.1094,-1.5215,-1.7193,-1.7814,-1.7608,-1.6579,-1.584,-1.428,-1.1837,-1.0594,-0.9141,-0.767,-0.7128,-0.675,-0.6588,-0.6588,-0.6588,-0.6588,-0.6804,-0.6858,-0.6912,-0.767,-0.7937,-0.8049,-0.8593,-0.8321,-0.7777,-3.5267,-3.4964,-3.4124,-3.22,-3.1663,-3.0764,-2.8719,-2.8136,-2.7777,-2.7303,-2.6539,-2.6049,-2.5997,-2.5041,-2.388,-2.2583,-2.1909,-2.0582,-1.8323,-1.8016,-1.7199,-1.5593,-1.5308,-1.5283,-1.5516,-1.6067,-1.6675,-1.7306,-1.8535,-1.9369,-1.9748,-2.117,-2.1525,-2.1054,-2.1851,-2.2228,-2.2304,-2.3274,-2.3052,-2.2115,-2.3193,-2.2967,-2.2062,-2.2756,-2.268,-2.0007,-0.2916,1.4677,2.9914,3.0237,3.0385,3.0427,3.0234,3.015,3.0178,3.0393,2.9323,2.7336,2.4043,2.2976,2.2709,2.2279,2.1429,2.0574,2.027,1.9838,1.957,1.9641,1.9572,1.9532,1.9567,1.9277,1.8846,1.8303,0.0,0.0,1.9286,1.9823,2.0623,2.1877,2.1997,2.1715,2.0936,1.9333,1.7588,1.5836,0.8322,0.144,-0.4138,-0.9173,-1.3543,-1.7275,-1.7896,-1.7813,-1.7065,-1.6022,-1.4444,-1.2353,-1.126,-0.9681,-0.7723,-0.767,-0.7235,-0.6588,-0.6588,-0.6588,-0.6642,-0.7343,-0.7616,-0.767,-0.8427,-0.8699,-0.8752,-0.8758,-0.8321,-0.7723,-3.487,-3.4754,-3.4085,-3.2144,-3.1712,-3.0904,-2.8732,-2.8129,-2.7578,-2.6723,-2.5898,-2.5337,-2.5269,-2.3665,-2.2559,-2.2412,-2.1227,-1.9786,-1.8212,-1.8106,-1.7531,-1.6225,-1.607,-1.6082,-1.6151,-1.6316,-1.6548,-1.6795,-1.7936,-1.8542,-1.8729,-2.0207,-2.0928,-2.1023,-2.1526,-2.2199,-2.3054,-2.3869,-2.4146,-2.4,-2.4132,-2.4156,-2.4021,-2.2987,-1.8964,-1.2415,-0.111,1.3729,2.8142,2.9141,2.9929,3.0502,3.0664,3.0677,3.0665,3.0799,2.9645,2.7904,2.584,2.4999,2.4318,2.289,2.1358,1.9988,1.9045,1.7698,1.6824,1.7208,1.7063,1.6996,1.7397,1.733,1.7168,1.6977,0.0,1.7745,1.8262,1.8892,1.9547,2.0268,2.0135,1.968,1.8971,1.739,1.5673,1.3826,0.6821,0.0354,-0.4884,-1.0466,-1.4717,-1.7318,-1.7931,-1.7654,-1.6559,-1.6143,-1.4774,-1.2461,-1.1636,-1.0457,-0.8981,-0.8573,-0.8209,-0.7943,-0.7943,-0.7943,-0.799,-0.8718,-0.8974,-0.9086,-0.9755,-1.0064,-0.9969,-0.9562,-0.8974,-0.8277,-3.4551,-3.4551,-3.3939,-3.2009,-3.1667,-3.0993,-2.89,-2.8308,-2.767,-2.6527,-2.5635,-2.4962,-2.4493,-2.2853,-2.1838,-2.2055,-2.0795,-1.9553,-1.8419,-1.8185,-1.7626,-1.6552,-1.6522,-1.6522,-1.6522,-1.6522,-1.6522,-1.6522,-1.7585,-1.8106,-1.8131,-1.9606,-2.055,-2.1023,-2.1334,-2.2039,-2.3139,-2.4089,-2.4445,-2.4426,-2.4754,-2.4986,-2.4892,-2.2282,-1.4688,-0.4227,0.5113,1.607,2.6393,2.8142,2.9442,3.0411,3.0703,3.0687,3.0453,3.0068,2.9099,2.7812,2.6218,2.4915,2.3841,2.3192,2.0511,1.7874,1.7273,1.52,1.3729,1.499,1.4981,1.501,1.5664,1.5818,1.5818,1.5818,1.6145,1.6587,1.7007,1.7464,1.7926,1.8356,1.8184,1.7702,1.686,1.5188,1.3693,1.2504,0.5323,-0.164,-0.7568,-1.2397,-1.5777,-1.7568,-1.8179,-1.7872,-1.6636,-1.6396,-1.5078,-1.2688,-1.1939,-1.1061,-1.0115,-0.9666,-0.9309,-0.9113,-0.9361,-0.9316,-0.9159,-0.9814,-1.0115,-1.0167,-1.0618,-1.0813,-1.0712,-1.0064,-0.9325,-0.858,-3.4246,-3.42,-3.3603,-3.1734,-3.1384,-3.0834,-2.9232,-2.8658,-2.8003,-2.6934,-2.5967,-2.4943,-2.3803,-2.2841,-2.2022,-2.1347,-2.0925,-2.0167,-1.8974,-1.8419,-1.7626,-1.6552,-1.6522,-1.6522,-1.6522,-1.6522,-1.6522,-1.6522,-1.7585,-1.8106,-1.8131,-1.9606,-2.055,-2.0991,-2.143,-2.1869,-2.2412,-2.3866,-2.3773,-2.2798,-2.5004,-2.5342,-2.414,-2.0644,-1.1487,0.1228,1.4588,2.1781,2.5256,2.7533,2.919,3.0343,3.0517,3.0174,2.9455,2.8241,2.7969,2.7488,2.4879,2.2263,2.0859,2.3223,1.8849,1.4192,1.5207,1.2645,1.0769,1.3227,1.3715,1.3893,1.4549,1.4709,1.4709,1.4709,1.4698,1.4858,1.5416,1.5504,1.57,1.6211,1.6283,1.5801,1.4586,1.2641,1.1818,1.2608,0.4055,-0.4562,-1.2263,-1.4473,-1.6349,-1.8144,-1.8695,-1.8537,-1.7622,-1.6796,-1.5298,-1.3077,-1.2211,-1.1475,-1.0813,-1.0813,-1.0415,-0.9865,-1.0517,-1.0415,-0.9865,-1.0517,-1.0813,-1.0813,-1.0813,-1.0813,-1.0712,-1.0064,-0.9325,-0.8633,-3.3843,-3.3006,-3.1967,-3.1174,-3.0539,-2.9717,-2.8416,-2.812,-2.7539,-2.6083,-2.5184,-2.4391,-2.3569,-2.207,-2.108,-2.1095,-2.0421,-1.9696,-1.8968,-1.8419,-1.7947,-1.7626,-1.7271,-1.7076,-1.7076,-1.668,-1.6522,-1.6522,-1.7585,-1.8106,-1.8131,-1.9606,-2.0382,-2.055,-2.1259,-2.1969,-2.2635,-2.3392,-2.3939,-2.432,-2.4803,-2.5067,-2.4907,-2.2266,-1.3635,-0.1903,0.6215,1.6638,2.6817,2.824,2.9508,3.0366,2.9477,2.8788,2.8053,2.6793,2.5597,2.4154,2.1743,2.0047,1.8611,1.7049,1.293,0.8941,0.7788,0.6354,0.5966,0.8215,0.9884,1.1419,1.3042,1.3399,1.3563,1.4003,1.405,1.4133,1.4297,1.4664,1.4982,1.5139,1.4778,1.3982,1.2665,1.1109,1.0105,0.9923,-0.1167,-0.9006,-1.1601,-1.4125,-1.6259,-1.7943,-1.8672,-1.8537,-1.7622,-1.7342,-1.6106,-1.38,-1.3055,-1.2261,-1.1466,-1.1015,-1.0712,-1.0517,-1.0712,-1.0669,-1.0559,-1.1216,-1.1516,-1.1566,-1.2098,-1.2255,-1.2157,-1.0922,-1.0356,-0.9931,-3.3293,-3.2805,-3.2155,-3.1527,-3.0567,-2.9431,-2.8102,-2.7897,-2.7656,-2.6982,-2.5949,-2.4683,-2.3119,-2.1953,-2.1263,-2.1256,-2.0501,-1.982,-1.925,-1.8907,-1.8743,-1.8743,-1.8232,-1.7827,-1.7626,-1.7312,-1.7105,-1.7105,-1.7987,-1.8419,-1.8458,-1.9543,-2.0158,-2.0348,-2.1039,-2.1706,-2.2302,-2.3224,-2.379,-2.4135,-2.461,-2.4912,-2.4845,-2.2808,-1.5818,-0.6174,0.1134,1.3196,2.5882,2.7303,2.8463,2.9178,2.8485,2.7104,2.5508,2.4392,2.3465,2.2166,1.9278,1.7492,1.5641,1.2331,0.8393,0.4398,0.068,0.1178,0.313,0.565,0.808,1.0335,1.2415,1.2832,1.3113,1.3684,1.36,1.342,1.342,1.3742,1.3862,1.3595,1.3195,1.2329,1.0647,0.9468,0.7676,0.4974,-0.412,-1.0073,-1.1309,-1.4082,-1.6193,-1.7444,-1.8362,-1.8258,-1.695,-1.6961,-1.5986,-1.4077,-1.337,-1.273,-1.2236,-1.1841,-1.1475,-1.1216,-1.1484,-1.1475,-1.1266,-1.1931,-1.2236,-1.2295,-1.2715,-1.2881,-1.2774,-1.1633,-1.1015,-1.0559,-3.2834,-3.3188,-3.3294,-3.2305,-3.106,-2.966,-2.8027,-2.7857,-2.8167,-2.8834,-2.7572,-2.5541,-2.2676,-2.2338,-2.2122,-2.1708,-2.1052,-2.0416,-1.9877,-1.9801,-1.9771,-1.9771,-1.9243,-1.8765,-1.8327,-1.821,-1.8131,-1.8106,-1.8688,-1.893,-1.8893,-1.9442,-1.9909,-2.0314,-2.0797,-2.1213,-2.1691,-2.3164,-2.3388,-2.2875,-2.4407,-2.4792,-2.4276,-2.2723,-1.7815,-1.0587,-0.1613,1.0531,2.2727,2.5236,2.654,2.7139,2.733,2.5176,2.2366,2.129,2.1195,2.0571,1.691,1.4387,1.199,0.8619,0.4986,0.0798,-0.4857,-0.2597,0.1687,0.4931,0.7727,1.0277,1.2406,1.2871,1.3104,1.3779,1.3364,1.293,1.2891,1.291,1.2656,1.1873,1.1765,1.0889,0.8829,0.7847,0.4976,-0.0744,-0.5114,-0.867,-1.1281,-1.4128,-1.6031,-1.6749,-1.7977,-1.7721,-1.5888,-1.5792,-1.5154,-1.3956,-1.3301,-1.292,-1.2822,-1.2881,-1.255,-1.1922,-1.2618,-1.251,-1.1972,-1.2608,-1.2881,-1.2881,-1.2881,-1.2881,-1.2822,-1.208,-1.1366,-1.0712,-3.3416,-3.2681,-3.1844,-3.1605,-3.0311,-2.8773,-2.721,-2.7629,-2.8185,-2.8354,-2.7417,-2.5787,-2.328,-2.2583,-2.2258,-2.2156,-2.1389,-2.0959,-2.1023,-2.063,-2.033,-2.0169,-1.9758,-1.9609,-1.9834,-1.903,-1.8478,-1.8106,-1.8999,-1.9273,-1.8893,-1.9442,-1.9909,-2.0314,-2.0797,-2.1213,-2.1658,-2.2549,-2.3005,-2.3165,-2.4097,-2.4577,-2.4656,-2.4191,-1.8426,-0.9976,-0.5493,0.4575,1.679,2.3596,2.5749,2.5414,2.4437,2.2902,2.0983,1.8513,1.652,1.4498,1.1946,0.9634,0.7196,0.4238,0.2024,-0.0,-0.2111,-0.232,-0.0764,0.3755,0.6934,0.9679,1.2223,1.2841,1.3248,1.434,1.3851,1.3262,1.293,1.3164,1.2972,1.1909,1.1366,1.0171,0.8029,0.623,0.3585,-0.0174,-0.506,-0.8633,-1.0383,-1.3307,-1.5446,-1.6539,-1.7412,-1.7048,-1.5462,-1.5133,-1.4272,-1.2844,-1.3192,-1.2924,-1.208,-1.2618,-1.2822,-1.2666,-1.2832,-1.2822,-1.2666,-1.2822,-1.2881,-1.2881,-1.2881,-1.2881,-1.2822,-1.208,-1.1366,-1.0559,-3.1703,-3.2066,-3.2299,-3.1524,-3.0072,-2.8717,-2.7921,-2.8224,-2.8572,-2.8576,-2.8146,-2.6777,-2.3973,-2.2846,-2.2304,-2.2295,-2.188,-2.1491,-2.1227,-2.0814,-2.0405,-2.0042,-1.9993,-2.0089,-2.0314,-2.0203,-1.9932,-1.9468,-2.0028,-2.0147,-1.9904,-2.0193,-2.0431,-2.0649,-2.1086,-2.1399,-2.1672,-2.2548,-2.3045,-2.3282,-2.4063,-2.4507,-2.4666,-2.4697,-2.1302,-1.5706,-0.9329,0.2055,1.4773,1.9313,2.0564,2.0329,2.1111,2.0221,1.8307,1.5834,1.3168,1.0574,0.8725,0.6351,0.4047,0.257,0.16,0.0835,0.0055,-0.0824,-0.0273,0.4025,0.6918,0.9438,1.1786,1.2599,1.3115,1.3886,1.3401,1.2809,1.2357,1.2428,1.2096,1.1206,1.0621,0.9524,0.7466,0.5616,0.3205,0.0061,-0.5022,-0.852,-0.9684,-1.2697,-1.4599,-1.499,-1.6153,-1.5868,-1.41,-1.3893,-1.3068,-1.1638,-1.2333,-1.2447,-1.213,-1.2646,-1.3004,-1.3184,-1.3184,-1.3066,-1.2881,-1.2881,-1.2881,-1.2881,-1.2881,-1.2881,-1.2832,-1.2452,-1.1683,-1.0501,-3.0296,-3.152,-3.2558,-3.1212,-2.988,-2.9009,-2.9007,-2.8986,-2.8982,-2.8869,-2.8783,-2.7736,-2.5045,-2.3173,-2.2095,-2.2084,-2.2089,-2.177,-2.0963,-2.0639,-2.03,-1.9937,-2.0156,-2.0382,-2.0516,-2.1228,-2.1399,-2.0991,-2.1055,-2.1055,-2.0991,-2.0991,-2.1086,-2.1197,-2.1535,-2.1744,-2.1931,-2.288,-2.33,-2.3351,-2.4174,-2.447,-2.4458,-2.4633,-2.4078,-2.2075,-1.3926,-0.1062,1.2175,1.3323,1.4043,1.4956,1.7519,1.697,1.4972,1.3067,1.0576,0.8104,0.6696,0.4531,0.2749,0.2888,0.2928,0.289,0.2692,0.1807,0.1912,0.5222,0.7396,0.9278,1.118,1.2116,1.271,1.2985,1.2632,1.2197,1.175,1.1587,1.1207,1.0451,0.9767,0.8667,0.6949,0.5467,0.3225,0.0,-0.5038,-0.837,-0.9233,-1.2104,-1.3691,-1.3492,-1.4782,-1.4523,-1.2476,-1.2607,-1.1949,-1.035,-1.115,-1.1814,-1.2396,-1.2779,-1.3183,-1.3613,-1.3613,-1.3379,-1.2988,-1.2988,-1.2939,-1.2881,-1.2881,-1.2881,-1.2881,-1.2774,-1.1891,-1.0559,-3.295,-3.126,-2.9591,-2.9347,-2.9159,-2.9007,-2.8994,-2.8989,-2.8834,-2.8373,-2.7951,-2.753,-2.7099,-2.3563,-2.116,-2.1193,-2.1176,-2.1022,-2.0687,-2.0122,-2.0118,-2.0798,-2.0501,-2.0634,-2.143,-2.1552,-2.1399,-2.0991,-2.1337,-2.1337,-2.0991,-2.0991,-2.1336,-2.1938,-2.2012,-2.2398,-2.3003,-2.3437,-2.3631,-2.3674,-2.4265,-2.4358,-2.4174,-2.4312,-2.3289,-2.1682,-2.0886,-1.0875,0.2443,0.5749,0.9717,1.3303,1.3597,1.2611,1.1163,1.0079,0.8568,0.7071,0.584,0.5111,0.4894,0.5759,0.5983,0.6325,0.7512,0.6381,0.5542,0.7106,0.81,0.912,1.0554,1.1207,1.1713,1.2243,1.2376,1.2233,1.1768,1.2036,1.1864,1.0763,0.8895,0.7277,0.6391,0.5399,0.3443,-0.0,-0.5074,-0.8419,-0.9497,-1.1424,-1.2907,-1.3802,-1.4065,-1.3217,-1.1187,-1.1919,-1.122,-0.9047,-1.0232,-1.1204,-1.1994,-1.2613,-1.3331,-1.4,-1.4,-1.3809,-1.3418,-1.3418,-1.3213,-1.2881,-1.2881,-1.2881,-1.2822,-1.2187,-1.1466,-1.0762,-3.0986,-2.9971,-2.8997,-2.8997,-2.9007,-2.8994,-2.8994,-2.8994,-2.8773,-2.813,-2.7442,-2.7063,-2.703,-2.4491,-2.2427,-2.1585,-2.1535,-2.1243,-2.0471,-2.0159,-2.019,-2.0583,-2.0649,-2.0975,-2.1582,-2.1869,-2.1899,-2.1721,-2.1899,-2.1899,-2.1721,-2.1721,-2.1994,-2.2441,-2.2441,-2.2626,-2.2947,-2.3277,-2.3305,-2.3189,-2.3599,-2.3584,-2.3324,-2.3705,-2.2794,-2.1144,-1.9588,-1.2457,-0.3182,0.0628,0.4598,0.8393,1.0705,1.1677,1.1304,0.8024,0.7302,0.7279,0.583,0.5318,0.5328,0.5599,0.6112,0.6822,0.7819,0.734,0.6912,0.7563,0.8224,0.8771,0.9064,0.9578,1.0009,1.0109,1.0558,1.0795,1.0416,1.077,1.0694,0.9557,0.817,0.7038,0.6421,0.4573,0.2398,-0.0137,-0.4351,-0.7413,-0.899,-1.0625,-1.1931,-1.2753,-1.263,-1.1927,-1.0597,-1.0227,-0.9765,-0.9227,-1.0085,-1.1146,-1.2282,-1.2721,-1.3516,-1.4492,-1.4492,-1.3897,-1.2974,-1.3352,-1.3032,-1.2344,-1.2725,-1.2881,-1.2822,-1.208,-1.1616,-1.1316]}]]